[[{"header":{"parameterUnit":"m.s-1","parameterCategory":1,"la1":30.6,"la2":29.2853,"lo1":-89.7004,"lo2":-87.6739,"dy":0.0162,"dx":0.0183,"nx":112,"ny":82,"refTime":"2024-08-12T18:00:00:Z","depth":0,"parameterNumber":2,"parameterNumberName":"U-component_of_WINDS"},"data":[0.0,0.0,0.0,0.0,0.0,0.0,0.0,0.0,0.0,0.0,0.0,0.0,0.0,0.0,0.0,0.0,0.0,0.0,0.0,0.0,0.0,0.0,0.0,0.0,0.0,0.0,0.0,0.0,0.0,0.0,0.0,0.0,0.0,0.0,0.0,0.0,0.0,0.0,0.0,0.0,0.0,0.0,0.0,0.0,0.0,0.0,0.0,0.0,0.0,0.0,0.0,0.0,0.0,0.0,0.0,0.0,0.0,0.0,0.0,0.0,0.0,0.0,0.0,0.0,0.0,0.0,0.0,0.0,0.0,0.0,0.0,0.0,0.0,0.0,0.0,0.0,0.0,0.0,0.0,0.0,0.0,0.0,0.0,0.0,0.0,0.0,0.0,0.0,0.0,0.0,2.2647,2.3739,2.4515,2.4991,2.5076,2.5031,2.427,2.2619,0.0,0.0,0.0,0.0,0.0,0.0,0.0,0.0,0.0,0.0,0.0,0.0,0.0,0.0,0.0,0.0,0.0,0.0,0.0,0.0,0.0,0.0,0.0,0.0,0.0,0.0,0.0,0.0,0.0,0.0,0.0,0.0,0.0,0.0,0.0,0.0,0.0,0.0,0.0,0.0,0.0,0.0,0.0,0.0,0.0,0.0,0.0,0.0,0.0,0.0,0.0,0.0,0.0,0.0,0.0,0.0,0.0,0.0,0.0,0.0,0.0,0.0,0.0,0.0,0.0,0.0,0.0,0.0,0.0,0.0,0.0,0.0,0.0,0.0,0.0,0.0,0.0,0.0,0.0,0.0,0.0,0.0,0.0,0.0,0.0,0.0,0.0,0.0,0.0,0.0,0.0,0.0,0.0,0.0,0.0,0.0,0.0,0.0,0.0,0.0,0.0,0.0,0.0,0.0,2.2018,2.4306,2.4663,2.4832,2.4991,2.501,2.427,2.2619,0.0,0.0,0.0,0.0,0.0,0.0,0.0,0.0,0.0,0.0,0.0,0.0,0.0,0.0,0.0,0.0,0.0,0.0,0.0,0.0,0.0,0.0,0.0,0.0,0.0,0.0,0.0,0.0,0.0,0.0,0.0,0.0,0.0,0.0,0.0,0.0,0.0,0.0,0.0,0.0,0.0,0.0,0.0,0.0,0.0,0.0,0.0,0.0,0.0,0.0,0.0,0.0,0.0,0.0,0.0,0.0,0.0,0.0,0.0,0.0,0.0,0.0,0.0,0.0,0.0,0.0,0.0,0.0,0.0,0.0,0.0,0.0,0.0,0.0,0.0,0.0,0.0,0.0,0.0,0.0,0.0,0.0,0.0,0.0,0.0,0.0,0.0,0.0,0.0,0.0,0.0,0.0,0.0,0.0,0.0,0.0,0.0,0.0,0.0,0.0,0.0,0.0,0.0,2.1789,2.2828,2.4375,2.4526,2.4575,2.4673,2.4673,2.4009,2.2437,2.0747,0.0,0.0,0.0,0.0,0.0,0.0,0.0,0.0,0.0,0.0,0.0,0.0,0.0,0.0,0.0,0.0,0.0,0.0,0.0,0.0,0.0,0.0,0.0,0.0,0.0,0.0,0.0,0.0,0.0,0.0,0.0,0.0,0.0,0.0,0.0,0.0,0.0,0.0,0.0,0.0,0.0,0.0,0.0,0.0,0.0,0.0,0.0,0.0,0.0,0.0,0.0,0.0,0.0,0.0,0.0,0.0,0.0,0.0,0.0,0.0,0.0,0.0,0.0,0.0,0.0,0.0,0.0,0.0,0.0,0.0,0.0,0.0,0.0,0.0,0.0,0.0,0.0,0.0,0.0,0.0,0.0,0.0,0.0,0.0,0.0,0.0,0.0,0.0,0.0,0.0,0.0,0.0,0.0,0.0,0.0,0.0,0.0,0.0,0.0,0.0,0.0,0.0,2.3316,2.37,2.4263,2.4319,2.4355,2.4389,2.4239,2.3563,2.2237,2.0431,0.0,0.0,0.0,0.0,0.0,0.0,0.0,0.0,0.0,0.0,0.0,0.0,0.0,0.0,0.0,0.0,0.0,0.0,0.0,0.0,0.0,0.0,0.0,0.0,0.0,0.0,0.0,0.0,0.0,0.0,0.0,0.0,0.0,0.0,0.0,0.0,0.0,0.0,0.0,0.0,0.0,0.0,0.0,0.0,0.0,0.0,0.0,0.0,0.0,0.0,0.0,0.0,0.0,0.0,0.0,0.0,0.0,0.0,0.0,0.0,0.0,0.0,0.0,0.0,0.0,0.0,0.0,0.0,0.0,0.0,0.0,0.0,0.0,0.0,0.0,0.0,0.0,0.0,0.0,0.0,0.0,0.0,0.0,0.0,0.0,0.0,0.0,0.0,0.0,0.0,0.0,0.0,0.0,0.0,0.0,0.0,0.0,0.0,0.0,0.0,0.0,0.0,2.3052,2.3866,2.4098,2.4117,2.4192,2.4389,2.3717,2.2917,2.208,1.9868,0.0,0.0,0.0,0.0,0.0,0.0,0.0,0.0,0.0,0.0,0.0,0.0,0.0,0.0,0.0,0.0,0.0,0.0,0.0,0.0,0.0,0.0,0.0,0.0,0.0,0.0,0.0,0.0,0.0,0.0,0.0,0.0,0.0,0.0,0.0,0.0,0.0,0.0,0.0,0.0,0.0,0.0,0.0,0.0,0.0,0.0,0.0,0.0,0.0,0.0,0.0,0.0,0.0,0.0,0.0,0.0,0.0,0.0,0.0,0.0,0.0,0.0,0.0,0.0,0.0,0.0,0.0,0.0,0.0,0.0,0.0,0.0,0.0,0.0,0.0,0.0,0.0,0.0,0.0,0.0,0.0,0.0,0.0,0.0,0.0,0.0,0.0,0.0,0.0,0.0,0.0,0.0,0.0,0.0,0.0,0.0,0.0,0.0,0.0,0.0,0.0,0.0,2.263,2.3412,2.3864,2.3919,2.3941,2.402,2.3765,2.307,2.1889,0.0,0.0,0.0,0.0,0.0,0.0,0.0,0.0,0.0,0.0,0.0,0.0,0.0,0.0,0.0,0.0,0.0,0.0,0.0,0.0,0.0,0.0,0.0,0.0,0.0,0.0,0.0,0.0,0.0,0.0,0.0,0.0,0.0,0.0,0.0,0.0,0.0,0.0,0.0,0.0,0.0,0.0,0.0,0.0,0.0,0.0,0.0,0.0,0.0,0.0,0.0,0.0,0.0,0.0,0.0,0.0,0.0,0.0,0.0,0.0,0.0,0.0,0.0,0.0,0.0,0.0,0.0,0.0,0.0,0.0,0.0,0.0,0.0,0.0,0.0,0.0,0.0,0.0,0.0,0.0,0.0,0.0,0.0,0.0,0.0,0.0,0.0,0.0,0.0,0.0,0.0,0.0,0.0,0.0,0.0,0.0,0.0,0.0,0.0,0.0,0.0,0.0,2.1438,2.2575,2.3356,2.3762,2.3795,2.3795,2.3795,2.3578,2.2932,2.1717,0.0,0.0,0.0,0.0,0.0,0.0,0.0,0.0,0.0,0.0,0.0,0.0,0.0,0.0,0.0,0.0,0.0,0.0,0.0,0.0,0.0,0.0,0.0,0.0,0.0,0.0,0.0,0.0,0.0,0.0,0.0,0.0,0.0,0.0,0.0,0.0,0.0,0.0,0.0,0.0,0.0,0.0,0.0,0.0,0.0,0.0,0.0,0.0,0.0,0.0,0.0,0.0,0.0,0.0,0.0,0.0,0.0,0.0,0.0,0.0,0.0,0.0,0.0,0.0,0.0,0.0,0.0,0.0,0.0,0.0,0.0,0.0,0.0,0.0,0.0,0.0,0.0,0.0,0.0,0.0,0.0,0.0,0.0,0.0,0.0,0.0,0.0,0.0,0.0,0.0,0.0,0.0,0.0,0.0,0.0,0.0,0.0,0.0,0.0,0.0,0.0,0.0,2.1476,2.2936,2.3795,2.3795,2.3795,2.3795,2.3795,2.3125,2.2365,0.0,0.0,0.0,0.0,0.0,0.0,0.0,0.0,0.0,0.0,0.0,0.0,0.0,0.0,0.0,0.0,0.0,0.0,0.0,0.0,0.0,0.0,0.0,0.0,0.0,0.0,0.0,0.0,0.0,0.0,0.0,0.0,0.0,0.0,0.0,0.0,0.0,0.0,0.0,0.0,0.0,0.0,0.0,0.0,0.0,0.0,0.0,0.0,0.0,0.0,0.0,0.0,0.0,0.0,0.0,0.0,0.0,0.0,0.0,0.0,0.0,0.0,0.0,0.0,0.0,0.0,0.0,0.0,0.0,0.0,0.0,0.0,0.0,0.0,0.0,0.0,0.0,0.0,0.0,0.0,0.0,0.0,0.0,0.0,0.0,0.0,0.0,0.0,0.0,0.0,0.0,0.0,0.0,0.0,0.0,0.0,0.0,0.0,0.0,0.0,0.0,0.0,0.0,2.1352,2.2876,2.3795,2.3795,2.3795,2.3795,2.3795,2.3125,2.2365,2.155,0.0,0.0,0.0,0.0,0.0,0.0,0.0,0.0,0.0,0.0,0.0,0.0,0.0,0.0,0.0,0.0,0.0,0.0,0.0,0.0,0.0,0.0,0.0,0.0,0.0,0.0,0.0,0.0,0.0,0.0,0.0,0.0,0.0,0.0,0.0,0.0,0.0,0.0,0.0,0.0,0.0,0.0,0.0,0.0,0.0,0.0,0.0,0.0,0.0,0.0,0.0,0.0,0.0,0.0,0.0,0.0,0.0,0.0,0.0,0.0,0.0,0.0,0.0,0.0,0.0,0.0,0.0,0.0,0.0,0.0,0.0,0.0,0.0,0.0,0.0,0.0,0.0,0.0,0.0,0.0,0.0,0.0,0.0,0.0,0.0,0.0,0.0,0.0,0.0,0.0,0.0,0.0,0.0,0.0,0.0,0.0,0.0,0.0,0.0,0.0,0.0,0.0,2.1144,2.2629,2.3518,2.3518,2.3518,2.3518,2.3518,2.3101,2.2386,2.1276,0.0,0.0,0.0,0.0,0.0,0.0,0.0,0.0,0.0,0.0,0.0,0.0,0.0,0.0,0.0,0.0,0.0,0.0,0.0,0.0,0.0,0.0,0.0,0.0,0.0,0.0,0.0,0.0,0.0,0.0,0.0,0.0,0.0,0.0,0.0,0.0,0.0,0.0,0.0,0.0,0.0,0.0,0.0,0.0,0.0,0.0,0.0,0.0,0.0,0.0,0.0,0.0,0.0,0.0,0.0,0.0,0.0,0.0,0.0,0.0,0.0,0.0,0.0,0.0,0.0,0.0,0.0,0.0,0.0,0.0,0.0,0.0,0.0,0.0,0.0,0.0,0.0,0.0,0.0,0.0,0.0,0.0,0.0,0.0,0.0,0.0,0.0,0.0,0.0,0.0,0.0,0.0,0.0,0.0,0.0,0.0,0.0,0.0,0.0,0.0,0.0,0.0,2.0995,2.2311,2.3091,2.3091,2.3091,2.3091,2.3091,2.3021,2.2371,2.0894,0.0,0.0,0.0,0.0,0.0,0.0,0.0,0.0,0.0,0.0,0.0,0.0,0.0,0.0,0.0,0.0,0.0,0.0,0.0,0.0,0.0,0.0,0.0,0.0,0.0,0.0,0.0,0.0,0.0,0.0,0.0,0.0,0.0,0.0,0.0,0.0,0.0,0.0,0.0,0.0,0.0,0.0,0.0,0.0,0.0,0.0,0.0,0.0,0.0,0.0,0.0,0.0,0.0,0.0,0.0,0.0,0.0,0.0,0.0,0.0,1.905,1.9026,0.0,0.0,0.0,0.0,0.0,0.0,0.0,0.0,0.0,0.0,0.0,0.0,0.0,0.0,0.0,0.0,0.0,0.0,0.0,0.0,0.0,0.0,0.0,0.0,0.0,0.0,0.0,0.0,0.0,0.0,0.0,0.0,0.0,0.0,0.0,0.0,0.0,0.0,0.0,0.0,2.1743,2.2647,2.3049,2.294,2.3049,2.3049,2.294,2.2457,2.1762,2.0859,1.9328,0.0,0.0,0.0,0.0,0.0,0.0,0.0,0.0,0.0,0.0,0.0,0.0,0.0,0.0,0.0,0.0,0.0,0.0,0.0,0.0,0.0,0.0,0.0,0.0,0.0,0.0,0.0,0.0,0.0,0.0,0.0,0.0,0.0,0.0,0.0,0.0,0.0,0.0,0.0,0.0,0.0,0.0,0.0,0.0,0.0,0.0,0.0,0.0,0.0,0.0,0.0,0.0,0.0,0.0,0.0,0.0,0.0,0.0,0.0,2.0372,2.034,0.0,0.0,0.0,0.0,0.0,0.0,0.0,0.0,0.0,0.0,0.0,0.0,0.0,0.0,0.0,0.0,0.0,0.0,0.0,0.0,0.0,0.0,0.0,0.0,0.0,0.0,0.0,0.0,0.0,0.0,0.0,0.0,0.0,0.0,0.0,0.0,0.0,0.0,0.0,0.0,2.1651,2.2364,2.2677,2.2634,2.2651,2.2651,2.259,2.222,2.1644,2.0938,1.9516,0.0,0.0,0.0,0.0,0.0,0.0,0.0,0.0,0.0,0.0,0.0,0.0,0.0,0.0,0.0,0.0,0.0,0.0,0.0,0.0,0.0,0.0,0.0,0.0,0.0,0.0,0.0,0.0,0.0,0.0,0.0,0.0,0.0,0.0,0.0,0.0,0.0,0.0,0.0,0.0,0.0,0.0,0.0,0.0,0.0,0.0,0.0,0.0,0.0,0.0,0.0,0.0,0.0,2.1615,2.171,2.1907,2.2262,2.2196,2.1811,2.1829,2.1897,2.193,2.1185,0.0,0.0,0.0,0.0,0.0,0.0,0.0,0.0,0.0,0.0,0.0,0.0,0.0,0.0,0.0,0.0,0.0,0.0,0.0,0.0,0.0,0.0,2.0953,2.0461,2.0837,2.1138,2.0632,0.0,0.0,0.0,0.0,0.0,0.0,0.0,0.0,0.0,0.0,0.0,2.1455,2.2014,2.2282,2.2237,2.2197,2.218,2.2237,2.2073,2.1709,2.1042,1.9926,1.8954,0.0,0.0,0.0,0.0,0.0,0.0,0.0,0.0,0.0,0.0,0.0,0.0,0.0,0.0,0.0,0.0,0.0,0.0,0.0,0.0,0.0,0.0,0.0,0.0,0.0,0.0,0.0,0.0,0.0,0.0,0.0,0.0,1.6069,1.6085,0.0,0.0,0.0,0.0,0.0,0.0,0.0,0.0,0.0,0.0,0.0,0.0,0.0,2.2152,2.3714,2.444,2.4608,2.4226,2.4847,2.4831,2.4265,2.4708,2.4555,2.3987,2.5694,0.0,2.2692,2.1903,0.0,0.0,0.0,0.0,0.0,0.0,0.0,0.0,0.0,0.0,0.0,0.0,0.0,0.0,0.0,0.0,0.0,0.0,0.0,0.0,0.0,0.0,2.2742,2.3288,2.3487,2.3354,2.2687,2.0943,1.9332,1.871,1.8468,1.8176,0.0,0.0,0.0,0.0,0.0,0.0,2.207,2.2237,2.2168,2.1957,2.2015,2.2015,2.1957,2.1969,2.168,2.096,2.0743,2.0307,1.9562,1.8947,0.0,0.0,0.0,0.0,0.0,0.0,0.0,0.0,0.0,0.0,0.0,0.0,0.0,0.0,0.0,0.0,0.0,0.0,0.0,0.0,0.0,0.0,0.0,0.0,0.0,0.0,0.0,0.0,0.0,1.5891,1.6623,1.7229,1.7592,1.7766,0.0,0.0,0.0,0.0,0.0,0.0,0.0,0.0,0.0,2.1978,2.2641,2.3421,2.428,2.4771,2.493,2.4725,2.5288,2.5087,2.4204,2.5055,2.5037,2.446,2.5577,2.5738,2.5188,2.4513,2.4166,2.3918,0.0,0.0,0.0,0.0,2.1519,2.12,2.1259,2.1288,2.1301,2.1301,0.0,0.0,0.0,0.0,0.0,0.0,0.0,2.2626,2.294,2.3272,2.3603,2.3918,2.3835,2.3569,2.3243,2.241,2.146,2.0515,2.0052,1.9671,1.9356,1.8974,0.0,0.0,0.0,2.0837,2.2001,2.2113,2.2061,2.1969,2.194,2.194,2.1969,2.1911,2.1766,2.1461,2.1033,2.0666,2.0367,1.9721,1.9026,0.0,0.0,0.0,0.0,0.0,0.0,0.0,0.0,0.0,0.0,0.0,0.0,0.0,0.0,0.0,0.0,0.0,0.0,0.0,0.0,0.0,0.0,0.0,0.0,0.0,0.0,0.0,0.0,1.6605,1.7142,1.8303,1.8579,1.8695,0.0,0.0,0.0,0.0,0.0,0.0,2.1452,2.212,2.2818,2.3504,2.4192,2.4648,2.4905,2.5144,2.533,2.5362,2.5667,2.5424,2.4687,2.5618,2.5685,2.5111,2.5733,2.647,2.7153,2.6451,2.5917,2.5502,2.4725,2.4048,2.3489,2.3472,2.3079,2.2557,2.2536,2.247,2.2454,2.2595,2.2758,2.2907,2.2765,0.0,0.0,0.0,0.0,2.3962,2.4176,2.4078,2.403,2.4312,2.4156,2.3932,2.384,2.3756,2.3383,2.2406,2.1853,2.1466,2.1284,2.082,0.0,2.0879,2.0957,2.1139,2.1622,2.1777,2.1853,2.1823,2.1853,2.1882,2.194,2.1869,2.1811,2.1869,2.1296,2.0998,2.1043,2.0539,1.997,1.9361,0.0,0.0,0.0,0.0,0.0,0.0,0.0,0.0,0.0,0.0,0.0,0.0,0.0,0.0,0.0,0.0,0.0,0.0,0.0,0.0,0.0,0.0,0.0,0.0,0.0,0.0,0.0,0.0,0.0,1.8985,1.9624,0.0,0.0,0.0,0.0,2.1801,2.2396,2.2728,2.2801,2.3441,2.408,2.467,2.5357,2.6097,2.6842,2.6857,2.6946,2.707,2.7085,2.7056,2.7041,2.7564,2.7382,2.6728,2.8,2.817,2.748,2.6432,2.6478,2.7098,2.6171,2.5766,2.5733,2.5587,2.5298,2.491,2.4762,2.4482,2.4252,2.4775,2.5425,2.59,2.5456,2.5287,0.0,0.0,2.3683,2.3871,2.4579,2.4302,2.4084,2.5169,2.5389,2.5338,2.5089,2.4699,2.4223,2.346,2.3588,2.3603,2.2907,0.0,2.2417,2.142,2.1337,2.126,2.0909,2.1198,2.1417,2.134,2.1617,2.1827,2.1811,2.1781,2.1797,2.1781,2.1777,2.1731,2.1731,2.1698,2.1363,2.0616,2.0063,0.0,0.0,0.0,0.0,0.0,0.0,0.0,0.0,0.0,0.0,0.0,0.0,0.0,0.0,0.0,0.0,0.0,0.0,0.0,0.0,0.0,0.0,0.0,0.0,0.0,0.0,0.0,0.0,2.0843,2.154,0.0,2.1888,2.2294,2.2773,2.318,2.3426,2.3905,2.4733,2.4979,2.5415,2.6068,2.6315,2.6599,2.6899,2.6899,2.6884,2.6937,2.6937,2.6937,2.6937,2.7115,2.7208,2.727,2.7758,2.8021,2.8124,2.7756,2.7721,2.7842,2.6707,2.6197,2.6053,2.5647,2.512,2.4576,2.4524,2.4655,2.4942,2.5675,2.6188,2.6509,2.6427,2.6386,2.6297,2.5879,2.5733,2.5837,2.6073,2.5642,2.525,2.5664,2.5234,2.4697,2.4618,2.4477,2.4296,2.4022,2.3523,2.3178,2.3208,2.2957,2.2639,2.2261,2.2066,2.1924,2.1793,2.171,2.1631,2.1601,2.1738,2.1797,2.1797,2.1617,2.1587,2.1797,2.1617,2.157,2.1781,2.1797,2.1665,2.14,2.0755,1.9674,0.0,0.0,0.0,0.0,0.0,0.0,0.0,0.0,0.0,0.0,0.0,0.0,0.0,0.0,0.0,0.0,0.0,0.0,0.0,0.0,0.0,0.0,0.0,0.0,0.0,2.019,2.1133,2.2193,2.2875,2.3267,2.3267,2.3659,2.4167,2.482,2.5067,2.5647,2.6707,2.6765,2.6968,2.7418,2.7418,2.7316,2.7113,2.7099,2.6997,2.6779,2.6779,2.6779,2.6779,2.6779,2.6974,2.724,2.724,2.7545,2.7944,2.7944,2.7994,2.7967,2.7394,2.7092,2.6934,2.6554,2.5995,2.5419,2.5218,2.5346,2.5699,2.6519,2.6887,2.6985,2.6912,2.7083,2.7223,2.6854,2.6747,2.6793,2.6793,2.6311,2.5827,2.5983,2.5443,2.4964,2.5149,2.4894,2.4683,2.4792,2.4085,2.3449,2.3535,2.3399,2.3122,2.2608,2.263,2.2633,2.2327,2.2329,2.2241,2.1854,2.1931,2.1864,2.1495,2.1371,2.1402,2.1617,2.1526,2.1587,2.1781,2.1797,2.1797,2.1797,2.1097,2.0091,1.8856,0.0,0.0,0.0,0.0,0.0,0.0,0.0,0.0,0.0,0.0,0.0,0.0,0.0,0.0,0.0,0.0,0.0,0.0,0.0,0.0,0.0,0.0,0.0,2.0219,2.1293,2.2309,2.2917,2.3586,2.3992,2.4007,2.5125,2.6126,2.6794,2.7403,2.8028,2.8652,2.8681,2.8681,2.8681,2.8681,2.839,2.7766,2.7683,2.7418,2.6823,2.6794,2.6779,2.6779,2.6779,2.6779,2.6779,2.6779,2.6779,2.6779,2.6779,2.7063,2.7565,2.8207,2.8479,2.8463,2.8304,2.8012,2.759,2.7025,2.6688,2.6605,2.7363,2.7596,2.7504,2.7037,2.7446,2.7841,2.6713,2.6534,2.6617,2.6617,2.6138,2.5723,2.6123,2.6198,2.6317,2.6761,2.6013,2.5419,2.5811,2.5343,2.4705,2.3941,2.4169,2.3946,2.2463,2.2968,0.0,2.2421,2.2992,2.3052,2.197,2.2179,2.1972,2.0939,2.1135,2.1309,2.1309,2.1617,2.1797,2.1797,2.1797,2.1797,2.1797,2.1097,2.034,1.9601,0.0,0.0,0.0,0.0,0.0,0.0,0.0,0.0,0.0,0.0,0.0,0.0,0.0,0.0,0.0,0.0,0.0,0.0,0.0,0.0,0.0,2.2333,2.286,2.286,2.3543,2.4283,2.4936,2.5589,2.617,2.6634,2.6982,2.7461,2.8115,2.8318,2.8492,2.8666,2.8681,2.8681,2.8681,2.8681,2.8594,2.8419,2.7955,2.765,2.7461,2.7012,2.6779,2.6779,2.6779,2.6779,2.6779,2.6779,2.6779,2.6779,2.6779,2.6884,2.7011,2.7218,2.7494,2.7715,2.7357,2.7167,2.7086,2.727,2.7041,2.6837,2.7448,2.7425,2.7155,2.714,2.7259,2.7378,2.7062,2.7018,2.7069,2.717,2.6693,2.6236,2.6447,2.6118,2.5817,2.5909,2.5727,2.5561,2.5682,2.553,2.5118,2.4292,2.3994,2.3712,2.3296,2.3262,2.3188,2.2994,2.2911,2.2933,2.2948,2.2585,2.2329,2.2311,2.1695,2.1402,2.1648,2.1526,2.1556,2.1797,2.1797,2.1797,2.1797,2.1097,2.034,0.0,0.0,0.0,0.0,0.0,0.0,0.0,0.0,0.0,0.0,0.0,0.0,0.0,0.0,0.0,0.0,0.0,0.0,0.0,0.0,0.0,0.0,2.3727,2.4471,2.5023,2.5168,2.5473,2.6126,2.6779,2.7316,2.7639,2.7969,2.839,2.9029,2.9073,2.9189,2.9464,2.9479,2.9479,2.9479,2.9479,2.9348,2.9073,2.871,2.839,2.8115,2.7752,2.7432,2.7186,2.7186,2.7041,2.6779,2.6779,2.6779,2.6779,2.6779,2.6779,2.6779,0.0,0.0,0.0,0.0,2.6779,2.6832,2.71,2.7011,2.6884,2.7203,2.713,2.6951,2.7041,2.7078,2.7144,2.7144,2.7181,2.7233,2.7284,2.7069,2.6837,2.6922,2.6673,2.6437,2.6437,2.6213,2.6019,2.6019,2.5794,0.0,2.4938,2.4559,2.4141,2.3683,2.3769,2.3847,2.3661,2.3647,2.3538,2.3396,2.2948,2.2619,2.2404,2.1702,0.0,0.0,0.0,2.1464,2.1797,2.1797,0.0,0.0,0.0,0.0,0.0,0.0,0.0,0.0,2.1206,2.1522,0.0,0.0,0.0,0.0,0.0,0.0,0.0,0.0,0.0,0.0,0.0,0.0,0.0,0.0,0.0,0.0,2.4916,2.5458,2.662,2.6271,2.6141,2.6808,2.7389,2.7781,2.7871,2.8448,2.9044,2.9682,2.9726,2.9972,3.0539,3.0568,0.0,0.0,0.0,3.0306,2.974,2.9668,2.9334,2.8782,2.871,2.839,2.7839,2.7839,2.7534,2.6997,2.6997,2.6997,2.6997,2.6997,2.6953,2.6881,2.6823,2.6779,2.6779,2.6779,2.6779,2.6779,2.6779,0.0,0.0,2.6779,2.6779,2.6794,2.6866,2.7001,2.7053,2.7053,2.7143,2.7218,2.7196,2.7248,2.735,2.7401,2.7488,2.7575,2.7575,2.7111,2.6707,2.6707,2.6228,2.5762,2.5734,2.5425,2.4887,2.3848,2.4302,2.4623,2.4261,2.4517,2.4389,2.352,2.3381,0.0,2.2028,2.1636,2.1548,2.1815,2.1648,2.1678,2.2029,2.2046,2.2046,2.2046,2.2046,2.2046,2.2046,2.2692,2.3023,2.3007,2.2915,2.3379,0.0,0.0,0.0,0.0,0.0,0.0,0.0,0.0,0.0,0.0,0.0,0.0,0.0,0.0,0.0,2.4684,2.572,2.6489,2.675,2.6678,2.6837,2.7461,2.765,2.8074,2.916,2.9377,2.9697,3.0335,3.0393,3.0437,3.0568,3.0568,3.0568,3.0568,3.0568,3.051,3.0393,2.9885,2.9566,2.9435,2.8927,0.0,2.8507,2.8507,2.8419,2.8318,2.8318,2.8318,2.8318,2.8318,2.8013,2.7505,2.6982,2.6779,2.6779,2.6779,2.6779,2.6779,2.6779,2.6779,2.6779,2.6779,2.6779,2.6881,2.7389,2.7549,0.0,2.7549,2.7603,2.754,2.7135,2.7055,2.7159,2.735,2.7401,2.7437,2.7437,2.7348,2.7259,2.7259,2.7155,2.6887,2.6497,2.5452,2.4672,2.4448,2.407,2.3794,2.3739,2.3809,2.3933,2.4076,2.3857,2.3606,2.3405,2.3163,2.2821,2.2524,2.2799,2.3176,2.357,2.357,2.357,2.357,2.357,2.357,2.357,2.3719,2.3785,2.3785,2.4254,2.443,0.0,0.0,0.0,0.0,0.0,0.0,0.0,0.0,0.0,0.0,0.0,2.3612,2.3851,0.0,2.5067,2.5705,2.6358,2.6895,2.7215,2.6982,2.7012,2.765,2.8013,2.8579,2.9537,2.9914,3.0234,3.0553,3.0568,3.0568,3.0568,3.0568,3.0568,3.0568,3.0568,3.0568,3.0568,3.0263,3.0103,3.0103,2.9769,2.9464,2.9145,2.9145,2.8985,2.8681,2.8681,2.8681,2.8681,2.8681,2.8492,2.8173,2.7853,2.7345,2.6779,2.6779,2.6779,2.6779,2.6779,2.6779,2.6779,2.6779,2.6997,2.7316,2.7636,2.7955,2.8202,2.8202,2.8202,2.8144,2.7933,2.7652,2.7598,2.8027,2.7971,2.7772,2.7772,2.7772,2.7669,2.7461,2.735,2.7232,2.7056,2.6176,2.5416,2.512,2.4552,2.4118,2.4118,2.3819,2.3696,2.3909,2.3799,2.3707,2.3707,2.3636,2.3358,2.2796,2.3151,2.3583,2.4,2.3802,2.3786,2.4,2.4,2.4,2.4,2.4381,2.4547,2.4564,2.5406,2.5606,0.0,0.0,0.0,0.0,0.0,0.0,0.0,0.0,2.635,2.4788,2.4462,2.4614,2.4999,2.527,2.5778,2.6808,2.707,2.7331,2.7839,2.7476,2.7389,2.8028,2.8434,2.8985,2.974,3.0277,3.0568,3.0568,3.0568,3.0568,3.0568,3.0568,3.0568,3.0568,3.0568,3.0568,3.0568,3.0568,3.0568,3.0568,3.0568,3.0306,2.9813,2.9813,2.9537,2.9044,2.9044,2.9044,2.9044,2.8913,2.8855,2.884,2.8739,2.8057,2.7157,2.7157,2.7157,2.7157,2.7157,2.7157,2.7157,2.7157,2.7505,2.794,2.8057,2.8463,2.8855,2.8855,2.8855,2.884,2.871,2.84,2.8192,2.8788,2.8565,2.8277,2.8277,2.8174,2.7924,2.758,2.7321,2.7233,2.735,2.6956,2.6391,2.5866,2.5194,2.4776,2.4776,2.4223,2.3789,2.3789,2.3771,2.3767,2.3852,2.3869,2.3752,2.3369,2.3551,2.3886,2.4264,2.4076,2.4041,2.4298,2.4398,2.4431,2.4431,2.5027,2.5325,2.5325,2.6201,2.6436,1.8888,1.9775,2.0393,1.9224,1.8832,1.9998,0.0,0.0,2.6533,2.5538,2.5497,2.5625,2.5676,2.6634,2.7461,2.7607,2.81,2.8492,2.8565,2.8507,2.8695,2.9334,2.8971,2.9145,3.035,3.0539,3.0568,3.0568,3.0568,3.0568,3.0568,3.0568,3.0568,3.0568,3.0568,3.0568,3.0568,3.0568,3.0568,3.0568,3.0568,3.0539,3.0466,3.0466,3.0422,3.0364,3.0364,3.0364,3.0321,2.9755,2.9523,2.9464,2.8898,2.8594,2.8463,2.8463,2.8463,2.8463,2.8463,2.8463,2.8463,2.8463,2.8521,2.8681,2.9247,2.9464,2.9523,2.9523,2.9523,2.9392,2.8826,2.8679,2.865,2.8834,2.8861,2.8803,2.8803,2.8334,2.7896,2.7876,2.7422,2.7107,2.735,2.7342,2.7075,2.6406,2.5834,2.5495,2.5495,2.4881,2.4462,2.4462,2.4331,2.4369,2.4704,2.4455,2.4538,2.5148,2.4898,2.4898,2.5313,2.5707,2.5707,2.535,2.5743,2.5955,2.5955,2.6054,2.6087,2.6087,2.6206,2.6225,1.9989,2.0025,2.0094,2.1094,2.2441,2.4129,2.6325,2.7175,2.7369,2.6886,2.7152,2.7476,2.7476,2.7911,2.8289,2.8289,2.8507,2.8811,2.9174,2.8913,2.9058,3.006,2.961,2.9581,3.048,3.0568,3.0568,3.0568,3.0568,3.0568,3.0568,3.0568,3.0568,3.0568,3.093,3.1119,3.1119,3.1511,3.1511,3.1119,3.1119,3.093,3.0568,3.0568,3.0568,3.0568,3.0568,3.0568,3.0553,3.0292,3.0176,3.0147,2.9885,2.9784,2.9697,2.8942,2.8681,2.8681,2.8681,2.8681,2.8681,2.8681,2.8927,2.9276,2.9537,2.9885,3.0176,3.0176,3.0176,3.0118,2.9842,2.9508,2.9319,2.9755,2.9566,2.929,2.929,2.9071,2.8706,2.8057,2.7598,2.7389,2.7218,2.7159,2.7056,2.6791,2.6387,2.6054,2.6054,2.5725,2.5605,2.6004,2.5612,2.5372,2.5519,2.5219,2.5121,2.5465,2.5351,2.5443,2.5901,2.5811,2.5811,2.5901,2.6079,2.622,2.622,2.622,2.622,2.622,2.6634,2.6833,2.0436,2.0844,2.1682,2.3529,2.5409,2.6825,2.6822,2.7432,2.793,2.7763,2.8231,2.8681,2.8681,2.8826,2.8942,2.8942,2.9087,2.9363,2.9813,2.9493,2.9552,3.0466,3.0161,3.0074,3.0524,3.0568,3.064,3.0829,3.0843,3.0916,3.1105,3.1105,3.1105,3.1105,3.1555,3.1801,3.1801,3.228,3.228,3.1801,3.1801,3.1555,3.1105,3.0916,3.0843,3.0829,3.064,3.0568,3.0568,3.0568,3.0568,3.0568,3.0568,3.0568,3.0466,2.9537,2.9203,2.9203,2.9203,2.9203,2.9203,2.9203,2.9508,2.9885,2.9885,3.0205,3.0568,3.0568,3.0568,3.0568,3.0568,3.0234,3.0001,3.0466,3.0219,2.9885,2.9885,2.974,2.9348,2.8516,2.801,2.7578,2.7287,2.712,2.7003,2.7003,2.6747,2.6603,2.6639,2.6354,2.6306,2.6629,2.6461,2.6287,2.6287,2.6158,2.6178,2.6308,2.6178,2.6271,2.6599,2.64,2.64,2.6599,2.6726,2.6816,2.6816,2.6816,2.6816,2.6833,2.733,2.7715,0.0,2.279,2.6581,2.6672,2.6718,2.6777,2.6797,2.7399,2.7963,2.7752,2.8231,2.8681,2.8681,2.9189,2.9595,2.9595,3.0118,3.0524,3.0539,3.0524,3.0539,3.0568,3.0553,3.0553,3.0568,3.0568,3.0829,3.1438,3.1482,3.1772,3.2425,3.2454,3.2454,3.2454,3.2483,3.2483,3.2483,3.2513,3.2513,3.2483,3.2483,3.2483,3.244,3.1787,3.1482,3.1453,3.0843,3.0568,3.0568,3.0568,3.0568,3.0568,3.0568,3.0568,3.0568,3.0539,3.051,3.051,3.051,3.051,3.051,3.051,3.0524,3.0553,3.0553,3.0553,3.0568,3.0568,3.0568,3.0568,3.0568,3.0553,3.0553,3.0568,3.0553,3.0553,3.0553,3.006,2.961,2.9581,2.8565,2.7723,2.7827,2.7398,2.7003,2.7003,2.6989,2.7026,2.7152,2.6742,2.6188,2.5674,2.645,2.6957,2.6957,2.7361,2.7825,2.8268,2.7905,2.7632,2.7632,2.8079,2.8079,2.7672,2.8079,2.8307,2.8307,2.8307,2.8307,2.8307,2.8379,2.8704,1.9269,2.287,2.6811,2.6819,2.7202,2.7618,2.7613,2.8373,2.9029,2.8985,2.916,2.9305,2.9305,2.9479,2.9624,2.9624,3.0161,3.0568,3.0568,3.0568,3.0568,3.0568,3.0568,3.0568,3.0568,3.0568,3.0843,3.1467,3.1526,3.1801,3.2483,3.2513,3.2513,3.2513,3.2933,3.3151,3.3151,3.3572,3.3572,3.3151,3.2716,3.2513,3.2513,3.228,3.2179,3.2164,3.1961,3.1859,3.1859,3.1859,3.1598,3.1206,3.1206,3.0945,3.0568,3.0568,3.0568,3.0568,3.0568,3.0568,3.0568,3.0568,3.0568,3.0568,3.0568,3.0568,3.0568,3.0568,3.0568,3.0568,3.0568,3.0568,3.0568,3.0568,3.0568,3.0568,3.0568,3.0408,3.0132,2.9711,2.9276,2.8855,2.8475,2.7879,2.7326,2.6905,2.6951,2.713,2.7479,2.7435,2.7519,2.7767,2.7654,2.7683,2.81,2.7833,2.7834,2.8373,2.824,2.8145,2.8145,2.8334,2.8334,2.8162,2.8334,2.8412,2.8412,2.8412,2.8412,2.839,2.8853,2.9185,2.17,2.4276,2.6942,2.7348,2.7715,2.805,2.8184,2.8927,2.9566,2.9334,2.929,2.929,2.929,2.8913,2.8826,2.9508,2.9784,3.006,3.051,3.0568,3.0655,3.0887,3.0916,3.1003,3.125,3.1264,3.1438,3.1845,3.2092,3.2498,3.3166,3.3195,3.3195,3.3195,3.3587,3.3804,3.3804,3.4211,3.4211,3.3804,3.3383,3.3195,3.318,3.2962,3.2861,3.2846,3.2614,3.2513,3.2513,3.2513,3.2266,3.1845,3.1613,3.1264,3.0887,3.0655,3.0568,3.0568,3.0568,3.0727,3.0872,3.064,3.0727,3.0872,3.064,3.0568,3.0568,3.0568,3.0568,3.0568,3.0568,3.0568,3.0568,3.0568,3.0568,3.0568,3.0568,3.0568,3.0451,3.0045,2.9784,2.9493,2.9087,2.8303,2.7592,2.7186,2.703,2.7026,2.7378,2.7545,2.7745,2.8238,2.8218,2.8275,2.8468,2.8405,2.8517,2.8878,2.8894,2.8975,2.9135,2.9135,2.9135,2.9135,2.9135,2.9135,2.9135,2.9135,2.9135,2.9152,2.9599,2.9798,2.6628,2.6856,2.7195,2.8385,2.8389,2.8225,2.8664,2.9189,2.945,2.8811,2.8623,2.8565,2.8536,2.7607,2.7432,2.9232,2.9102,2.9189,3.0408,3.0611,3.0843,3.1438,3.1555,3.1816,3.2454,3.2542,3.2571,3.2571,3.3122,3.3746,3.4385,3.4414,3.4414,3.4414,3.4414,3.4414,3.4414,3.4414,3.4414,3.4414,3.4414,3.4414,3.4385,3.379,3.3514,3.3485,3.2875,3.2614,3.2614,3.2614,3.26,3.2498,3.1859,3.1598,3.1496,3.0858,3.0626,3.0611,3.0582,3.0959,3.1366,3.08,3.1032,3.1409,3.08,3.064,3.0669,3.0626,3.0626,3.0626,3.0626,3.0597,3.0582,3.0611,3.0626,3.0626,3.0626,3.0626,3.0611,3.0582,3.0089,2.9668,2.9624,2.8623,2.777,2.7781,2.7258,2.6919,2.6951,2.7003,2.7041,2.7181,2.814,2.8606,2.8174,2.915,2.975,2.981,2.9793,3.0027,3.0443,3.0485,3.0526,3.0526,3.0526,3.0526,3.0526,3.0526,3.0526,3.0526,3.0526,3.0526,2.6737,2.7469,2.8222,2.8159,2.8706,2.9218,2.9348,2.9508,2.945,2.8811,2.7926,2.7113,2.662,2.7055,2.765,2.8129,2.9261,3.0205,3.0524,3.0988,3.1337,3.1496,3.1961,3.2324,3.2498,3.2948,3.3224,3.3224,3.3369,3.3746,3.4385,3.4414,3.4414,3.4414,3.4414,3.4414,3.4414,3.4414,3.4414,3.4414,3.4414,3.4414,3.4399,3.424,3.4167,3.4167,3.4008,3.3935,3.3935,3.3935,3.3645,3.3209,3.3035,3.2672,3.2193,3.1526,3.1279,3.1221,3.0742,3.0684,3.0872,3.1177,3.138,3.1482,3.1322,3.1627,3.1917,3.1424,3.1279,3.1279,3.1279,3.093,3.0684,3.1163,3.1279,3.1279,3.1279,3.1279,3.1134,3.0669,3.0437,3.019,2.9711,2.9348,2.8971,2.8507,2.8303,2.7908,2.6963,2.6846,2.6884,2.7055,2.7284,2.776,2.8511,2.8889,2.9273,2.9633,3.007,3.0199,2.9984,3.03,3.0526,3.0526,3.0526,3.0526,3.0526,3.0526,3.0526,3.0526,3.0526,3.0526,2.8137,2.8595,2.8763,2.9078,2.9376,2.9552,2.9276,2.9218,2.8869,2.7665,2.6582,2.5771,2.5444,2.5684,2.6312,2.7494,2.8637,2.9711,3.0829,3.1293,3.1729,3.2309,3.2701,3.305,3.3325,3.3674,3.3993,3.4283,3.4037,3.4037,3.4385,3.4414,3.4414,3.4414,3.4414,3.4414,3.4414,3.4414,3.4414,3.4414,3.4414,3.4414,3.4414,3.4414,3.4414,3.4414,3.4414,3.4414,3.4414,3.4414,3.4196,3.3862,3.3572,3.3253,3.2817,3.1874,3.1526,3.1424,3.08,3.0568,3.0684,3.1308,3.1714,3.1961,3.1961,3.2222,3.244,3.2063,3.1961,3.1961,3.1961,3.17,3.1526,3.1874,3.1961,3.1961,3.1961,3.1961,3.1845,3.1496,3.1192,3.0872,3.0524,3.0219,2.9827,2.9189,2.8855,2.8419,2.7708,2.7374,2.7137,2.6928,2.7408,2.778,2.7944,2.8559,2.909,2.9273,2.9677,2.9941,3.0113,3.0342,3.0526,3.0526,3.0526,3.0526,3.0526,3.0526,3.0526,3.0526,3.0526,3.0526,2.9475,2.9357,2.891,3.0044,2.9915,2.9363,2.8811,2.8477,2.7795,2.6025,2.5011,2.4422,2.4539,2.4125,2.4659,2.7161,2.7697,2.871,3.1177,3.1598,3.2106,3.3325,3.3543,3.3819,3.4356,3.4414,3.4646,3.5198,3.4806,3.4574,3.4661,3.4661,3.4632,3.4545,3.4457,3.4414,3.4414,3.4414,3.4414,3.4414,3.4414,3.4414,3.4414,3.4414,3.4414,3.4414,3.4414,3.4414,3.4414,3.4414,3.4414,3.4356,3.3804,3.3601,3.3441,3.2135,3.1656,3.154,3.0829,3.0568,3.0684,3.1308,3.1975,3.2513,3.2513,3.2643,3.2759,3.2672,3.2643,3.2643,3.2643,3.2585,3.2542,3.2629,3.2643,3.2643,3.2643,3.2571,3.2513,3.2513,3.2048,3.1613,3.154,3.1134,3.0582,2.9856,2.9363,2.9,2.8826,2.8173,2.752,2.6968,2.776,2.7997,2.713,2.8271,2.8982,2.8858,2.912,2.9617,3.0384,3.0485,3.0526,3.0526,3.0526,3.0526,3.0526,3.0526,3.0526,3.0526,3.0526,3.0526,2.7321,2.7783,2.828,2.8895,2.8955,2.8811,2.8582,2.7339,0.0,0.0,2.3856,2.2991,2.3112,2.3875,2.4998,2.6534,2.777,2.9218,3.1235,3.2004,3.2629,3.3383,3.3935,3.4298,3.4399,3.4414,3.4457,3.4559,3.4965,3.543,3.5952,3.5981,3.5735,3.5212,3.469,3.4414,3.4414,3.4414,3.4414,3.4414,3.4414,3.4414,3.4414,3.4414,3.4414,3.4414,3.4414,3.4414,3.4414,3.4414,3.4414,3.4399,3.4283,3.424,3.4095,3.2817,3.2338,3.2179,3.0988,3.0568,3.0684,3.1308,3.1975,3.2513,3.2513,3.3253,3.3978,3.3456,3.3311,3.3311,3.3311,3.2919,3.2643,3.318,3.3311,3.3311,3.3311,3.289,3.2513,3.2513,3.2425,3.2164,3.1613,3.1888,3.1772,3.0582,3.0756,3.064,2.9595,2.8448,2.7639,2.7578,2.7281,2.7203,2.7378,2.8255,2.8732,2.8748,2.9689,3.0156,2.9941,3.0284,3.0526,3.0526,3.0526,3.0526,3.0526,3.0526,3.0526,3.0526,3.0526,3.0526,2.6816,2.7397,2.8137,2.8606,2.8434,2.7857,2.6804,0.0,0.0,0.0,2.2286,2.1742,2.213,2.2675,2.3554,2.4854,2.5965,2.7639,3.0626,3.1308,3.2121,3.3761,3.4225,3.4414,3.4414,3.4719,3.5053,3.5372,3.5996,3.6214,3.5836,3.5807,3.5677,3.5441,3.4748,3.4414,3.4414,3.4414,3.4414,3.4414,3.4414,3.4414,3.4414,3.4414,3.4414,3.4414,3.4414,3.4414,3.4414,3.4414,3.4414,3.4414,3.4414,3.4414,3.4254,3.2991,3.2513,3.2338,3.1032,3.0568,3.0684,3.1308,3.1975,3.2643,3.3296,3.3935,3.4356,3.4051,3.3964,3.3964,3.3964,3.3732,3.3587,3.3891,3.3964,3.3964,3.3964,3.3456,3.3108,3.3441,3.3238,3.2904,3.2585,3.2803,3.2687,3.1729,3.1555,3.1293,3.0684,2.9508,2.8407,2.7741,2.7753,2.7624,2.7181,2.7929,2.8496,2.8685,2.9377,2.9897,3.0156,3.0384,3.0526,3.0526,3.0526,3.0526,3.0526,3.0526,3.0526,3.0526,3.0526,3.0526,2.674,2.7216,2.7835,2.8332,2.7882,2.6828,2.5063,2.3933,0.0,2.1611,2.0841,2.0599,2.1269,2.1383,2.1883,0.0,2.4221,2.6067,3.0031,3.0684,3.1685,3.4124,3.453,3.4559,3.4428,3.5111,3.5662,3.588,3.6635,3.6765,3.6011,3.5851,3.5778,3.5778,3.5024,3.4617,3.4617,3.4486,3.4414,3.4414,3.4414,3.4414,3.4414,3.4414,3.4414,3.4414,3.4414,3.4414,3.4414,3.4414,3.4414,3.4414,3.4414,3.4414,3.4254,3.2991,3.2513,3.2338,3.1032,3.0568,3.0698,3.1482,3.2092,3.273,3.3862,3.4312,3.4414,3.4414,3.4414,3.4414,3.4414,3.4414,3.4414,3.4414,3.4414,3.4414,3.4414,3.4022,3.3819,3.4312,3.4008,3.363,3.3485,3.3587,3.3412,3.2629,3.2179,3.1888,3.1743,3.0742,2.9595,2.8463,2.8429,2.8062,2.7079,2.7619,2.8158,2.8496,2.8966,2.9572,3.0342,3.0443,3.0526,3.0526,3.0526,3.0526,3.0526,3.0526,3.0526,3.0526,3.0526,3.0526,2.6625,2.6722,2.6823,2.7596,2.6881,2.5713,2.4747,0.0,2.1656,2.0798,2.0034,1.9794,2.0627,2.0699,2.1238,2.3198,0.0,2.6015,2.9898,3.1,3.2164,3.4182,3.4922,3.5053,3.4472,3.5503,3.5764,3.4675,3.5706,3.6852,3.7883,3.7418,3.7128,3.7128,3.5923,3.5285,3.5285,3.4704,3.4414,3.4414,3.4414,3.4414,3.4414,3.4414,3.4414,3.4414,3.4414,3.4414,3.4414,3.4414,3.4414,3.4414,3.4414,3.4414,3.4254,3.2991,3.2513,3.2338,3.1032,3.0568,3.0785,3.2019,3.2469,3.2643,3.334,3.3964,3.4414,3.4414,3.4414,3.4414,3.4414,3.4414,3.4414,3.4414,3.4414,3.4414,3.4414,3.437,3.4341,3.4399,3.437,3.4138,3.3558,3.3935,3.3906,3.2701,3.2962,3.3079,3.2498,3.1787,3.1076,3.0379,2.881,2.7748,2.765,2.7705,2.7784,2.7947,2.898,2.9645,2.9853,3.0284,3.0526,3.0526,3.0526,3.0526,3.0526,3.0526,3.0526,3.0526,3.0526,3.0526,2.6977,2.7267,2.7648,2.7588,2.663,2.5452,2.4669,2.2683,2.0969,2.0965,1.9907,1.9272,2.0331,2.0231,2.033,0.0,2.2295,2.4003,2.7631,2.8655,3.0259,3.347,3.4399,3.4994,3.5503,3.6011,3.6272,3.6156,3.6954,3.7665,3.8173,3.7636,3.7302,3.7302,3.6417,3.5923,3.5923,3.5299,3.498,3.498,3.4588,3.4414,3.4414,3.4414,3.4414,3.4414,3.4414,3.4414,3.4414,3.4414,3.4414,3.4414,3.4414,3.4414,3.4254,3.2991,3.2513,3.2338,3.1032,3.0568,3.0785,3.2092,3.2513,3.2701,3.3732,3.4211,3.4414,3.4414,3.4414,3.4414,3.4414,3.4414,3.4414,3.4414,3.4414,3.4414,3.4414,3.4414,3.4414,3.4414,3.4414,3.4327,3.408,3.424,3.424,3.3732,3.3558,3.3369,3.3122,3.2527,3.2019,3.1772,3.0016,2.8724,2.8332,2.836,2.8505,2.8774,2.914,2.9572,3.013,3.0113,3.0199,3.0468,3.0526,3.0526,3.0526,3.0526,3.0526,3.0526,3.0526,3.0758,2.6755,2.7394,2.8079,2.772,2.6549,2.5278,2.4577,2.2543,2.084,2.1006,2.0062,1.9468,2.026,2.0105,2.0075,0.0,2.1492,2.3193,2.6304,2.765,2.9563,3.3014,3.4114,3.4969,3.5938,3.6025,3.6388,3.7244,3.752,3.7723,3.7926,3.7709,3.7578,3.7578,3.6939,3.6606,3.6606,3.5967,3.5546,3.5357,3.4907,3.4588,3.4414,3.4414,3.4414,3.4414,3.4414,3.4414,3.4414,3.4414,3.4414,3.4414,3.4414,3.4414,3.4254,3.2991,3.2513,3.2338,3.1032,3.0568,3.0785,3.2092,3.2513,3.2759,3.4022,3.4414,3.4414,3.4414,3.4414,3.4414,3.4414,3.4414,3.4414,3.4414,3.4414,3.4414,3.4414,3.4414,3.4414,3.4414,3.4414,3.4414,3.4414,3.4414,3.4414,3.4414,3.4037,3.3746,3.3746,3.3195,3.2803,3.2803,3.1409,3.0147,2.9377,2.9055,2.8936,2.9053,2.9199,2.9418,2.9722,2.9881,3.0113,3.03,3.0426,3.0626,3.0858,3.1056,3.1056,3.0815,3.152,3.21,2.5637,2.6757,2.7745,2.7864,2.6508,2.4963,2.4397,2.283,2.1264,2.057,2.0386,2.0415,2.0486,2.0472,2.067,2.1292,2.2562,2.4305,2.6732,2.8824,3.0859,3.2961,3.4301,3.5218,3.5372,3.5441,3.5909,3.7201,3.6693,3.662,3.7288,3.7883,3.8188,3.8188,3.7607,3.7302,3.7302,3.6635,3.5981,3.5427,3.5427,3.5024,3.4414,3.4414,3.4414,3.4414,3.4414,3.4414,3.4414,3.4414,3.4414,3.4414,3.4414,3.4414,3.4254,3.2991,3.2513,3.2338,3.1032,3.0568,3.0785,3.2092,3.2513,3.2759,3.4022,3.4414,3.4414,3.4414,3.4414,3.4414,3.4414,3.4414,3.4414,3.4414,3.4414,3.4414,3.4414,3.4414,3.4414,3.4414,3.4414,3.4414,3.4414,3.4414,3.4414,3.4414,3.4399,3.4399,3.4399,3.3848,3.3456,3.3456,3.2875,3.2024,3.0849,2.9607,2.8693,2.8237,2.9204,2.9275,2.814,2.9645,3.03,2.981,3.0241,3.0874,3.1576,3.2315,3.2299,3.1626,3.3839,3.4849,2.4204,2.5198,2.6217,2.532,2.4534,2.3914,2.3745,2.2495,2.1431,2.1566,2.0962,2.0512,2.095,2.1064,2.1358,2.24,0.0,0.0,2.6914,2.8526,3.0276,3.2457,3.4636,3.5766,3.5401,3.5749,3.5996,3.5981,3.6606,3.7085,3.7302,3.7883,3.8202,3.8202,3.8014,3.7926,3.7926,3.7302,3.6664,3.6011,3.6011,3.5677,3.5082,3.5503,3.5473,3.5067,3.5067,3.482,3.4414,3.4414,3.4414,3.4414,3.4414,3.4153,3.3674,3.2832,3.2222,3.1714,3.0872,3.0858,3.1366,3.2237,3.2817,3.3325,3.4167,3.4414,3.4414,3.4414,3.4414,3.4414,3.4414,3.4414,3.4414,3.4414,3.4414,3.4414,3.4414,3.4414,3.4414,3.4414,3.4414,3.4414,3.4414,3.4414,3.4414,3.4414,3.4414,3.4414,3.4414,3.424,3.4124,3.4124,3.3543,3.2832,3.2038,3.2105,3.1855,3.1143,3.1285,3.1339,3.1128,3.0987,3.1189,3.1764,3.2392,3.2878,3.311,3.3342,3.3061,3.2381,3.3574,3.4137,0.0,2.4149,2.507,2.4343,2.3553,2.3014,2.3105,2.1998,2.1147,2.1889,2.1451,2.1111,2.1721,2.1865,2.2161,2.2977,2.3681,2.4855,2.6942,2.8771,3.0742,3.3191,3.4957,3.5793,3.547,3.572,3.5778,3.547,3.6112,3.6678,3.6925,3.752,3.797,3.8188,3.8202,3.8202,3.8202,3.7839,3.7317,3.6693,3.6693,3.6344,3.572,3.588,3.5735,3.5427,3.5111,3.4777,0.0,3.4414,3.4414,3.4414,3.4414,3.4167,3.3717,3.2846,3.2251,3.1772,3.0887,3.0988,3.1627,3.2295,3.3108,3.3891,3.4298,3.4414,3.4414,3.4414,3.4414,3.4414,3.4414,3.4414,3.4414,3.4414,3.4414,3.4414,3.4414,3.4414,3.4414,3.4414,3.4414,3.4414,3.4414,3.4414,3.4414,3.4414,3.4414,3.4414,3.4414,3.4414,3.4414,3.4414,3.4051,3.3659,3.3267,3.3259,3.3127,3.268,3.2741,3.2732,3.2449,3.2498,3.266,3.2899,3.3769,3.4336,3.4618,3.4336,3.427,3.4336,3.3955,3.4087,0.0,2.332,2.4071,2.4284,2.3223,2.2209,2.2443,2.1436,0.0,2.1499,2.1729,2.196,2.2534,2.2754,2.2968,2.3265,2.3914,2.5076,2.7072,2.9624,3.2211,3.4812,3.5301,3.5354,3.5369,3.5369,3.5369,3.5369,3.5343,3.5619,3.6214,3.6925,3.7564,3.813,3.8188,3.8202,3.8202,3.8202,3.7897,3.7302,3.7346,3.7027,3.6359,3.5764,3.5572,3.5473,3.4777,3.4486,3.4472,3.4428,3.4414,3.4414,3.4414,3.4385,3.4196,3.2962,3.2483,3.2266,3.1018,3.1018,3.1714,3.2425,3.3456,3.4414,3.4414,3.4414,3.4414,3.4414,3.4414,3.4414,3.4414,3.4414,3.4414,3.4414,3.4414,3.4414,3.4414,3.4414,3.4414,3.4414,3.4414,3.4414,3.4414,3.4414,3.4414,3.4414,3.4414,3.4414,3.4414,3.4414,3.4414,3.4414,3.4414,3.4414,3.4414,3.3506,3.2998,3.3133,3.3645,3.3575,3.2592,3.4097,3.4464,3.3498,3.4562,3.5462,3.6158,3.5413,3.5727,3.6986,3.4849,3.4601,2.0597,0.0,2.1485,2.0813,2.0703,2.0705,0.0,2.0633,2.0726,0.0,0.0,2.162,2.2197,2.2356,2.2989,2.4948,2.5753,2.7129,2.9812,3.2556,3.4592,3.525,3.5338,3.5193,3.47,3.4646,3.4646,3.4646,3.5082,3.543,3.5575,3.6678,3.7375,3.752,3.797,3.8202,3.8202,3.8202,3.7897,3.7317,3.7781,3.7665,3.707,3.6925,3.6852,3.678,3.5648,3.514,3.5111,3.4617,3.4414,3.4414,3.4414,3.4124,3.3587,3.2803,3.2193,3.1642,3.0843,3.1322,3.2469,3.3601,3.4167,3.4414,3.4414,3.4414,3.4414,3.4414,3.4414,3.4414,3.4414,3.4414,3.4414,3.4414,3.4414,3.4414,3.4414,3.4414,3.4414,3.4414,3.4414,3.4414,3.4414,3.4414,3.4414,3.4414,3.4414,3.4414,3.4414,3.4414,3.4414,3.4414,3.4414,3.4414,3.4414,3.4741,3.4763,3.441,3.4667,3.5007,3.5208,3.523,3.5513,3.6186,3.6982,3.7516,3.7698,3.6953,3.6473,3.6241,3.5148,3.4816,1.9925,2.043,2.0692,2.0376,2.0393,2.048,2.0356,0.0,0.0,0.0,0.0,0.0,2.2117,2.2629,2.3626,2.5517,2.6505,2.8168,3.1515,3.394,3.5493,3.5664,3.5514,3.5285,3.4905,3.4601,3.4414,3.4414,3.4733,3.5053,3.5343,3.6315,3.6983,3.7302,3.7897,3.8202,3.8202,3.8202,3.8043,3.7723,3.8043,3.8028,3.7694,3.7114,3.6852,3.678,3.5488,3.4922,3.4893,3.4559,3.4414,3.4414,3.4414,3.4196,3.379,3.2861,3.228,3.1845,3.0901,3.1424,3.273,3.4008,3.4414,3.4414,3.4414,3.4414,3.4414,3.4414,3.4414,3.4414,3.4414,3.4414,3.4414,3.4414,3.4414,3.4414,3.4414,3.4414,3.4414,3.4414,3.4414,3.4414,3.4414,3.4414,3.4414,3.4414,3.4414,3.4414,3.4414,3.4414,3.4414,3.4414,3.4414,3.4414,3.4414,3.4773,3.5056,3.5193,3.5288,3.5721,3.6533,3.6573,3.7051,3.8096,3.8493,3.8377,3.7698,3.7301,3.6555,3.5479,3.5081,3.4899,1.9995,2.0546,2.1075,2.109,2.0981,2.0857,2.082,0.0,0.0,0.0,0.0,0.0,0.0,2.339,0.0,2.5901,2.7229,2.9303,3.2939,3.4759,3.5856,3.6276,3.5882,3.5514,3.54,3.4787,3.4414,3.4414,3.4414,3.4646,3.5183,3.5822,3.6475,3.7128,3.7738,3.8115,3.8202,3.8202,3.8202,3.8202,3.8202,3.8202,3.8159,3.6881,3.6417,3.6519,3.5053,3.453,3.469,3.4486,3.4414,3.4414,3.4414,3.4414,3.4254,3.2991,3.2513,3.2367,3.125,3.1656,3.2861,3.4037,3.4414,3.4414,3.4414,3.4414,3.4414,3.4414,3.4414,3.4414,3.4414,3.4414,3.4414,3.4414,3.4414,3.4414,3.4414,3.4414,3.4414,3.4414,3.4414,3.4414,3.4414,3.4414,3.4414,3.4414,3.4414,3.4414,3.4414,3.4414,3.4414,3.4414,3.4414,3.4414,3.4414,3.4414,3.4721,3.5385,3.5449,3.5946,3.7055,3.7764,3.8479,3.9218,3.9156,3.851,3.7217,3.7052,3.629,3.5065,3.4949,3.4899,2.0839,2.1682,2.1951,2.0406,2.0645,2.1146,0.0,0.0,0.0,0.0,0.0,0.0,0.0,2.4294,2.5334,2.7386,2.9813,3.2448,3.5216,3.6452,3.7045,3.7188,3.6646,3.6009,3.5464,3.4787,3.4414,3.4414,3.4414,3.4457,3.4559,3.5169,3.5793,3.6446,3.7099,3.768,3.8202,3.8202,3.8202,3.8202,3.8202,3.8202,3.8159,3.6881,3.6896,3.7781,3.543,3.5024,3.5923,3.4849,3.4414,3.4414,3.4414,3.4414,3.4254,3.2991,3.2513,3.2483,3.2295,3.2701,3.3441,3.4182,3.4414,3.4414,3.4414,3.4414,3.4414,3.4414,3.4414,3.4414,3.4414,3.4414,3.4414,3.4414,3.4414,3.4414,3.4414,3.4414,3.4414,3.4414,3.4414,3.4414,3.4414,3.4414,3.4414,3.4414,3.4414,3.4414,3.4414,3.4414,3.4414,3.4414,3.4414,3.4414,3.4414,3.4414,3.4467,3.4601,3.4735,3.5544,3.7055,3.7764,3.8423,3.9023,3.8623,3.8209,3.7873,3.6737,3.6059,3.5827,3.5197,3.4899,2.0569,2.1172,2.1473,2.0931,2.1761,2.2649,0.0,0.0,0.0,0.0,0.0,0.0,0.0,0.0,2.8056,3.0567,3.2931,3.4747,3.5462,3.6938,3.7721,3.7294,3.6753,3.6259,3.5946,3.5037,3.4534,3.4905,3.4587,3.4534,3.4905,3.52,3.5503,3.5778,3.6431,3.6896,3.7172,3.7172,3.736,3.7723,3.7723,3.7535,3.7157,3.6577,3.6446,3.6606,3.543,3.5067,3.5241,3.4661,3.4414,3.4414,3.4414,3.4196,3.379,3.2861,3.228,3.2077,3.2788,3.3224,3.3572,3.4196,3.4414,3.4414,3.4414,3.4414,3.4414,3.4414,3.4414,3.4414,3.4414,3.4414,3.4414,3.4414,3.4414,3.4414,3.4414,3.4414,3.4414,3.4414,3.4414,3.4414,3.4414,3.4414,3.4414,3.4414,3.4414,3.4414,3.4414,3.4414,3.4414,3.4414,3.4414,3.4414,3.4414,3.4414,3.4414,3.4414,3.4905,3.5706,3.6919,3.7573,3.8116,3.848,3.8167,3.7607,3.6799,3.6174,3.5745,3.5396,3.5048,3.4899,2.0419,2.0763,2.1124,2.1688,0.0,2.35,2.4061,0.0,0.0,0.0,0.0,0.0,0.0,2.7977,3.0722,3.3023,3.4691,3.5603,3.5382,3.6732,3.7648,3.7413,3.6951,3.6569,3.6446,3.5335,3.4839,3.5335,3.4787,3.4721,3.5335,3.5257,3.5212,3.5427,3.5977,3.6297,3.6301,3.6443,3.6691,3.707,3.707,3.6809,3.6301,3.6156,3.5894,3.5561,3.527,3.4951,3.4617,3.4472,3.4414,3.4399,3.424,3.3804,3.318,3.2701,3.228,3.2121,3.3122,3.3558,3.3775,3.4254,3.4414,3.4414,3.4414,3.4414,3.4414,3.4414,3.4414,3.4414,3.4414,3.4414,3.4414,3.4414,3.4414,3.4414,3.4414,3.4414,3.4414,3.4414,3.4414,3.4414,3.4414,3.4283,3.4196,3.4196,3.4196,3.4196,3.4196,3.4312,3.4414,3.4414,3.4414,3.4414,3.4414,3.4414,3.4481,3.4587,3.494,3.5589,3.6706,3.6947,3.7335,3.788,3.7535,3.6828,3.5695,3.558,3.53,3.4851,3.4899,3.4899,2.1039,2.1383,2.1677,2.2347,0.0,0.0,2.5282,2.5143,0.0,0.0,0.0,0.0,0.0,3.0494,3.2259,3.3162,3.3486,3.4224,3.5964,3.5894,3.6262,3.8117,3.7727,3.7087,3.6446,3.577,3.5335,3.54,3.4787,3.4721,3.5335,3.4831,3.4762,3.5412,3.6073,3.6384,3.6301,3.6891,3.6921,3.6373,3.6373,3.6359,3.6286,3.5706,3.5735,3.617,3.4994,3.4791,3.5241,3.4661,3.4414,3.4356,3.3761,3.3151,3.2585,3.2527,3.2861,3.334,3.3507,3.3862,3.4356,3.4399,3.4414,3.4414,3.4414,3.4414,3.4414,3.4414,3.4414,3.4414,3.4414,3.4414,3.4414,3.4414,3.4414,3.4414,3.4414,3.4414,3.4414,3.4414,3.4414,3.4414,3.4414,3.3935,3.3529,3.3529,3.3529,3.3529,3.3529,3.4051,3.4414,3.4414,3.4414,3.4414,3.4414,3.4414,3.4654,3.527,3.428,3.4515,3.6523,3.5568,3.5807,3.7476,3.6481,3.5743,3.5442,3.5005,3.4757,3.4691,3.4851,3.4899,2.0667,2.1383,2.2117,2.2833,0.0,0.0,0.0,0.0,0.0,2.9467,3.0354,0.0,0.0,3.2297,3.2973,3.4879,3.5172,3.5308,3.5688,3.6222,3.6694,3.7109,3.6939,3.6707,3.6446,3.54,3.4971,3.54,3.4787,3.4721,3.5335,3.4787,3.453,3.4762,3.5407,3.5776,3.5762,3.6015,3.6015,3.5762,3.5726,3.5517,3.514,3.5285,3.5285,3.5125,3.5038,3.4907,3.4762,3.4501,3.4414,3.4356,3.3717,3.3079,3.2571,3.2962,3.3267,3.3514,3.392,3.4211,3.4414,3.4414,3.4414,3.4414,3.4414,3.4414,3.4414,3.4414,3.4414,3.4414,3.4414,3.4414,3.4414,3.4414,3.4414,3.4414,3.4414,3.4414,3.4414,3.4414,3.4414,3.4283,3.3891,3.363,3.334,3.2933,3.2875,3.3021,3.3427,3.3674,3.3978,3.437,3.4414,3.4414,3.4414,3.4414,3.4478,3.4688,3.4243,3.4753,3.644,3.5618,3.5443,3.6189,3.5703,3.5214,3.4707,3.4529,3.4546,3.4691,3.4739,3.4804,2.0416,2.1163,2.2009,0.0,0.0,0.0,0.0,0.0,0.0,3.1003,3.174,3.2385,3.3609,3.304,3.3105,3.5316,3.5486,3.545,3.5656,3.611,3.6501,3.6685,3.6729,3.6631,3.6446,3.5578,3.5154,3.54,3.4787,3.4721,3.5335,3.4787,3.4414,3.4414,3.5023,3.54,3.54,3.54,3.5529,3.5706,3.5481,3.5025,3.4428,3.4864,3.4957,3.475,3.519,3.5251,3.5023,3.5023,3.4904,3.4667,3.3774,3.3314,3.3152,3.3427,3.3601,3.3819,3.4269,3.4414,3.4414,3.4414,3.4414,3.4414,3.4414,3.4414,3.4414,3.4414,3.4414,3.4414,3.4414,3.4414,3.4414,3.4414,3.4414,3.4414,3.4414,3.4414,3.4414,3.4414,3.4254,3.4051,3.3804,3.3267,3.2774,3.2556,3.2338,3.244,3.3093,3.334,3.3703,3.4356,3.4601,3.4654,3.4414,3.4397,3.4454,3.4615,3.4256,3.4515,3.5807,3.5126,3.4813,3.5065,3.4943,3.4688,3.425,3.43,3.4399,3.4546,3.4594,3.4707,2.0572,2.0794,2.1225,0.0,0.0,0.0,0.0,0.0,0.0,3.2514,3.253,3.2241,3.3049,3.2661,3.2661,3.4067,3.3817,3.41,3.5991,3.521,3.5143,3.7168,3.7401,3.7147,3.6446,3.6384,3.6134,3.5464,3.4787,3.4721,3.5335,3.4787,3.4414,3.4414,3.5023,3.54,3.54,3.54,3.577,3.6384,3.5706,3.5088,3.4414,3.4414,3.4787,3.54,3.54,3.577,3.6384,3.6384,3.5984,3.5246,3.3939,3.3829,3.4319,3.3768,3.3877,3.4414,3.4414,3.4414,3.4414,3.4414,3.4414,3.4414,3.4414,3.4414,3.4414,3.4414,3.4414,3.4414,3.4414,3.4414,3.4414,3.4414,3.4414,3.4414,3.4414,3.4414,3.4399,3.4414,3.3891,3.3659,3.4283,3.2803,3.1743,3.2396,3.1946,3.1758,3.244,3.3079,3.3717,3.4341,3.5023,3.5139,3.4452,3.4386,3.4665,3.5277,3.4017,3.366,3.4368,3.3779,3.3689,3.4273,3.4288,3.425,3.4101,3.425,3.43,3.43,3.4448,3.4546,2.0878,2.1724,0.0,0.0,0.0,0.0,0.0,0.0,0.0,0.0,3.3283,3.293,3.3171,3.2739,3.2749,3.4092,3.3738,3.3653,3.4762,3.4549,3.4769,3.5853,3.6009,3.6104,3.64,3.5946,3.54,3.4721,3.4534,3.4481,3.4654,3.4534,3.4414,3.4414,3.5023,3.5642,3.6072,3.6072,3.6446,3.7103,3.6446,3.577,3.5154,3.5578,3.5642,3.54,3.5882,3.6197,3.6384,3.6384,3.5984,3.5399,3.5493,3.5061,3.4427,3.4743,3.4677,3.4414,3.4414,3.4414,3.4414,3.4414,3.4414,3.4414,3.4414,3.4414,3.4414,3.4414,3.4414,3.4414,3.4414,3.4414,3.4414,3.4414,3.4414,3.4414,3.4414,3.4066,3.3877,3.4327,3.3543,3.2861,3.305,3.2208,3.1438,3.1192,3.1366,3.1917,3.305,3.4162,3.4587,3.3842,3.4327,3.4439,3.3754,3.3719,3.3925,3.4513,3.4147,3.4242,3.4915,3.4262,3.3979,3.4153,3.4147,3.4151,3.4101,3.4151,3.4201,3.43,3.4349,3.4448,2.1359,0.0,0.0,2.4968,2.6037,2.7219,2.9194,0.0,0.0,0.0,3.3607,3.3105,3.2902,3.2369,3.24,3.3732,3.3349,3.3294,3.4502,3.4227,3.425,3.5252,3.5381,3.5537,3.5938,3.5856,3.54,3.4481,3.4414,3.4414,3.4414,3.4414,3.4414,3.4414,3.4787,3.5335,3.6009,3.6009,3.6461,3.7417,3.6966,3.6585,3.6212,3.6322,3.6322,3.6212,3.689,3.7191,3.7175,3.6908,3.6704,3.6593,3.6406,3.6074,3.5569,3.5428,3.5335,3.5154,3.4905,3.4787,3.4787,3.4787,3.4601,3.4414,3.4414,3.4414,3.4414,3.4414,3.4414,3.4414,3.4414,3.4414,3.4414,3.4414,3.4414,3.4414,3.4414,3.4109,3.3964,3.4341,3.3383,3.26,3.2846,3.1917,3.1105,3.0974,3.1496,3.2208,3.2991,3.4174,3.4619,3.3631,3.4062,3.4151,3.3469,3.3427,3.3625,3.4195,3.395,3.4075,3.4748,3.4327,3.3984,3.3764,3.3984,3.4101,3.4101,3.4101,3.4151,3.4201,3.4201,3.43,2.1989,0.0,0.0,2.5988,2.6847,0.0,3.0283,3.1445,3.2303,3.3712,3.3518,3.2978,3.2493,3.182,3.1805,3.3131,3.2782,3.3036,3.4841,3.4001,3.3676,3.4958,3.5183,3.523,3.5232,3.5861,3.5758,3.4467,3.4414,3.4414,3.4414,3.4414,3.4414,3.4414,3.4414,3.4721,3.54,3.54,3.6024,3.7282,3.7358,3.7417,3.7417,3.6829,3.689,3.7535,3.8148,3.8391,3.8359,3.7695,3.7809,3.827,3.6979,3.6875,3.7222,3.6024,3.5961,3.6322,3.5706,3.5514,3.5514,3.5514,3.5023,3.4467,3.4467,3.4481,3.4414,3.4414,3.4414,3.4414,3.4414,3.4414,3.4414,3.4414,3.4414,3.4414,3.4414,3.437,3.4341,3.4399,3.334,3.2629,3.3267,3.1816,3.0814,3.1496,3.2179,3.26,3.26,3.3627,3.4129,3.3362,3.3908,3.4056,3.3381,3.334,3.3557,3.4123,3.3615,3.3527,3.4101,3.4101,3.3815,3.3303,3.388,3.4165,3.4101,3.4165,3.4165,3.4101,3.4101,3.4151,0.0,2.2815,0.0,0.0,2.7948,2.9486,3.0668,3.0995,3.1575,3.3,3.3194,3.2978,3.2493,3.2275,3.2275,3.2552,3.249,3.2695,3.3556,3.3061,3.29,3.3733,3.382,3.4023,3.4512,3.5187,3.5195,3.4438,3.4414,3.4414,3.4414,3.4414,3.4414,3.4414,3.4414,3.4721,3.54,3.54,3.5834,3.6631,3.7163,3.7417,3.7417,3.7786,3.8017,3.8205,3.8335,3.8391,3.8391,3.823,3.8262,3.8391,3.8101,3.77,3.7358,3.7103,3.6707,3.6384,3.6259,3.6197,3.6197,3.6197,3.5706,3.5219,3.5219,3.4854,3.4414,3.4414,3.4414,3.4414,3.4414,3.4414,3.4414,3.4414,3.4414,3.4414,3.4414,3.4022,3.3819,3.4312,3.2962,3.1946,3.2614,3.1526,3.0974,3.2121,3.2861,3.3267,3.3267,3.4322,3.4302,3.2159,3.2915,3.331,3.2691,3.2634,3.3037,3.4057,3.3963,3.3984,3.4101,3.4101,3.4034,3.3933,3.46,3.4667,3.4101,3.4667,3.4651,3.4101,3.4101,3.4101,0.0,0.0,0.0,2.6555,0.0,2.9999,3.0328,3.0425,3.0733,3.1834,3.2112,3.2151,3.1928,3.1671,3.1708,3.2281,3.2176,3.2256,3.3077,3.2461,3.2242,3.2859,3.3224,3.3398,3.3441,3.4288,3.4652,3.4039,3.3964,3.4095,3.4385,3.4414,3.4414,3.4414,3.4414,3.4601,3.4905,3.5219,3.5578,3.5946,3.6585,3.7087,3.7417,3.8091,3.8391,3.8391,3.8391,3.8391,3.8391,3.8391,3.8391,3.8391,3.8391,3.8221,3.7844,3.7535,3.7401,3.7326,3.7011,3.6906,3.6906,3.6906,3.6212,3.54,3.54,3.4905,3.4414,3.4414,3.4414,3.4414,3.4414,3.4414,3.4414,3.4414,3.4414,3.4414,3.4414,3.4153,3.4008,3.4356,3.3354,3.2469,3.2513,3.1685,3.125,3.1932,3.26,3.3021,3.3021,3.3787,3.371,3.2121,3.2518,3.2863,3.2765,3.2547,3.2873,3.405,3.4101,3.4101,3.4101,3.4101,3.4101,3.4101,3.4473,3.4473,3.4101,3.4489,3.4473,3.4101,3.4101,3.4101,0.0,0.0,0.0,2.7057,2.8692,0.0,2.9886,2.9918,3.0036,3.0619,3.0957,3.1142,3.1111,3.0791,3.084,3.2035,3.1697,3.1728,3.2917,3.2185,3.1709,3.2176,3.2803,3.3001,3.2437,3.3482,3.397,3.3383,3.3398,3.3703,3.4225,3.4356,3.4414,3.4414,3.4414,3.4414,3.4414,3.4971,3.5219,3.5219,3.5897,3.6646,3.7417,3.796,3.8278,3.8391,3.8391,3.8391,3.8391,3.8391,3.8391,3.8391,3.8391,3.8391,3.8335,3.7786,3.7902,3.8335,3.7786,3.7594,3.7594,3.7594,3.6723,3.5706,3.5578,3.5088,3.4534,3.4414,3.4414,3.4414,3.4414,3.4414,3.4414,3.4414,3.4414,3.4414,3.4414,3.4414,3.4414,3.4414,3.3819,3.3202,3.2727,3.2111,3.1685,3.1685,3.2251,3.26,3.2382,3.2901,3.302,3.2302,3.2327,3.2641,3.3145,3.2695,3.2873,3.405,3.4101,3.4101,3.4101,3.4101,3.4101,3.4101,3.423,3.423,3.4101,3.423,3.4214,3.4101,3.4101,3.4101,0.0,0.0,2.5713,0.0,2.832,2.9097,0.0,0.0,2.9935,3.0032,3.0526,3.0831,3.049,3.0339,3.0569,3.142,3.104,3.1071,3.2345,3.1936,3.1537,3.1595,3.2181,3.2527,3.2407,3.3041,3.3199,3.2649,3.3151,3.3514,3.3601,3.4124,3.4414,3.4414,3.4414,3.4414,3.4414,3.4467,3.4534,3.4534,3.5204,3.6212,3.7417,3.7476,3.7844,3.8391,3.8391,3.8391,3.8391,3.8391,3.8391,3.8391,3.8391,3.8391,3.8391,3.8278,3.8335,3.8408,3.8278,3.8278,3.8278,3.8278,3.7786,3.7027,3.6446,3.5834,3.5154,3.4534,3.4414,3.4414,3.4414,3.4414,3.4414,3.4414,3.4414,3.4414,3.4414,3.4414,3.4414,3.4414,3.3456,3.2791,3.3285,3.279,3.2382,3.2382,3.2933,3.2933,3.1801,3.2601,3.2837,3.1732,3.2109,3.2641,3.3145,3.2695,3.2873,3.405,3.4101,3.4101,3.4101,3.4101,3.4101,3.4101,3.4716,3.4732,3.4101,3.4732,3.4716,3.4101,3.4101,3.4101,2.2102,2.3657,2.5227,0.0,2.7672,2.8871,2.9194,2.961,2.9918,2.9918,3.0117,3.0296,3.0174,2.9917,3.0222,3.1602,3.1336,3.1271,3.2235,3.1879,3.148,3.148,3.2048,3.2283,3.1942,3.2418,3.2576,3.1965,3.2208,3.2542,3.2919,3.3195,3.3354,3.3354,3.3354,3.3354,3.3354,3.3703,3.4066,3.4414,3.5088,3.5706,3.6275,3.6646,3.7401,3.8391,3.8391,3.8391,3.8391,3.8391,3.8391,3.8391,3.8391,3.8391,3.8391,3.8391,3.8391,3.8391,3.8391,3.8391,3.8391,3.8391,3.7976,3.7342,3.7027,3.6212,3.5335,3.5023,3.4721,3.4414,3.4414,3.4414,3.4414,3.4414,3.4414,3.4414,3.4414,3.4414,3.4414,3.4414,3.3383,3.2576,3.2864,3.2382,3.1961,3.1961,3.2193,3.2179,3.1598,3.224,3.2466,3.1567,3.2048,3.2641,3.3145,3.2695,3.2873,3.405,3.4101,3.4101,3.4101,3.4101,3.4101,3.4101,3.4408,3.4424,3.4101,3.4424,3.4408,3.4101,3.4101,3.4101,0.0,0.0,2.4175,2.5098,2.6668,2.8126,0.0,2.9211,2.9691,2.987,2.9918,2.9932,2.9957,2.9577,2.9772,3.141,3.1296,3.1298,3.2044,3.1886,3.1709,3.1709,3.2256,3.2367,3.1766,3.216,3.2091,3.1297,3.1424,3.1743,3.2237,3.2425,3.2513,3.2513,3.2513,3.2513,3.2513,3.3151,3.379,3.4414,3.4905,3.5219,3.54,3.5897,3.689,3.8148,3.8148,3.8148,3.8148,3.8335,3.8391,3.8391,3.8391,3.8391,3.8391,3.8391,3.8391,3.8391,3.8391,3.8391,3.8391,3.8391,3.8091,3.7594,3.7476,3.6723,3.5834,3.5529,3.5154,3.481,3.4278,3.4418,3.4558,3.4278,3.4298,3.4414,3.4414,3.4283,3.4234,3.4604,3.3317,3.2373,3.2897,3.2134,3.1526,3.1526,3.1526,3.1515,3.1477,3.201,3.2231,3.1766,3.2104,3.2641,3.3145,3.2695,3.2873,3.405,3.4101,3.4101,3.4101,3.4101,3.4101,3.4101,3.4101,3.4101,3.4101,3.4279,3.4279,3.4101,3.4101,3.4101,0.0,2.1924,0.0,2.4207,2.5179,2.6312,2.8336,2.8822,2.9049,2.9772,2.9918,2.9918,2.9907,2.9473,2.9358,3.0117,3.0289,3.056,3.1267,3.1927,3.2342,3.2342,3.2841,3.2949,3.2382,3.2398,3.1894,3.0731,3.1177,3.154,3.1569,3.2164,3.2513,3.2513,3.2513,3.2513,3.2513,3.3151,3.379,3.4414,3.4414,3.4773,3.54,3.5464,3.615,3.7476,3.7476,3.7476,3.7476,3.8148,3.8391,3.8391,3.8391,3.8391,3.8391,3.8391,3.8391,3.8391,3.8391,3.8391,3.8391,3.8391,3.8391,3.8221,3.7594,3.7342,3.7027,3.577,3.5834,3.5872,3.4038,3.4448,3.5056,3.3842,3.3978,3.4414,3.4414,3.3935,3.3877,3.5064,3.3272,3.2115,3.3996,3.272,3.1526,3.1526,3.1526,3.1477,3.1498,3.2023,3.2398,3.2342,3.2398,3.2641,3.3145,3.2695,3.2873,3.405,3.4101,3.4101,3.4101,3.4101,3.4101,3.4101,3.4101,3.4101,3.4101,3.4797,3.4764,3.4101,3.4101,3.4101,0.0,0.0,0.0,2.3025,2.4401,2.581,2.6571,2.7446,2.8304,2.9016,2.9178,2.9367,2.9821,2.9726,2.9846,3.0491,3.0671,3.094,3.1789,3.2113,3.241,3.2833,3.2788,3.2586,3.2453,3.2048,3.148,3.0687,3.0785,3.0916,3.0916,3.1148,3.1264,3.1264,3.1264,3.1467,3.1874,3.2106,3.2542,3.3209,3.3616,3.3922,3.4185,3.4596,3.4996,3.5431,3.5859,3.6531,3.7343,3.7584,3.7452,3.7096,3.7533,3.7695,3.7695,3.7695,3.8003,3.8327,3.7873,3.8003,3.8391,3.8391,3.8391,3.8351,3.8091,3.7727,3.7298,3.6845,3.6214,3.5416,3.433,3.4386,3.456,3.4155,3.424,3.4298,3.3891,3.3949,3.4186,3.4598,3.3273,3.2328,3.3021,3.1915,3.0916,3.0916,3.0916,3.095,3.094,3.1766,3.2104,3.1321,3.1936,3.2492,3.2695,3.2492,3.2695,3.3475,3.3527,3.3527,3.3527,3.3527,3.3697,3.4101,3.4554,3.4554,3.4101,3.436,3.436,3.4101,3.4101,3.4101,2.0094,0.0,0.0,0.0,2.3479,2.4661,2.513,2.615,2.7203,2.7931,2.8271,2.8644,2.9372,2.9545,2.9745,3.0457,3.0765,3.1003,3.1415,3.1863,3.231,3.2839,3.2741,3.2585,3.2422,3.2048,3.148,3.0628,3.0568,3.0568,3.0568,3.0568,3.0568,3.0568,3.0568,3.0872,3.1511,3.1526,3.1859,3.2527,3.2948,3.3151,3.3166,3.3755,3.4135,3.4393,3.5045,3.5823,3.6676,3.6857,3.6707,3.6351,3.6805,3.6983,3.6983,3.6983,3.7274,3.763,3.7145,3.729,3.7695,3.7695,3.7695,3.7695,3.7695,3.7383,3.6969,3.678,3.6185,3.5338,3.4091,3.3568,3.3431,3.3682,3.3775,3.3659,3.3238,3.3485,3.382,3.3935,3.2815,3.1962,3.233,3.1427,3.0568,3.0568,3.0568,3.0747,3.1146,3.1879,3.2104,3.1321,3.1936,3.2398,3.2398,3.2398,3.2641,3.3198,3.3182,3.3182,3.3182,3.3182,3.3475,3.4101,3.457,3.4586,3.4101,3.4343,3.4327,3.4101,3.4101,3.4151,0.0,0.0,0.0,0.0,2.2377,2.275,2.411,2.5017,2.5762,2.6506,2.7187,2.7883,2.8628,2.8757,2.9,2.9756,3.0425,3.0649,3.0101,3.1166,3.2031,3.2225,3.2753,3.2876,3.2485,3.2398,3.1879,3.0687,3.0628,3.0568,3.0568,3.0568,3.0568,3.0568,3.0568,3.0872,3.1482,3.1482,3.1816,3.2454,3.2483,3.2483,3.2483,3.3146,3.3729,3.4383,3.5018,3.5284,3.5324,3.6023,3.6254,3.6254,3.627,3.627,3.627,3.627,3.6287,3.6303,3.6287,3.6287,3.6303,3.6303,3.6303,3.6303,3.6303,3.6303,3.6179,3.5514,3.5751,3.5646,3.3089,3.1926,3.1685,3.2367,3.2513,3.2513,3.2498,3.2483,3.2643,3.3188,3.187,3.0999,3.216,3.1379,3.0568,3.0568,3.0568,3.1029,3.2216,3.2382,3.2382,3.2382,3.2382,3.2382,3.2382,3.2382,3.2586,3.3145,3.3145,3.3145,3.3198,3.3198,3.3475,3.4101,3.4101,3.4101,3.4101,3.4813,3.4797,3.4101,3.4101,3.43,1.9459,0.0,0.0,0.0,0.0,0.0,2.2879,2.3543,2.4418,2.5664,2.6069,2.6555,2.7786,2.7996,2.8255,2.8968,2.9696,3.0299,3.0601,3.0951,3.1625,3.2724,3.2588,3.259,3.2924,3.2241,3.1595,3.1263,3.0866,3.0568,3.0568,3.0568,3.0568,3.0568,3.0568,3.0655,3.0843,3.0843,3.093,3.1119,3.1584,3.1801,3.1816,3.2924,3.3457,3.3644,3.421,3.4504,3.4458,3.5214,3.5185,3.4764,3.5283,3.5493,3.5493,3.5493,3.5833,3.6222,3.5687,3.5849,3.6303,3.6303,3.6303,3.6303,3.6303,3.6303,3.6249,3.6072,3.5454,3.4486,3.2851,3.1926,3.1685,3.2367,3.2513,3.2382,3.1903,3.1801,3.1977,3.2541,3.2243,3.1871,3.1799,3.1087,3.0568,3.0568,3.0568,3.0866,3.1652,3.1766,3.1766,3.1766,3.1766,3.1766,3.1766,3.1766,3.1807,3.1962,3.1962,3.2185,3.2586,3.2641,3.3071,3.4101,3.4101,3.4101,3.4101,3.4295,3.4295,3.4101,3.4101,3.43,1.967,2.0467,2.1309,2.1309,0.0,0.0,2.194,2.2507,2.3252,2.411,2.4515,2.5065,2.6166,2.662,2.7073,2.7802,2.8514,2.9324,3.0344,3.049,3.0911,3.2044,3.2128,3.2297,3.276,3.2439,3.213,3.1879,3.1053,3.0441,3.0176,3.0176,3.0306,3.0568,3.0568,3.0568,3.0568,3.0568,3.0568,3.0568,3.0945,3.1119,3.1134,3.2153,3.2687,3.2952,3.3544,3.3926,3.4133,3.4554,3.4489,3.4133,3.4554,3.4732,3.4732,3.4732,3.5007,3.5315,3.4878,3.5007,3.538,3.538,3.538,3.538,3.538,3.5207,3.5032,3.5032,3.4108,3.2952,3.2223,3.1589,3.1221,3.1613,3.1714,3.1598,3.1206,3.1287,3.1589,3.193,3.1812,3.1649,3.1497,3.097,3.0568,3.0568,3.0568,3.0911,3.1781,3.1652,3.1595,3.1823,3.1652,3.148,3.148,3.148,3.148,3.148,3.148,3.1652,3.1992,3.1992,3.2586,3.3697,3.3697,3.3866,3.4201,3.4151,3.4151,3.4201,3.4201,3.43,2.0335,2.0791,0.0,2.1309,2.1374,0.0,2.1341,2.1876,2.2394,2.2394,2.2912,2.356,2.4256,2.492,2.5616,2.6345,2.7025,2.798,2.9464,2.9675,2.9923,3.0716,3.138,3.187,3.218,3.2681,3.2767,3.2276,3.1076,3.0179,2.961,2.9566,2.9813,3.0451,3.0466,3.0466,3.0466,3.0539,3.0568,3.0568,3.0568,3.0568,3.0628,3.1204,3.1766,3.2327,3.2895,3.3423,3.3882,3.3882,3.4,3.4101,3.4101,3.405,3.3984,3.4101,3.405,3.3984,3.4101,3.4101,3.4101,3.4101,3.405,3.3984,3.4101,3.3646,3.3093,3.3024,3.2281,3.148,3.1422,3.097,3.0568,3.0568,3.0568,3.0568,3.0568,3.1029,3.1422,3.1422,3.1029,3.0866,3.1321,3.0984,3.0568,3.0568,3.0568,3.1029,3.216,3.1766,3.1652,3.2231,3.1766,3.1422,3.1422,3.1422,3.1422,3.1422,3.1422,3.1437,3.148,3.148,3.2018,3.3198,3.3251,3.363,3.43,3.4201,3.4201,3.43,3.43,3.43,2.0335,2.0791,2.1309,2.1309,2.1762,0.0,2.1455,2.1876,2.2394,2.2394,2.2507,2.2831,2.3578,2.3821,2.411,2.4806,2.5535,2.6523,2.7931,2.8126,2.8611,2.9923,3.0198,3.0797,3.1934,3.1739,3.1454,3.1353,3.0266,2.9633,2.9595,2.9145,2.916,2.9798,2.9813,2.9813,2.9813,3.0321,3.0568,3.0568,3.0568,3.0568,3.0628,3.1204,3.1537,3.1709,3.2327,3.2602,3.2711,3.2711,3.3245,3.4101,3.4101,3.3815,3.3407,3.3933,3.3815,3.3475,3.3933,3.4101,3.4101,3.4101,3.3764,3.3475,3.3933,3.3403,3.2422,3.1977,3.1637,3.1379,3.0911,3.0687,3.0568,3.0568,3.0568,3.0568,3.0568,3.0687,3.0807,3.0807,3.1087,3.1204,3.0866,3.0687,3.0568,3.0568,3.0568,3.0851,3.1595,3.1146,3.1029,3.1595,3.1146,3.0807,3.0807,3.0807,3.0807,3.0807,3.0807,3.097,3.148,3.148,3.2018,3.3198,3.3697,3.4034,3.43,3.425,3.425,3.43,3.4399,3.4349,2.1073,2.1142,2.1421,2.181,2.1875,0.0,0.0,2.1859,2.1956,2.2313,2.2102,2.2086,2.2798,2.2928,2.3041,2.3381,2.4061,2.479,2.5503,2.6814,2.7964,2.8709,2.9113,2.9615,3.0328,3.0794,3.0895,3.0607,3.0083,2.9522,2.9083,2.8733,2.8755,2.9131,2.9145,2.9145,2.9145,2.9784,3.0103,3.0103,3.0422,3.0568,3.0628,3.0911,3.1204,3.1537,3.1823,3.2104,3.2398,3.2398,3.2711,3.3245,3.3245,3.3071,3.2841,3.3124,3.3071,3.2841,3.314,3.3245,3.3298,3.3543,3.3266,3.2895,3.3491,3.2857,3.1823,3.1204,3.1029,3.097,3.0687,3.0568,3.0568,3.0568,3.0568,3.0568,3.0568,3.0568,3.0568,3.0568,3.0851,3.0984,3.0628,3.0568,3.0568,3.0568,3.0568,3.0807,3.1422,3.097,3.0807,3.1437,3.097,3.0568,3.0568,3.0568,3.0568,3.0568,3.0568,3.0747,3.1029,3.1029,3.1465,3.2336,3.3594,3.4134,3.3935,3.4333,3.4497,3.4497,3.4546,3.4546,2.1817,2.1609,2.1743,2.2215,2.2037,2.1843,0.0,0.0,0.0,2.2118,2.1714,2.1487,2.2086,2.2183,2.2183,2.2183,2.2798,2.3302,2.3302,2.5303,2.6896,2.7267,2.7948,2.8433,2.8579,2.9632,3.0055,2.9516,2.9469,2.9168,2.8478,2.8321,2.836,2.863,2.8645,2.8604,2.8492,2.9247,2.9624,2.9639,3.0263,3.0568,3.0568,3.0568,3.0866,3.1321,3.1321,3.1595,3.2048,3.2048,3.2048,3.2064,3.2342,3.2342,3.2216,3.2342,3.2342,3.2216,3.2342,3.2398,3.2492,3.2895,3.2734,3.2492,3.2895,3.2407,3.1537,3.0911,3.0747,3.0747,3.0628,3.0568,3.0568,3.0568,3.0568,3.0568,3.0568,3.0568,3.0568,3.0568,3.0568,3.0568,3.0568,3.0568,3.0568,3.0568,3.0568,3.0807,3.1263,3.0911,3.0807,3.1263,3.0911,3.0568,3.0568,3.0568,3.0568,3.0568,3.0568,3.0568,3.0568,3.0807,3.1146,3.148,3.3319,3.4068,3.3582,3.4366,3.4691,3.4691,3.4756,3.4691,2.1817,2.2064,2.2425,2.1851,2.2556,2.3112,2.1951,0.0,2.2183,2.163,0.0,2.1341,2.1422,0.0,0.0,2.1438,2.2037,2.2523,2.2523,2.3074,2.4042,2.5659,2.649,2.717,2.7769,2.798,2.7837,2.7277,2.7277,2.7561,2.8186,2.7666,2.7731,2.8517,2.8494,2.8296,2.7839,2.9029,2.9624,2.9639,3.0263,3.0568,3.0568,3.0568,3.0628,3.0687,3.0687,3.0747,3.0807,3.0807,3.0807,3.0911,3.1992,3.2048,3.1652,3.2216,3.2048,3.1652,3.2216,3.2398,3.2382,3.2492,3.2453,3.2382,3.2492,3.2382,3.216,3.1537,3.1422,3.1263,3.0747,3.0568,3.0568,3.0568,3.0568,3.0568,3.0568,3.0568,3.0568,3.0568,3.0568,3.0568,3.0568,3.0568,3.0568,3.0568,3.0568,3.0628,3.0687,3.0628,3.0642,3.0687,3.0628,3.0568,3.0568,3.0568,3.0568,3.0568,3.0568,3.0568,3.0568,3.1652,3.1992,3.148,3.3319,3.4068,3.3582,3.4366,3.4691,3.4691,3.4804,3.4756,2.1906,2.219,2.2604,2.234,2.2654,2.2867,2.2326,2.2018,2.1906,2.202,0.0,0.0,0.0,0.0,0.0,0.0,2.1568,2.1762,2.1762,2.2245,2.2946,2.3919,2.4303,2.5002,2.6338,2.649,2.6751,2.7336,2.699,2.6973,2.7408,2.7593,2.769,2.7731,2.784,2.7794,2.7602,2.8167,2.8521,2.8536,2.9174,2.9479,2.9479,2.9479,2.9668,3.0031,3.0031,3.0234,3.0568,3.0568,3.0568,3.0628,3.1146,3.1204,3.1029,3.1263,3.1204,3.1029,3.1263,3.1379,3.1379,3.1379,3.1823,3.2287,3.1537,3.1595,3.1823,3.1595,3.1766,3.1879,3.1263,3.1146,3.1029,3.0687,3.0568,3.0568,3.0568,3.0568,3.0568,3.0568,3.0568,3.0568,3.0568,3.0568,3.0568,3.0568,3.0568,3.0568,3.0568,3.0568,3.0568,3.0568,3.0568,3.0568,3.0568,3.0568,3.0568,3.0568,3.0568,3.0568,3.0568,3.1422,3.161,3.1102,3.2625,3.3371,3.3235,3.4018,3.4497,3.4804,3.4899,3.4851,2.2344,2.2533,2.2931,2.2599,2.257,2.2588,2.2439,2.2081,2.1871,2.2197,2.1955,0.0,0.0,0.0,2.1309,2.1309,0.0,2.1309,2.1309,2.1666,2.2112,2.254,2.2794,2.3426,2.4719,2.4943,2.5519,2.6733,2.6361,2.6317,2.6798,2.7338,2.7548,2.7396,2.7559,2.7667,2.77,2.7995,2.8086,2.7939,2.8569,2.882,2.8681,2.8681,2.8927,2.9377,2.9552,2.9885,3.0321,3.0321,3.0422,3.0553,3.0379,3.0422,3.0568,3.0568,3.0568,3.0568,3.0568,3.0568,3.0642,3.0807,3.1422,3.2048,3.1465,3.1622,3.1962,3.1962,3.2145,3.2272,3.1652,3.1379,3.1146,3.0687,3.0568,3.0568,3.0568,3.0568,3.0568,3.0568,3.0568,3.0568,3.0568,3.0568,3.0568,3.0568,3.0568,3.0568,3.0568,3.0568,3.0568,3.0568,3.0568,3.0568,3.0568,3.0568,3.0568,3.0568,3.0568,3.0568,3.0568,3.1204,3.1174,3.0499,3.1982,3.2654,3.2353,3.3313,3.3942,3.4303,3.47,3.4899,2.3255,2.3404,2.3619,2.2195,2.2361,2.2708,2.1996,2.2316,2.2551,2.1875,2.2225,2.2393,2.158,2.1402,2.1402,0.0,2.1309,0.0,0.0,2.1038,2.1112,2.1777,2.2457,2.2921,2.2968,2.3337,2.387,2.4531,2.4563,2.5195,2.6652,2.6749,2.7121,2.7939,2.7958,2.8061,2.8288,2.8897,2.8997,2.8495,2.9068,2.9108,2.8681,2.8681,2.8695,2.8739,2.9363,2.9639,2.9653,2.9653,3.0016,3.051,2.99,3.0031,3.0568,3.0568,3.0568,3.0568,3.0568,3.0568,3.0687,3.1263,3.148,3.1709,3.281,3.313,3.3145,3.3145,3.2788,3.2272,3.1652,3.1087,3.0628,3.0628,3.0568,3.0568,3.0568,3.0568,3.0568,3.0568,3.0568,3.0568,3.0568,3.0568,3.0568,3.0568,3.0568,3.0568,3.0568,3.0568,3.0568,3.0568,3.0568,3.0568,3.0568,3.0568,3.0568,3.0568,3.0568,3.0568,3.0568,3.1204,3.0908,2.9668,3.1738,3.2117,3.081,3.2286,3.293,3.2796,3.422,3.4899,2.3768,2.4083,2.4248,2.2891,2.3025,2.3208,2.2062,2.2316,2.2584,2.1842,2.2225,2.2457,2.1689,2.1542,2.1511,0.0,0.0,2.134,0.0,2.1023,2.0873,2.1094,2.1761,2.2293,2.2549,2.2683,2.3236,2.4401,2.4113,2.445,2.5907,2.6426,2.6832,2.7121,2.7688,2.8052,2.8091,2.8463,2.856,2.8362,2.8575,2.8378,2.7891,2.7891,2.793,2.8057,2.8274,2.8608,2.9,2.9,2.9131,2.9348,2.9537,2.9493,2.9421,3.0263,3.0306,2.9943,2.9943,3.05,3.1146,3.097,3.1146,3.1595,3.1962,3.2074,3.2185,3.2586,3.2547,3.2272,3.1652,3.1379,3.1087,3.0687,3.0568,3.0568,3.0568,3.0568,3.0568,3.0568,3.0568,3.0568,3.0568,3.0568,3.0568,3.0568,3.0568,3.0568,3.0568,3.0568,3.0408,2.9987,2.9943,2.9784,2.9363,2.9319,2.9319,2.9319,2.9319,2.9319,2.9319,2.9549,2.9488,2.9141,2.9948,3.0517,3.0798,3.1448,3.2094,3.2696,3.3193,3.3707,2.4464,2.4695,2.4711,2.3586,2.3587,2.3588,2.246,2.2727,2.3026,2.2283,2.2452,2.27,2.2407,2.1964,2.1655,0.0,0.0,2.1402,0.0,2.1119,2.099,2.099,2.124,2.1544,2.1809,2.194,2.2604,2.4029,2.3756,2.4094,2.5535,2.6053,2.6426,2.6685,2.7256,2.7774,2.8268,2.8428,2.8482,2.8591,2.8591,2.8288,2.7799,2.7799,2.7855,2.7943,2.7983,2.8213,2.8594,2.8443,2.8477,2.8724,2.9131,2.9029,2.8811,2.9856,2.9842,2.929,2.929,2.984,3.045,3.0075,3.035,3.0878,3.1102,3.1291,3.1617,3.221,3.2231,3.1992,3.1595,3.1364,3.1087,3.0687,3.0568,3.0568,3.0568,3.0568,3.0568,3.0568,3.0568,3.0568,3.0568,3.0379,3.0321,3.0539,3.0568,3.0568,3.0568,3.0379,3.0074,2.9668,2.9421,2.9116,2.871,2.8681,2.8681,2.8681,2.8681,2.8681,2.8681,2.8681,2.8621,2.8484,2.8814,2.9372,3.0143,3.0476,3.1101,3.1918,3.2183,3.2564]},{"header":{"parameterUnit":"m.s-1","parameterCategory":1,"la1":30.6,"la2":29.2853,"lo1":-89.7004,"lo2":-87.6739,"dy":0.0162,"dx":0.0183,"nx":112,"ny":82,"refTime":"2024-08-12T18:00:00:Z","depth":0,"parameterNumber":3,"parameterNumberName":"V-component_of_WINDS"},"data":[0.0,0.0,0.0,0.0,0.0,0.0,0.0,0.0,0.0,0.0,0.0,0.0,0.0,0.0,0.0,0.0,0.0,0.0,0.0,0.0,0.0,0.0,0.0,0.0,0.0,0.0,0.0,0.0,0.0,0.0,0.0,0.0,0.0,0.0,0.0,0.0,0.0,0.0,0.0,0.0,0.0,0.0,0.0,0.0,0.0,0.0,0.0,0.0,0.0,0.0,0.0,0.0,0.0,0.0,0.0,0.0,0.0,0.0,0.0,0.0,0.0,0.0,0.0,0.0,0.0,0.0,0.0,0.0,0.0,0.0,0.0,0.0,0.0,0.0,0.0,0.0,0.0,0.0,0.0,0.0,0.0,0.0,0.0,0.0,0.0,0.0,0.0,0.0,0.0,0.0,-0.5804,-0.6029,-0.6226,-0.6173,-0.5732,-0.6009,-0.5995,-0.543,0.0,0.0,0.0,0.0,0.0,0.0,0.0,0.0,0.0,0.0,0.0,0.0,0.0,0.0,0.0,0.0,0.0,0.0,0.0,0.0,0.0,0.0,0.0,0.0,0.0,0.0,0.0,0.0,0.0,0.0,0.0,0.0,0.0,0.0,0.0,0.0,0.0,0.0,0.0,0.0,0.0,0.0,0.0,0.0,0.0,0.0,0.0,0.0,0.0,0.0,0.0,0.0,0.0,0.0,0.0,0.0,0.0,0.0,0.0,0.0,0.0,0.0,0.0,0.0,0.0,0.0,0.0,0.0,0.0,0.0,0.0,0.0,0.0,0.0,0.0,0.0,0.0,0.0,0.0,0.0,0.0,0.0,0.0,0.0,0.0,0.0,0.0,0.0,0.0,0.0,0.0,0.0,0.0,0.0,0.0,0.0,0.0,0.0,0.0,0.0,0.0,0.0,0.0,0.0,-0.6261,-0.6855,-0.6956,-0.6712,-0.6173,-0.6178,-0.5995,-0.543,0.0,0.0,0.0,0.0,0.0,0.0,0.0,0.0,0.0,0.0,0.0,0.0,0.0,0.0,0.0,0.0,0.0,0.0,0.0,0.0,0.0,0.0,0.0,0.0,0.0,0.0,0.0,0.0,0.0,0.0,0.0,0.0,0.0,0.0,0.0,0.0,0.0,0.0,0.0,0.0,0.0,0.0,0.0,0.0,0.0,0.0,0.0,0.0,0.0,0.0,0.0,0.0,0.0,0.0,0.0,0.0,0.0,0.0,0.0,0.0,0.0,0.0,0.0,0.0,0.0,0.0,0.0,0.0,0.0,0.0,0.0,0.0,0.0,0.0,0.0,0.0,0.0,0.0,0.0,0.0,0.0,0.0,0.0,0.0,0.0,0.0,0.0,0.0,0.0,0.0,0.0,0.0,0.0,0.0,0.0,0.0,0.0,0.0,0.0,0.0,0.0,0.0,0.0,-0.6351,-0.6762,-0.7452,-0.7557,-0.7396,-0.7133,-0.7133,-0.6828,-0.6064,-0.5656,0.0,0.0,0.0,0.0,0.0,0.0,0.0,0.0,0.0,0.0,0.0,0.0,0.0,0.0,0.0,0.0,0.0,0.0,0.0,0.0,0.0,0.0,0.0,0.0,0.0,0.0,0.0,0.0,0.0,0.0,0.0,0.0,0.0,0.0,0.0,0.0,0.0,0.0,0.0,0.0,0.0,0.0,0.0,0.0,0.0,0.0,0.0,0.0,0.0,0.0,0.0,0.0,0.0,0.0,0.0,0.0,0.0,0.0,0.0,0.0,0.0,0.0,0.0,0.0,0.0,0.0,0.0,0.0,0.0,0.0,0.0,0.0,0.0,0.0,0.0,0.0,0.0,0.0,0.0,0.0,0.0,0.0,0.0,0.0,0.0,0.0,0.0,0.0,0.0,0.0,0.0,0.0,0.0,0.0,0.0,0.0,0.0,0.0,0.0,0.0,0.0,0.0,-0.724,-0.7644,-0.8059,-0.8137,-0.8031,-0.7925,-0.7817,-0.743,-0.6693,-0.6052,0.0,0.0,0.0,0.0,0.0,0.0,0.0,0.0,0.0,0.0,0.0,0.0,0.0,0.0,0.0,0.0,0.0,0.0,0.0,0.0,0.0,0.0,0.0,0.0,0.0,0.0,0.0,0.0,0.0,0.0,0.0,0.0,0.0,0.0,0.0,0.0,0.0,0.0,0.0,0.0,0.0,0.0,0.0,0.0,0.0,0.0,0.0,0.0,0.0,0.0,0.0,0.0,0.0,0.0,0.0,0.0,0.0,0.0,0.0,0.0,0.0,0.0,0.0,0.0,0.0,0.0,0.0,0.0,0.0,0.0,0.0,0.0,0.0,0.0,0.0,0.0,0.0,0.0,0.0,0.0,0.0,0.0,0.0,0.0,0.0,0.0,0.0,0.0,0.0,0.0,0.0,0.0,0.0,0.0,0.0,0.0,0.0,0.0,0.0,0.0,0.0,0.0,-0.8504,-0.9221,-0.8771,-0.8718,-0.8508,-0.7925,-0.7592,-0.7336,-0.7068,-0.6027,0.0,0.0,0.0,0.0,0.0,0.0,0.0,0.0,0.0,0.0,0.0,0.0,0.0,0.0,0.0,0.0,0.0,0.0,0.0,0.0,0.0,0.0,0.0,0.0,0.0,0.0,0.0,0.0,0.0,0.0,0.0,0.0,0.0,0.0,0.0,0.0,0.0,0.0,0.0,0.0,0.0,0.0,0.0,0.0,0.0,0.0,0.0,0.0,0.0,0.0,0.0,0.0,0.0,0.0,0.0,0.0,0.0,0.0,0.0,0.0,0.0,0.0,0.0,0.0,0.0,0.0,0.0,0.0,0.0,0.0,0.0,0.0,0.0,0.0,0.0,0.0,0.0,0.0,0.0,0.0,0.0,0.0,0.0,0.0,0.0,0.0,0.0,0.0,0.0,0.0,0.0,0.0,0.0,0.0,0.0,0.0,0.0,0.0,0.0,0.0,0.0,0.0,-0.8405,-0.8987,-0.928,-0.9302,-0.919,-0.8981,-0.8826,-0.8454,-0.7698,0.0,0.0,0.0,0.0,0.0,0.0,0.0,0.0,0.0,0.0,0.0,0.0,0.0,0.0,0.0,0.0,0.0,0.0,0.0,0.0,0.0,0.0,0.0,0.0,0.0,0.0,0.0,0.0,0.0,0.0,0.0,0.0,0.0,0.0,0.0,0.0,0.0,0.0,0.0,0.0,0.0,0.0,0.0,0.0,0.0,0.0,0.0,0.0,0.0,0.0,0.0,0.0,0.0,0.0,0.0,0.0,0.0,0.0,0.0,0.0,0.0,0.0,0.0,0.0,0.0,0.0,0.0,0.0,0.0,0.0,0.0,0.0,0.0,0.0,0.0,0.0,0.0,0.0,0.0,0.0,0.0,0.0,0.0,0.0,0.0,0.0,0.0,0.0,0.0,0.0,0.0,0.0,0.0,0.0,0.0,0.0,0.0,0.0,0.0,0.0,0.0,0.0,-0.7856,-0.8497,-0.9024,-0.954,-0.9614,-0.9614,-0.9614,-0.9526,-0.9091,-0.8282,0.0,0.0,0.0,0.0,0.0,0.0,0.0,0.0,0.0,0.0,0.0,0.0,0.0,0.0,0.0,0.0,0.0,0.0,0.0,0.0,0.0,0.0,0.0,0.0,0.0,0.0,0.0,0.0,0.0,0.0,0.0,0.0,0.0,0.0,0.0,0.0,0.0,0.0,0.0,0.0,0.0,0.0,0.0,0.0,0.0,0.0,0.0,0.0,0.0,0.0,0.0,0.0,0.0,0.0,0.0,0.0,0.0,0.0,0.0,0.0,0.0,0.0,0.0,0.0,0.0,0.0,0.0,0.0,0.0,0.0,0.0,0.0,0.0,0.0,0.0,0.0,0.0,0.0,0.0,0.0,0.0,0.0,0.0,0.0,0.0,0.0,0.0,0.0,0.0,0.0,0.0,0.0,0.0,0.0,0.0,0.0,0.0,0.0,0.0,0.0,0.0,0.0,-0.7923,-0.8919,-0.9614,-0.9614,-0.9614,-0.9614,-0.9614,-0.9343,-0.9036,0.0,0.0,0.0,0.0,0.0,0.0,0.0,0.0,0.0,0.0,0.0,0.0,0.0,0.0,0.0,0.0,0.0,0.0,0.0,0.0,0.0,0.0,0.0,0.0,0.0,0.0,0.0,0.0,0.0,0.0,0.0,0.0,0.0,0.0,0.0,0.0,0.0,0.0,0.0,0.0,0.0,0.0,0.0,0.0,0.0,0.0,0.0,0.0,0.0,0.0,0.0,0.0,0.0,0.0,0.0,0.0,0.0,0.0,0.0,0.0,0.0,0.0,0.0,0.0,0.0,0.0,0.0,0.0,0.0,0.0,0.0,0.0,0.0,0.0,0.0,0.0,0.0,0.0,0.0,0.0,0.0,0.0,0.0,0.0,0.0,0.0,0.0,0.0,0.0,0.0,0.0,0.0,0.0,0.0,0.0,0.0,0.0,0.0,0.0,0.0,0.0,0.0,0.0,-0.8411,-0.9126,-0.9614,-0.9614,-0.9614,-0.9614,-0.9614,-0.9343,-0.9036,-0.8707,0.0,0.0,0.0,0.0,0.0,0.0,0.0,0.0,0.0,0.0,0.0,0.0,0.0,0.0,0.0,0.0,0.0,0.0,0.0,0.0,0.0,0.0,0.0,0.0,0.0,0.0,0.0,0.0,0.0,0.0,0.0,0.0,0.0,0.0,0.0,0.0,0.0,0.0,0.0,0.0,0.0,0.0,0.0,0.0,0.0,0.0,0.0,0.0,0.0,0.0,0.0,0.0,0.0,0.0,0.0,0.0,0.0,0.0,0.0,0.0,0.0,0.0,0.0,0.0,0.0,0.0,0.0,0.0,0.0,0.0,0.0,0.0,0.0,0.0,0.0,0.0,0.0,0.0,0.0,0.0,0.0,0.0,0.0,0.0,0.0,0.0,0.0,0.0,0.0,0.0,0.0,0.0,0.0,0.0,0.0,0.0,0.0,0.0,0.0,0.0,0.0,0.0,-0.8921,-0.9722,-1.0226,-1.0226,-1.0226,-1.0226,-1.0226,-1.0105,-0.9792,-0.9306,0.0,0.0,0.0,0.0,0.0,0.0,0.0,0.0,0.0,0.0,0.0,0.0,0.0,0.0,0.0,0.0,0.0,0.0,0.0,0.0,0.0,0.0,0.0,0.0,0.0,0.0,0.0,0.0,0.0,0.0,0.0,0.0,0.0,0.0,0.0,0.0,0.0,0.0,0.0,0.0,0.0,0.0,0.0,0.0,0.0,0.0,0.0,0.0,0.0,0.0,0.0,0.0,0.0,0.0,0.0,0.0,0.0,0.0,0.0,0.0,0.0,0.0,0.0,0.0,0.0,0.0,0.0,0.0,0.0,0.0,0.0,0.0,0.0,0.0,0.0,0.0,0.0,0.0,0.0,0.0,0.0,0.0,0.0,0.0,0.0,0.0,0.0,0.0,0.0,0.0,0.0,0.0,0.0,0.0,0.0,0.0,0.0,0.0,0.0,0.0,0.0,0.0,-0.9458,-1.0523,-1.12,-1.12,-1.12,-1.12,-1.12,-1.1166,-1.0851,-1.0135,0.0,0.0,0.0,0.0,0.0,0.0,0.0,0.0,0.0,0.0,0.0,0.0,0.0,0.0,0.0,0.0,0.0,0.0,0.0,0.0,0.0,0.0,0.0,0.0,0.0,0.0,0.0,0.0,0.0,0.0,0.0,0.0,0.0,0.0,0.0,0.0,0.0,0.0,0.0,0.0,0.0,0.0,0.0,0.0,0.0,0.0,0.0,0.0,0.0,0.0,0.0,0.0,0.0,0.0,0.0,0.0,0.0,0.0,0.0,0.0,-1.1788,-1.1716,0.0,0.0,0.0,0.0,0.0,0.0,0.0,0.0,0.0,0.0,0.0,0.0,0.0,0.0,0.0,0.0,0.0,0.0,0.0,0.0,0.0,0.0,0.0,0.0,0.0,0.0,0.0,0.0,0.0,0.0,0.0,0.0,0.0,0.0,0.0,0.0,0.0,0.0,0.0,0.0,-0.9795,-1.0681,-1.1242,-1.1375,-1.1242,-1.1242,-1.1375,-1.1074,-1.0673,-1.0118,-0.9427,0.0,0.0,0.0,0.0,0.0,0.0,0.0,0.0,0.0,0.0,0.0,0.0,0.0,0.0,0.0,0.0,0.0,0.0,0.0,0.0,0.0,0.0,0.0,0.0,0.0,0.0,0.0,0.0,0.0,0.0,0.0,0.0,0.0,0.0,0.0,0.0,0.0,0.0,0.0,0.0,0.0,0.0,0.0,0.0,0.0,0.0,0.0,0.0,0.0,0.0,0.0,0.0,0.0,0.0,0.0,0.0,0.0,0.0,0.0,-1.2916,-1.271,0.0,0.0,0.0,0.0,0.0,0.0,0.0,0.0,0.0,0.0,0.0,0.0,0.0,0.0,0.0,0.0,0.0,0.0,0.0,0.0,0.0,0.0,0.0,0.0,0.0,0.0,0.0,0.0,0.0,0.0,0.0,0.0,0.0,0.0,0.0,0.0,0.0,0.0,0.0,0.0,-1.0677,-1.1518,-1.2058,-1.2098,-1.2107,-1.2107,-1.2138,-1.2002,-1.1752,-1.1251,-1.0431,0.0,0.0,0.0,0.0,0.0,0.0,0.0,0.0,0.0,0.0,0.0,0.0,0.0,0.0,0.0,0.0,0.0,0.0,0.0,0.0,0.0,0.0,0.0,0.0,0.0,0.0,0.0,0.0,0.0,0.0,0.0,0.0,0.0,0.0,0.0,0.0,0.0,0.0,0.0,0.0,0.0,0.0,0.0,0.0,0.0,0.0,0.0,0.0,0.0,0.0,0.0,0.0,0.0,-1.4443,-1.437,-1.5056,-1.4526,-1.4483,-1.4781,-1.3973,-1.3683,-1.3703,-1.3238,0.0,0.0,0.0,0.0,0.0,0.0,0.0,0.0,0.0,0.0,0.0,0.0,0.0,0.0,0.0,0.0,0.0,0.0,0.0,0.0,0.0,0.0,-1.3093,-1.2848,-1.302,-1.3017,-1.2153,0.0,0.0,0.0,0.0,0.0,0.0,0.0,0.0,0.0,0.0,0.0,-1.1649,-1.2455,-1.2929,-1.2968,-1.3075,-1.3065,-1.2968,-1.3132,-1.2979,-1.2457,-1.162,-1.0998,0.0,0.0,0.0,0.0,0.0,0.0,0.0,0.0,0.0,0.0,0.0,0.0,0.0,0.0,0.0,0.0,0.0,0.0,0.0,0.0,0.0,0.0,0.0,0.0,0.0,0.0,0.0,0.0,0.0,0.0,0.0,0.0,-1.3725,-1.4419,0.0,0.0,0.0,0.0,0.0,0.0,0.0,0.0,0.0,0.0,0.0,0.0,0.0,-1.8018,-1.8279,-1.8584,-1.8459,-1.7926,-1.8135,-1.8124,-1.7873,-1.7221,-1.6719,-1.6409,-1.6448,0.0,-1.4179,-1.382,0.0,0.0,0.0,0.0,0.0,0.0,0.0,0.0,0.0,0.0,0.0,0.0,0.0,0.0,0.0,0.0,0.0,0.0,0.0,0.0,0.0,0.0,-1.421,-1.4552,-1.4676,-1.4593,-1.4039,-1.296,-1.1963,-1.1522,-1.1317,-1.1084,0.0,0.0,0.0,0.0,0.0,0.0,-1.2234,-1.2774,-1.3123,-1.3324,-1.3228,-1.3228,-1.3324,-1.3266,-1.3027,-1.2594,-1.2463,-1.2202,-1.1812,-1.105,0.0,0.0,0.0,0.0,0.0,0.0,0.0,0.0,0.0,0.0,0.0,0.0,0.0,0.0,0.0,0.0,0.0,0.0,0.0,0.0,0.0,0.0,0.0,0.0,0.0,0.0,0.0,0.0,0.0,-1.3572,-1.4578,-1.5513,-1.584,-1.5996,0.0,0.0,0.0,0.0,0.0,0.0,0.0,0.0,0.0,-1.9105,-1.9682,-2.0003,-2.0104,-2.006,-1.983,-1.9492,-1.9404,-1.925,-1.9081,-1.8709,-1.8274,-1.7771,-1.7578,-1.6955,-1.597,-1.5466,-1.5248,-1.5237,0.0,0.0,0.0,0.0,-1.3841,-1.3506,-1.3413,-1.3367,-1.331,-1.331,0.0,0.0,0.0,0.0,0.0,0.0,0.0,-1.4138,-1.4335,-1.4542,-1.4749,-1.4945,-1.5258,-1.5453,-1.5239,-1.4763,-1.4003,-1.2944,-1.2469,-1.2232,-1.2036,-1.1799,0.0,0.0,0.0,-1.2458,-1.283,-1.3025,-1.319,-1.3266,-1.3314,-1.3314,-1.3266,-1.3362,-1.3338,-1.3087,-1.2889,-1.2664,-1.2481,-1.185,-1.1263,0.0,0.0,0.0,0.0,0.0,0.0,0.0,0.0,0.0,0.0,0.0,0.0,0.0,0.0,0.0,0.0,0.0,0.0,0.0,0.0,0.0,0.0,0.0,0.0,0.0,0.0,0.0,0.0,-1.4627,-1.5434,-1.648,-1.6728,-1.6833,0.0,0.0,0.0,0.0,0.0,0.0,-1.9316,-1.9917,-2.0455,-2.0978,-2.1497,-2.1807,-2.1841,-2.1475,-2.1255,-2.1187,-2.0785,-2.0588,-2.0623,-2.0378,-1.9977,-1.9443,-1.9041,-1.8621,-1.8143,-1.6932,-1.6352,-1.6168,-1.5752,-1.5468,-1.5254,-1.5316,-1.5132,-1.4789,-1.4426,-1.4384,-1.4373,-1.4187,-1.4221,-1.4314,-1.4503,0.0,0.0,0.0,0.0,-1.571,-1.5775,-1.5711,-1.5605,-1.5563,-1.5913,-1.6142,-1.5929,-1.5949,-1.5698,-1.4412,-1.3788,-1.3414,-1.33,-1.301,0.0,-1.3174,-1.3159,-1.3273,-1.3643,-1.3542,-1.3457,-1.3505,-1.3457,-1.3409,-1.3314,-1.3467,-1.3563,-1.3467,-1.3243,-1.3057,-1.3022,-1.2648,-1.2118,-1.1348,0.0,0.0,0.0,0.0,0.0,0.0,0.0,0.0,0.0,0.0,0.0,0.0,0.0,0.0,0.0,0.0,0.0,0.0,0.0,0.0,0.0,0.0,0.0,0.0,0.0,0.0,0.0,0.0,0.0,-1.7094,-1.7669,0.0,0.0,0.0,0.0,-1.963,-2.0165,-2.0555,-2.062,-2.1106,-2.1681,-2.231,-2.2831,-2.3293,-2.3748,-2.3761,-2.3631,-2.3428,-2.3441,-2.3416,-2.3403,-2.2722,-2.2174,-2.174,-2.1485,-2.1131,-2.0521,-1.7745,-1.6707,-1.6933,-1.6753,-1.6733,-1.6711,-1.6935,-1.7225,-1.7443,-1.6235,-1.6127,-1.6436,-1.5783,-1.5887,-1.6342,-1.6849,-1.7137,0.0,0.0,-1.7444,-1.7583,-1.794,-1.7656,-1.7258,-1.7137,-1.7125,-1.6851,-1.5907,-1.6116,-1.6339,-1.5899,-1.5318,-1.4749,-1.4314,0.0,-1.4213,-1.4312,-1.419,-1.434,-1.4915,-1.4501,-1.4176,-1.4326,-1.3905,-1.3573,-1.3563,-1.361,-1.3621,-1.361,-1.3542,-1.3579,-1.3579,-1.3558,-1.3284,-1.282,-1.2115,0.0,0.0,0.0,0.0,0.0,0.0,0.0,0.0,0.0,0.0,0.0,0.0,0.0,0.0,0.0,0.0,0.0,0.0,0.0,0.0,0.0,0.0,0.0,0.0,0.0,0.0,0.0,0.0,-1.8767,-1.9394,0.0,-1.9795,-2.0162,-2.0505,-2.0871,-2.1093,-2.1525,-2.2269,-2.2492,-2.2884,-2.3472,-2.3694,-2.3845,-2.4008,-2.4008,-2.3995,-2.3936,-2.3936,-2.3936,-2.3936,-2.3675,-2.3238,-2.268,-2.2578,-2.2189,-2.1483,-2.0445,-1.9591,-1.8868,-1.8962,-1.86,-1.7989,-1.8463,-1.8588,-1.8436,-1.7982,-1.7668,-1.7465,-1.74,-1.7999,-1.8735,-1.885,-1.8908,-1.8931,-1.8975,-1.9041,-1.9031,-1.9205,-1.8802,-1.8345,-1.8306,-1.8334,-1.8274,-1.7886,-1.7947,-1.806,-1.7938,-1.6934,-1.593,-1.5434,-1.5631,-1.5852,-1.5879,-1.5307,-1.4927,-1.5118,-1.437,-1.3847,-1.3894,-1.3716,-1.3621,-1.3621,-1.3905,-1.3952,-1.3621,-1.3905,-1.3941,-1.361,-1.3621,-1.3538,-1.3372,-1.2781,-1.2115,0.0,0.0,0.0,0.0,0.0,0.0,0.0,0.0,0.0,0.0,0.0,0.0,0.0,0.0,0.0,0.0,0.0,0.0,0.0,0.0,0.0,0.0,0.0,0.0,0.0,-1.8179,-1.9028,-1.9982,-2.0597,-2.0949,-2.0949,-2.1302,-2.176,-2.2348,-2.257,-2.3093,-2.4047,-2.4099,-2.4282,-2.4687,-2.4687,-2.4596,-2.4413,-2.44,-2.4308,-2.4112,-2.4112,-2.4112,-2.4112,-2.4112,-2.3865,-2.3471,-2.3471,-2.3113,-2.2628,-2.2628,-2.197,-2.0979,-2.0831,-2.0323,-1.9749,-2.0192,-2.031,-2.022,-1.997,-1.9361,-1.8757,-1.9091,-1.9714,-2.0335,-2.0464,-2.0594,-2.0701,-2.0699,-2.071,-2.0652,-2.0652,-2.0189,-1.9728,-1.9491,-1.9523,-1.9504,-1.9297,-1.9275,-1.9198,-1.9024,-1.7985,-1.7037,-1.6479,-1.6537,-1.6722,-1.6959,-1.6067,-1.5483,-1.5853,-1.4991,-1.4306,-1.4328,-1.4174,-1.4063,-1.4093,-1.428,-1.4233,-1.3905,-1.4046,-1.3952,-1.361,-1.3621,-1.3621,-1.3621,-1.3119,-1.2555,-1.184,0.0,0.0,0.0,0.0,0.0,0.0,0.0,0.0,0.0,0.0,0.0,0.0,0.0,0.0,0.0,0.0,0.0,0.0,0.0,0.0,0.0,0.0,0.0,-1.8205,-1.9172,-2.0087,-2.0725,-2.1237,-2.1603,-2.1616,-2.2622,-2.3524,-2.4125,-2.4674,-2.5236,-2.5798,-2.5824,-2.5824,-2.5824,-2.5824,-2.5563,-2.5001,-2.5035,-2.4687,-2.4151,-2.4125,-2.4112,-2.4112,-2.4112,-2.4112,-2.4112,-2.4112,-2.4112,-2.4112,-2.4112,-2.3734,-2.3027,-2.2237,-2.1951,-2.1939,-2.2113,-2.2482,-2.2845,-2.2179,-2.1229,-2.0415,-2.0807,-2.0984,-2.1104,-2.1699,-2.2126,-2.2445,-2.2614,-2.2463,-2.2334,-2.2334,-2.1933,-2.1394,-2.0779,-2.0653,-2.0469,-1.9983,-1.9871,-1.9682,-1.9099,-1.8582,-1.8032,-1.7554,-1.7002,-1.6845,-1.7471,-1.6535,0.0,-1.7205,-1.64,-1.5769,-1.5816,-1.5315,-1.503,-1.5074,-1.4662,-1.4373,-1.4373,-1.3905,-1.3621,-1.3621,-1.3621,-1.3621,-1.3621,-1.3119,-1.271,-1.2307,0.0,0.0,0.0,0.0,0.0,0.0,0.0,0.0,0.0,0.0,0.0,0.0,0.0,0.0,0.0,0.0,0.0,0.0,0.0,0.0,0.0,-1.95,-2.0584,-2.0584,-2.1198,-2.1864,-2.2452,-2.3041,-2.3563,-2.3981,-2.4295,-2.4726,-2.5315,-2.5497,-2.5654,-2.5811,-2.5824,-2.5824,-2.5824,-2.5824,-2.5746,-2.5589,-2.5171,-2.4896,-2.4726,-2.4321,-2.4112,-2.4112,-2.4112,-2.4112,-2.4112,-2.4112,-2.4112,-2.4112,-2.4112,-2.3995,-2.3793,-2.3556,-2.3173,-2.2847,-2.3365,-2.3616,-2.3649,-2.2984,-2.2892,-2.2921,-2.2526,-2.2708,-2.309,-2.3077,-2.3179,-2.328,-2.3318,-2.328,-2.3221,-2.3103,-2.2698,-2.221,-2.1898,-2.153,-2.1188,-2.1075,-2.102,-2.0977,-2.0797,-2.0674,-2.0159,-1.8809,-1.8746,-1.8946,-1.9118,-1.8256,-1.7713,-1.7965,-1.7108,-1.6282,-1.592,-1.5449,-1.4991,-1.4558,-1.4428,-1.4233,-1.3858,-1.4046,-1.3999,-1.3621,-1.3621,-1.3621,-1.3621,-1.3119,-1.271,0.0,0.0,0.0,0.0,0.0,0.0,0.0,0.0,0.0,0.0,0.0,0.0,0.0,0.0,0.0,0.0,0.0,0.0,0.0,0.0,0.0,0.0,-2.0992,-2.2034,-2.2531,-2.2662,-2.2936,-2.3524,-2.4112,-2.4596,-2.4996,-2.5184,-2.5563,-2.6138,-2.6177,-2.6282,-2.653,-2.6543,-2.6543,-2.6543,-2.6543,-2.6425,-2.6177,-2.585,-2.5563,-2.5315,-2.4988,-2.47,-2.4478,-2.4478,-2.4347,-2.4112,-2.4112,-2.4112,-2.4112,-2.4112,-2.4112,-2.4112,0.0,0.0,0.0,0.0,-2.4112,-2.4054,-2.3662,-2.3793,-2.3995,-2.3543,-2.3688,-2.3949,-2.3819,-2.3747,-2.37,-2.37,-2.3628,-2.3569,-2.3509,-2.3221,-2.2921,-2.2791,-2.248,-2.2184,-2.2184,-2.1995,-2.1832,-2.1832,-2.1644,0.0,-2.0195,-1.9887,-1.9812,-1.9784,-1.8906,-1.8298,-1.857,-1.7819,-1.718,-1.6843,-1.6596,-1.6284,-1.5981,-1.5552,0.0,0.0,0.0,-1.414,-1.3621,-1.3621,0.0,0.0,0.0,0.0,0.0,0.0,0.0,0.0,-1.1454,-1.0848,0.0,0.0,0.0,0.0,0.0,0.0,0.0,0.0,0.0,0.0,0.0,0.0,0.0,0.0,0.0,0.0,-2.2533,-2.2923,-2.3968,-2.3655,-2.3537,-2.4138,-2.4661,-2.5014,-2.5205,-2.5615,-2.6151,-2.6726,-2.6765,-2.6987,-2.7497,-2.7523,0.0,0.0,0.0,-2.7288,-2.6778,-2.6713,-2.6412,-2.5916,-2.585,-2.5563,-2.5066,-2.5066,-2.4792,-2.4308,-2.4308,-2.4308,-2.4308,-2.4308,-2.4269,-2.4204,-2.4151,-2.4112,-2.4112,-2.4112,-2.4112,-2.4112,-2.4112,0.0,0.0,-2.4112,-2.4112,-2.4125,-2.4191,-2.4099,-2.404,-2.404,-2.3909,-2.3765,-2.3641,-2.3582,-2.3463,-2.3403,-2.3271,-2.3138,-2.3138,-2.2749,-2.241,-2.241,-2.2008,-2.1713,-2.1594,-2.068,-1.9885,-1.9922,-1.8987,-1.8471,-1.904,-1.8643,-1.8295,-1.8211,-1.8103,0.0,-1.8078,-1.7133,-1.6385,-1.5995,-1.5088,-1.4348,-1.3765,-1.3776,-1.3776,-1.3776,-1.3776,-1.3776,-1.3776,-1.4179,-1.4386,-1.4376,-1.2965,-1.2235,0.0,0.0,0.0,0.0,0.0,0.0,0.0,0.0,0.0,0.0,0.0,0.0,0.0,0.0,0.0,-2.2323,-2.3158,-2.3851,-2.4086,-2.4021,-2.4164,-2.4726,-2.4896,-2.5389,-2.6255,-2.6452,-2.6739,-2.7314,-2.7366,-2.7406,-2.7523,-2.7523,-2.7523,-2.7523,-2.7523,-2.7471,-2.7366,-2.6909,-2.6621,-2.6504,-2.6046,0.0,-2.5667,-2.5667,-2.5589,-2.5497,-2.5497,-2.5497,-2.5497,-2.5497,-2.5223,-2.4766,-2.4295,-2.4112,-2.4112,-2.4112,-2.4112,-2.4112,-2.4112,-2.4112,-2.4112,-2.4112,-2.4112,-2.4204,-2.4661,-2.4805,0.0,-2.4805,-2.4745,-2.458,-2.4007,-2.3832,-2.3713,-2.3463,-2.3403,-2.333,-2.333,-2.3255,-2.3179,-2.3179,-2.309,-2.2862,-2.2234,-2.1262,-2.0519,-2.0514,-1.993,-1.9527,-1.9656,-1.954,-1.9294,-1.8895,-1.8059,-1.7548,-1.7557,-1.6598,-1.6203,-1.6515,-1.5964,-1.534,-1.4728,-1.4728,-1.4728,-1.4728,-1.4728,-1.4728,-1.4728,-1.4821,-1.4863,-1.4863,-1.3652,-1.3334,0.0,0.0,0.0,0.0,0.0,0.0,0.0,0.0,0.0,0.0,0.0,-1.9989,-2.0552,0.0,-2.257,-2.3145,-2.3733,-2.4217,-2.4504,-2.4295,-2.4321,-2.4896,-2.5223,-2.5733,-2.6595,-2.6935,-2.7223,-2.751,-2.7523,-2.7523,-2.7523,-2.7523,-2.7523,-2.7523,-2.7523,-2.7523,-2.7523,-2.7249,-2.7105,-2.7105,-2.6804,-2.653,-2.6242,-2.6242,-2.6099,-2.5824,-2.5824,-2.5824,-2.5824,-2.5824,-2.5654,-2.5367,-2.5079,-2.4622,-2.4112,-2.4112,-2.4112,-2.4112,-2.4112,-2.4112,-2.4112,-2.4112,-2.4308,-2.4596,-2.4883,-2.5171,-2.5393,-2.5393,-2.5393,-2.5341,-2.4931,-2.4572,-2.4309,-2.4471,-2.4208,-2.393,-2.393,-2.393,-2.3841,-2.3454,-2.3463,-2.3361,-2.2905,-2.216,-2.1516,-2.1171,-2.0602,-2.0238,-2.0238,-1.9987,-1.9708,-1.9448,-1.8931,-1.8606,-1.8606,-1.741,-1.6661,-1.6639,-1.621,-1.5609,-1.4997,-1.531,-1.5299,-1.4997,-1.4997,-1.4997,-1.4997,-1.5235,-1.5339,-1.5349,-1.4668,-1.4194,0.0,0.0,0.0,0.0,0.0,0.0,0.0,0.0,-1.9587,-2.0163,-2.08,-2.1491,-2.2411,-2.2753,-2.321,-2.4138,-2.4374,-2.4609,-2.5066,-2.4739,-2.4661,-2.5236,-2.5602,-2.6099,-2.6778,-2.7262,-2.7523,-2.7523,-2.7523,-2.7523,-2.7523,-2.7523,-2.7523,-2.7523,-2.7523,-2.7523,-2.7523,-2.7523,-2.7523,-2.7523,-2.7523,-2.7288,-2.6844,-2.6844,-2.6595,-2.6151,-2.6151,-2.6151,-2.6151,-2.6033,-2.5981,-2.5968,-2.5876,-2.5262,-2.4452,-2.4452,-2.4452,-2.4452,-2.4452,-2.4452,-2.4452,-2.4452,-2.4766,-2.5158,-2.5262,-2.5628,-2.5981,-2.5981,-2.5981,-2.5968,-2.585,-2.5348,-2.5052,-2.5469,-2.5161,-2.469,-2.469,-2.46,-2.4381,-2.3764,-2.3646,-2.3569,-2.3463,-2.3022,-2.254,-2.1801,-2.1234,-2.0882,-2.0882,-2.0326,-1.9962,-1.9962,-1.977,-1.9592,-1.9488,-1.8398,-1.7416,-1.6746,-1.649,-1.6036,-1.5458,-1.5785,-1.5837,-1.5405,-1.5319,-1.5266,-1.5266,-1.5639,-1.5825,-1.5825,-1.5666,-1.5109,-1.7691,-1.82,-1.8768,-1.9308,-1.9501,-1.9998,0.0,0.0,-2.1391,-2.2005,-2.2558,-2.2972,-2.3119,-2.3981,-2.4726,-2.4857,-2.5301,-2.5654,-2.572,-2.5667,-2.5837,-2.6412,-2.6086,-2.6242,-2.7327,-2.7497,-2.7523,-2.7523,-2.7523,-2.7523,-2.7523,-2.7523,-2.7523,-2.7523,-2.7523,-2.7523,-2.7523,-2.7523,-2.7523,-2.7523,-2.7523,-2.7497,-2.7432,-2.7432,-2.7392,-2.734,-2.734,-2.734,-2.7301,-2.6791,-2.6582,-2.653,-2.602,-2.5746,-2.5628,-2.5628,-2.5628,-2.5628,-2.5628,-2.5628,-2.5628,-2.5628,-2.568,-2.5824,-2.6334,-2.653,-2.6582,-2.6582,-2.6582,-2.6465,-2.5955,-2.5709,-2.5683,-2.5623,-2.5534,-2.5482,-2.5482,-2.5068,-2.468,-2.4554,-2.4154,-2.3772,-2.3463,-2.3352,-2.3124,-2.2553,-2.187,-2.1393,-2.1393,-2.097,-2.0618,-2.0618,-1.9703,-1.8869,-1.8363,-1.8596,-1.8324,-1.7203,-1.7596,-1.7596,-1.6994,-1.6536,-1.6536,-1.6938,-1.6479,-1.6218,-1.6218,-1.628,-1.6301,-1.6301,-1.6296,-1.6228,-1.9729,-2.0025,-2.0094,-2.0639,-2.1296,-2.1918,-2.2286,-2.2702,-2.317,-2.3787,-2.4341,-2.4739,-2.4739,-2.5132,-2.5471,-2.5471,-2.5667,-2.5942,-2.6269,-2.6033,-2.6164,-2.7066,-2.6661,-2.6634,-2.7445,-2.7523,-2.7523,-2.7523,-2.7523,-2.7523,-2.7523,-2.7523,-2.7523,-2.7523,-2.785,-2.802,-2.802,-2.8373,-2.8373,-2.802,-2.802,-2.785,-2.7523,-2.7523,-2.7523,-2.7523,-2.7523,-2.7523,-2.751,-2.7275,-2.717,-2.7144,-2.6909,-2.6817,-2.6739,-2.6059,-2.5824,-2.5824,-2.5824,-2.5824,-2.5824,-2.5824,-2.6046,-2.636,-2.6595,-2.6909,-2.717,-2.717,-2.717,-2.7118,-2.687,-2.6569,-2.6399,-2.6674,-2.6505,-2.6257,-2.6257,-2.6061,-2.5621,-2.4822,-2.4632,-2.4339,-2.3765,-2.3713,-2.3623,-2.3392,-2.2636,-2.2154,-2.2154,-2.13,-2.055,-2.0044,-1.93,-1.8774,-1.854,-1.8155,-1.7754,-1.7257,-1.7424,-1.7324,-1.674,-1.6842,-1.6842,-1.674,-1.6534,-1.6384,-1.6384,-1.6384,-1.6384,-1.6384,-1.6643,-1.6767,-2.0526,-2.0753,-2.0847,-2.1561,-2.248,-2.3114,-2.2908,-2.3637,-2.4494,-2.4888,-2.5419,-2.5824,-2.5824,-2.5955,-2.6059,-2.6059,-2.619,-2.6438,-2.6844,-2.6556,-2.6608,-2.7432,-2.7157,-2.7079,-2.7484,-2.7523,-2.7589,-2.7758,-2.7771,-2.7837,-2.8007,-2.8007,-2.8007,-2.8007,-2.8412,-2.8634,-2.8634,-2.9065,-2.9065,-2.8634,-2.8634,-2.8412,-2.8007,-2.7837,-2.7771,-2.7758,-2.7589,-2.7523,-2.7523,-2.7523,-2.7523,-2.7523,-2.7523,-2.7523,-2.7432,-2.6595,-2.6295,-2.6295,-2.6295,-2.6295,-2.6295,-2.6295,-2.6569,-2.6909,-2.6909,-2.7196,-2.7523,-2.7523,-2.7523,-2.7523,-2.7523,-2.7223,-2.7013,-2.7432,-2.721,-2.6909,-2.6909,-2.6778,-2.6425,-2.5452,-2.511,-2.4831,-2.4248,-2.3994,-2.3891,-2.3891,-2.3354,-2.2923,-2.2852,-2.1918,-2.0925,-2.0158,-1.9402,-1.9011,-1.9011,-1.8146,-1.7492,-1.7331,-1.7492,-1.7388,-1.7027,-1.7226,-1.7226,-1.7027,-1.6863,-1.6757,-1.6757,-1.6757,-1.6757,-1.6767,-1.7077,-1.7234,0.0,-1.9898,-2.0955,-2.2085,-2.2819,-2.3379,-2.3917,-2.4562,-2.4957,-2.4988,-2.5419,-2.5824,-2.5824,-2.6282,-2.6648,-2.6648,-2.7118,-2.7484,-2.7497,-2.7484,-2.7497,-2.7523,-2.751,-2.751,-2.7523,-2.7523,-2.7758,-2.8307,-2.8347,-2.8608,-2.9196,-2.9222,-2.9222,-2.9222,-2.9248,-2.9248,-2.9248,-2.9274,-2.9274,-2.9248,-2.9248,-2.9248,-2.9209,-2.8621,-2.8347,-2.832,-2.7771,-2.7523,-2.7523,-2.7523,-2.7523,-2.7523,-2.7523,-2.7523,-2.7523,-2.7497,-2.7471,-2.7471,-2.7471,-2.7471,-2.7471,-2.7471,-2.7484,-2.751,-2.751,-2.751,-2.7523,-2.7523,-2.7523,-2.7523,-2.7523,-2.751,-2.751,-2.7523,-2.751,-2.751,-2.751,-2.7066,-2.6661,-2.6634,-2.572,-2.4962,-2.4728,-2.424,-2.3891,-2.3891,-2.3878,-2.3806,-2.3603,-2.2941,-2.2268,-2.1543,-2.0296,-1.9585,-1.9585,-1.8981,-1.833,-1.775,-1.8208,-1.855,-1.855,-1.7975,-1.7975,-1.849,-1.7975,-1.7688,-1.7688,-1.7688,-1.7688,-1.7688,-1.7647,-1.7936,-2.1495,-2.1893,-2.2101,-2.3211,-2.3961,-2.4434,-2.4645,-2.5436,-2.6138,-2.6099,-2.6255,-2.6386,-2.6386,-2.6543,-2.6674,-2.6674,-2.7157,-2.7523,-2.7523,-2.7523,-2.7523,-2.7523,-2.7523,-2.7523,-2.7523,-2.7523,-2.7771,-2.8333,-2.8386,-2.8634,-2.9248,-2.9274,-2.9274,-2.9274,-2.9653,-2.9849,-2.9849,-3.0228,-3.0228,-2.9849,-2.9457,-2.9274,-2.9274,-2.9065,-2.8974,-2.8961,-2.8778,-2.8686,-2.8686,-2.8686,-2.8451,-2.8098,-2.8098,-2.7863,-2.7523,-2.7523,-2.7523,-2.7523,-2.7523,-2.7523,-2.7523,-2.7523,-2.7523,-2.7523,-2.7523,-2.7523,-2.7523,-2.7523,-2.7523,-2.7523,-2.7523,-2.7523,-2.7523,-2.7523,-2.7523,-2.7523,-2.7523,-2.7379,-2.7131,-2.6752,-2.636,-2.5981,-2.5527,-2.4992,-2.4497,-2.4119,-2.3949,-2.3688,-2.316,-2.2817,-2.2284,-2.1499,-2.0745,-2.0113,-1.9493,-1.8951,-1.8423,-1.7729,-1.7904,-1.8017,-1.8017,-1.7791,-1.7791,-1.8027,-1.7791,-1.7668,-1.7668,-1.7668,-1.7668,-1.774,-1.803,-1.8237,-2.2569,-2.2737,-2.2707,-2.409,-2.4736,-2.5036,-2.5266,-2.6046,-2.6621,-2.6412,-2.6373,-2.6373,-2.6373,-2.6033,-2.5955,-2.6569,-2.6817,-2.7066,-2.7471,-2.7523,-2.7602,-2.7811,-2.7837,-2.7915,-2.8137,-2.815,-2.8307,-2.8673,-2.8895,-2.9261,-2.9862,-2.9889,-2.9889,-2.9889,-3.0241,-3.0438,-3.0438,-3.0803,-3.0803,-3.0438,-3.0059,-2.9889,-2.9876,-2.968,-2.9588,-2.9575,-2.9366,-2.9274,-2.9274,-2.9274,-2.9052,-2.8673,-2.8464,-2.815,-2.7811,-2.7602,-2.7523,-2.7523,-2.7523,-2.7667,-2.7798,-2.7589,-2.7667,-2.7798,-2.7589,-2.7523,-2.7523,-2.7523,-2.7523,-2.7523,-2.7523,-2.7523,-2.7523,-2.7523,-2.7523,-2.7523,-2.7523,-2.7523,-2.7419,-2.7053,-2.6817,-2.6556,-2.619,-2.5484,-2.4844,-2.4478,-2.4125,-2.3806,-2.328,-2.3113,-2.2871,-2.2261,-2.1457,-2.0827,-2.0494,-1.9705,-1.9054,-1.8575,-1.8585,-1.8459,-1.8206,-1.8206,-1.8206,-1.8206,-1.8206,-1.8206,-1.8206,-1.8206,-1.8206,-1.8216,-1.8495,-1.862,-2.2443,-2.2535,-2.2921,-2.4566,-2.5006,-2.5192,-2.5696,-2.6282,-2.6517,-2.5942,-2.5772,-2.572,-2.5694,-2.4857,-2.47,-2.6321,-2.6203,-2.6282,-2.7379,-2.7562,-2.7771,-2.8307,-2.8412,-2.8647,-2.9222,-2.9301,-2.9327,-2.9327,-2.9823,-3.0385,-3.096,-3.0986,-3.0986,-3.0986,-3.0986,-3.0986,-3.0986,-3.0986,-3.0986,-3.0986,-3.0986,-3.0986,-3.096,-3.0424,-3.0176,-3.015,-2.9601,-2.9366,-2.9366,-2.9366,-2.9353,-2.9261,-2.8686,-2.8451,-2.836,-2.7785,-2.7575,-2.7562,-2.7536,-2.7876,-2.8242,-2.7732,-2.7941,-2.8281,-2.7732,-2.7589,-2.7615,-2.7575,-2.7575,-2.7575,-2.7575,-2.7549,-2.7536,-2.7562,-2.7575,-2.7575,-2.7575,-2.7575,-2.7562,-2.7536,-2.7092,-2.6713,-2.6674,-2.5772,-2.5114,-2.5014,-2.4543,-2.4132,-2.3949,-2.3891,-2.3819,-2.3628,-2.2384,-2.1753,-2.231,-2.0985,-2.0161,-2.0107,-2.0096,-1.9781,-1.9208,-1.9142,-1.9075,-1.9075,-1.9075,-1.9075,-1.9075,-1.9075,-1.9075,-1.9075,-1.9075,-1.9075,-2.3038,-2.3773,-2.4425,-2.4913,-2.5621,-2.6308,-2.6425,-2.6569,-2.6517,-2.5942,-2.5145,-2.4413,-2.3968,-2.436,-2.4896,-2.5328,-2.6347,-2.7196,-2.7484,-2.7902,-2.8216,-2.836,-2.8778,-2.9104,-2.9261,-2.9666,-2.9915,-2.9915,-3.0045,-3.0385,-3.096,-3.0986,-3.0986,-3.0986,-3.0986,-3.0986,-3.0986,-3.0986,-3.0986,-3.0986,-3.0986,-3.0986,-3.0973,-3.083,-3.0764,-3.0764,-3.062,-3.0555,-3.0555,-3.0555,-3.0294,-2.9902,-2.9745,-2.9418,-2.8987,-2.8386,-2.8164,-2.8111,-2.768,-2.7628,-2.7798,-2.8072,-2.8255,-2.8347,-2.8203,-2.8477,-2.8739,-2.8294,-2.8164,-2.8164,-2.8164,-2.785,-2.7628,-2.8059,-2.8164,-2.8164,-2.8164,-2.8164,-2.8033,-2.7615,-2.7406,-2.7183,-2.6752,-2.6425,-2.6086,-2.5667,-2.5484,-2.5018,-2.4171,-2.4067,-2.3995,-2.3832,-2.3509,-2.2884,-2.1877,-2.1376,-2.088,-2.0366,-1.9715,-1.9518,-1.9846,-1.9396,-1.9075,-1.9075,-1.9075,-1.9075,-1.9075,-1.9075,-1.9075,-1.9075,-1.9075,-1.9075,-2.3925,-2.4531,-2.5113,-2.5613,-2.6219,-2.6608,-2.636,-2.6308,-2.5994,-2.4909,-2.404,-2.3306,-2.291,-2.3227,-2.39,-2.4865,-2.5785,-2.6752,-2.7758,-2.8177,-2.8569,-2.9091,-2.9444,-2.9758,-3.0006,-3.032,-3.0607,-3.0869,-3.0647,-3.0647,-3.096,-3.0986,-3.0986,-3.0986,-3.0986,-3.0986,-3.0986,-3.0986,-3.0986,-3.0986,-3.0986,-3.0986,-3.0986,-3.0986,-3.0986,-3.0986,-3.0986,-3.0986,-3.0986,-3.0986,-3.079,-3.049,-3.0228,-2.9941,-2.9549,-2.8699,-2.8386,-2.8294,-2.7732,-2.7523,-2.7628,-2.819,-2.8556,-2.8778,-2.8778,-2.9013,-2.9209,-2.8869,-2.8778,-2.8778,-2.8778,-2.8543,-2.8386,-2.8699,-2.8778,-2.8778,-2.8778,-2.8778,-2.8673,-2.836,-2.8085,-2.7798,-2.7484,-2.721,-2.6857,-2.6282,-2.5981,-2.5589,-2.4949,-2.4648,-2.4327,-2.4034,-2.3305,-2.2798,-2.2628,-2.1815,-2.1135,-2.088,-2.0302,-1.9911,-1.9649,-1.933,-1.9075,-1.9075,-1.9075,-1.9075,-1.9075,-1.9075,-1.9075,-1.9075,-1.9075,-1.9075,-2.4732,-2.4963,-2.5242,-2.6348,-2.6583,-2.6438,-2.5942,-2.5641,-2.5027,-2.3433,-2.2719,-2.2379,-2.2192,-2.201,-2.2497,-2.4564,-2.5048,-2.585,-2.8072,-2.8451,-2.8908,-3.0006,-3.0202,-3.0451,-3.0934,-3.0986,-3.1196,-3.1692,-3.1339,-3.113,-3.1209,-3.1209,-3.1182,-3.1104,-3.1026,-3.0986,-3.0986,-3.0986,-3.0986,-3.0986,-3.0986,-3.0986,-3.0986,-3.0986,-3.0986,-3.0986,-3.0986,-3.0986,-3.0986,-3.0986,-3.0986,-3.0934,-3.0438,-3.0255,-3.0111,-2.8935,-2.8503,-2.8399,-2.7758,-2.7523,-2.7628,-2.819,-2.8791,-2.9274,-2.9274,-2.9392,-2.9497,-2.9418,-2.9392,-2.9392,-2.9392,-2.934,-2.9301,-2.9379,-2.9392,-2.9392,-2.9392,-2.9327,-2.9274,-2.9274,-2.8856,-2.8464,-2.8399,-2.8033,-2.7536,-2.6883,-2.6438,-2.6112,-2.5955,-2.5367,-2.4779,-2.4282,-2.2884,-2.247,-2.3688,-2.2187,-2.125,-2.1451,-2.106,-2.0355,-1.9264,-1.9142,-1.9075,-1.9075,-1.9075,-1.9075,-1.9075,-1.9075,-1.9075,-1.9075,-1.9075,-1.9075,-2.4385,-2.4689,-2.513,-2.579,-2.5957,-2.5942,-2.5962,-2.4833,0.0,0.0,-2.1956,-2.1252,-2.1178,-2.1877,-2.2907,-2.4208,-2.5114,-2.6308,-2.8124,-2.8817,-2.9379,-3.0059,-3.0555,-3.0882,-3.0973,-3.0986,-3.1026,-3.1117,-3.1483,-3.1901,-3.2372,-3.2398,-3.2176,-3.1705,-3.1235,-3.0986,-3.0986,-3.0986,-3.0986,-3.0986,-3.0986,-3.0986,-3.0986,-3.0986,-3.0986,-3.0986,-3.0986,-3.0986,-3.0986,-3.0986,-3.0986,-3.0973,-3.0869,-3.083,-3.0699,-2.9549,-2.9118,-2.8974,-2.7902,-2.7523,-2.7628,-2.819,-2.8791,-2.9274,-2.9274,-2.9941,-3.0594,-3.0124,-2.9993,-2.9993,-2.9993,-2.964,-2.9392,-2.9876,-2.9993,-2.9993,-2.9993,-2.9614,-2.9274,-2.9274,-2.9196,-2.8961,-2.8464,-2.8712,-2.8608,-2.7536,-2.7693,-2.7589,-2.6648,-2.5615,-2.4996,-2.4831,-2.4136,-2.3543,-2.328,-2.2175,-2.1553,-2.1565,-2.0215,-1.9584,-1.9911,-1.9386,-1.9075,-1.9075,-1.9075,-1.9075,-1.9075,-1.9075,-1.9075,-1.9075,-1.9075,-1.9075,-2.4681,-2.4885,-2.5114,-2.5644,-2.5602,-2.5192,-2.4347,0.0,0.0,0.0,-2.0691,-2.0186,-2.0457,-2.0961,-2.1678,-2.2775,-2.3585,-2.4996,-2.7575,-2.819,-2.8922,-3.0398,-3.0817,-3.0986,-3.0986,-3.1261,-3.1561,-3.1849,-3.2411,-3.2607,-3.2267,-3.2241,-3.2123,-3.1772,-3.1287,-3.0986,-3.0986,-3.0986,-3.0986,-3.0986,-3.0986,-3.0986,-3.0986,-3.0986,-3.0986,-3.0986,-3.0986,-3.0986,-3.0986,-3.0986,-3.0986,-3.0986,-3.0986,-3.0986,-3.0843,-2.9706,-2.9274,-2.9118,-2.7941,-2.7523,-2.7628,-2.819,-2.8791,-2.9392,-2.998,-3.0555,-3.0934,-3.066,-3.0581,-3.0581,-3.0581,-3.0372,-3.0241,-3.0516,-3.0581,-3.0581,-3.0581,-3.0124,-2.981,-3.0111,-2.9928,-2.9627,-2.934,-2.9536,-2.9431,-2.8569,-2.8412,-2.8177,-2.7628,-2.6569,-2.569,-2.5088,-2.4339,-2.3803,-2.3628,-2.2616,-2.1865,-2.1616,-2.0666,-1.9977,-1.9584,-1.9264,-1.9075,-1.9075,-1.9075,-1.9075,-1.9075,-1.9075,-1.9075,-1.9075,-1.9075,-1.9075,-2.4936,-2.4939,-2.4953,-2.5511,-2.5105,-2.4262,-2.2865,-2.193,0.0,-2.0241,-1.9605,-1.9378,-1.992,-2.0027,-2.0407,0.0,-2.2194,-2.3677,-2.704,-2.7628,-2.8529,-3.0725,-3.1091,-3.1117,-3.0999,-3.1614,-3.211,-3.2306,-3.2986,-3.3104,-3.2424,-3.228,-3.2215,-3.2215,-3.1535,-3.1169,-3.1169,-3.1052,-3.0986,-3.0986,-3.0986,-3.0986,-3.0986,-3.0986,-3.0986,-3.0986,-3.0986,-3.0986,-3.0986,-3.0986,-3.0986,-3.0986,-3.0986,-3.0986,-3.0843,-2.9706,-2.9274,-2.9118,-2.7941,-2.7523,-2.7641,-2.8347,-2.8895,-2.947,-3.049,-3.0895,-3.0986,-3.0986,-3.0986,-3.0986,-3.0986,-3.0986,-3.0986,-3.0986,-3.0986,-3.0986,-3.0986,-3.0634,-3.0451,-3.0895,-3.062,-3.0281,-3.015,-3.0241,-3.0085,-2.9379,-2.8974,-2.8712,-2.8582,-2.768,-2.6648,-2.5628,-2.4604,-2.4073,-2.4275,-2.3175,-2.2298,-2.1865,-2.1239,-2.042,-1.933,-1.9208,-1.9075,-1.9075,-1.9075,-1.9075,-1.9075,-1.9075,-1.9075,-1.9075,-1.9075,-1.9075,-2.4398,-2.4379,-2.4471,-2.4957,-2.4204,-2.3253,-2.2776,0.0,-2.0106,-1.9651,-1.9179,-1.8949,-1.9319,-1.9471,-2.0067,-2.1632,0.0,-2.3734,-2.7157,-2.8035,-2.8961,-3.0777,-3.1444,-3.1561,-3.1039,-3.1967,-3.2202,-3.1222,-3.215,-3.3182,-3.411,-3.3692,-3.343,-3.343,-3.2346,-3.1771,-3.1771,-3.1248,-3.0986,-3.0986,-3.0986,-3.0986,-3.0986,-3.0986,-3.0986,-3.0986,-3.0986,-3.0986,-3.0986,-3.0986,-3.0986,-3.0986,-3.0986,-3.0986,-3.0843,-2.9706,-2.9274,-2.9118,-2.7941,-2.7523,-2.7719,-2.883,-2.9235,-2.9392,-3.0019,-3.0581,-3.0986,-3.0986,-3.0986,-3.0986,-3.0986,-3.0986,-3.0986,-3.0986,-3.0986,-3.0986,-3.0986,-3.0947,-3.0921,-3.0973,-3.0947,-3.0738,-3.0215,-3.0555,-3.0529,-2.9444,-2.968,-2.9784,-2.9261,-2.8621,-2.7981,-2.7353,-2.5827,-2.4875,-2.4896,-2.3558,-2.2701,-2.2531,-2.1152,-2.0279,-2.0042,-1.9386,-1.9075,-1.9075,-1.9075,-1.9075,-1.9075,-1.9075,-1.9075,-1.9075,-1.9075,-1.9075,-2.4184,-2.4767,-2.5335,-2.5169,-2.4189,-2.3221,-2.2803,-2.1153,-1.9812,-2.007,-1.9057,-1.8449,-1.9377,-1.9199,-1.9293,0.0,-2.0882,-2.2286,-2.5208,-2.6143,-2.7486,-3.0137,-3.0973,-3.1509,-3.1967,-3.2424,-3.2659,-3.2555,-3.3273,-3.3914,-3.4371,-3.3888,-3.3587,-3.3587,-3.279,-3.2346,-3.2346,-3.1784,-3.1496,-3.1496,-3.1143,-3.0986,-3.0986,-3.0986,-3.0986,-3.0986,-3.0986,-3.0986,-3.0986,-3.0986,-3.0986,-3.0986,-3.0986,-3.0986,-3.0843,-2.9706,-2.9274,-2.9118,-2.7941,-2.7523,-2.7719,-2.8895,-2.9274,-2.9444,-3.0372,-3.0803,-3.0986,-3.0986,-3.0986,-3.0986,-3.0986,-3.0986,-3.0986,-3.0986,-3.0986,-3.0986,-3.0986,-3.0986,-3.0986,-3.0986,-3.0986,-3.0908,-3.0686,-3.083,-3.083,-3.0372,-3.0215,-3.0045,-2.9823,-2.9287,-2.883,-2.8608,-2.7027,-2.5863,-2.5511,-2.4115,-2.3083,-2.2684,-2.1464,-2.042,-1.966,-1.9649,-1.9518,-1.9131,-1.9075,-1.9075,-1.9075,-1.9075,-1.9075,-1.9075,-1.9075,-1.922,-2.367,-2.445,-2.5062,-2.4525,-2.3696,-2.286,-2.2325,-2.093,-1.9863,-2.0197,-1.9206,-1.8555,-1.9479,-1.9246,-1.9051,0.0,-2.0395,-2.1723,-2.4315,-2.5448,-2.709,-2.9856,-3.0852,-3.1625,-3.2359,-3.2437,-3.2764,-3.3535,-3.3783,-3.3966,-3.4149,-3.3953,-3.3835,-3.3835,-3.326,-3.296,-3.296,-3.2385,-3.2006,-3.1836,-3.1431,-3.1143,-3.0986,-3.0986,-3.0986,-3.0986,-3.0986,-3.0986,-3.0986,-3.0986,-3.0986,-3.0986,-3.0986,-3.0986,-3.0843,-2.9706,-2.9274,-2.9118,-2.7941,-2.7523,-2.7719,-2.8895,-2.9274,-2.9497,-3.0634,-3.0986,-3.0986,-3.0986,-3.0986,-3.0986,-3.0986,-3.0986,-3.0986,-3.0986,-3.0986,-3.0986,-3.0986,-3.0986,-3.0986,-3.0986,-3.0986,-3.0986,-3.0986,-3.0986,-3.0986,-3.0986,-3.0647,-3.0385,-3.0385,-2.9889,-2.9536,-2.9536,-2.8281,-2.7144,-2.6335,-2.4925,-2.3853,-2.3213,-2.2103,-2.1081,-2.0237,-1.9966,-1.9649,-1.9396,-1.9198,-1.9137,-1.9282,-1.9406,-1.9406,-1.9349,-1.9696,-2.0058,-2.2782,-2.2954,-2.2871,-2.2665,-2.2342,-2.1892,-2.1115,-2.0646,-2.0267,-1.9777,-1.9686,-1.9628,-1.9526,-1.9512,-1.9701,-2.0294,-2.1225,-2.2764,-2.5258,-2.6996,-2.8651,-3.0204,-3.1431,-3.199,-3.1849,-3.1772,-3.2333,-3.3496,-3.3038,-3.2973,-3.3574,-3.411,-3.4384,-3.4384,-3.3862,-3.3587,-3.3587,-3.2986,-3.2398,-3.1759,-3.1759,-3.1535,-3.0986,-3.0986,-3.0986,-3.0986,-3.0986,-3.0986,-3.0986,-3.0986,-3.0986,-3.0986,-3.0986,-3.0986,-3.0843,-2.9706,-2.9274,-2.9118,-2.7941,-2.7523,-2.7719,-2.8895,-2.9274,-2.9497,-3.0634,-3.0986,-3.0986,-3.0986,-3.0986,-3.0986,-3.0986,-3.0986,-3.0986,-3.0986,-3.0986,-3.0986,-3.0986,-3.0986,-3.0986,-3.0986,-3.0986,-3.0986,-3.0986,-3.0986,-3.0986,-3.0986,-3.0973,-3.0973,-3.0973,-3.0477,-3.0124,-3.0124,-2.9601,-2.8708,-2.7413,-2.6194,-2.5163,-2.4438,-2.3023,-2.2261,-2.2384,-2.0279,-1.9396,-2.0107,-1.9452,-1.9292,-1.9827,-2.0193,-2.0182,-1.9858,-2.1145,-2.1776,-2.104,-2.2098,-2.2891,-2.2108,-2.1994,-2.2009,-2.1759,-2.1068,-2.0516,-2.0826,-2.0243,-1.9809,-2.0143,-2.0165,-2.0535,-2.1537,0.0,0.0,-2.5207,-2.6601,-2.7987,-2.9482,-3.1323,-3.2345,-3.1875,-3.2189,-3.2411,-3.2398,-3.296,-3.3391,-3.3587,-3.411,-3.4397,-3.4397,-3.4228,-3.4149,-3.4149,-3.3587,-3.3012,-3.2424,-3.2424,-3.2123,-3.1588,-3.1967,-3.194,-3.1575,-3.1575,-3.1352,-3.0986,-3.0986,-3.0986,-3.0986,-3.0986,-3.0751,-3.032,-2.9562,-2.9013,-2.8556,-2.7798,-2.7785,-2.8242,-2.9026,-2.9549,-3.0006,-3.0764,-3.0986,-3.0986,-3.0986,-3.0986,-3.0986,-3.0986,-3.0986,-3.0986,-3.0986,-3.0986,-3.0986,-3.0986,-3.0986,-3.0986,-3.0986,-3.0986,-3.0986,-3.0986,-3.0986,-3.0986,-3.0986,-3.0986,-3.0986,-3.0986,-3.083,-3.0725,-3.0725,-3.0202,-2.9562,-2.8721,-2.6702,-2.5338,-2.4883,-2.3682,-2.2457,-2.1294,-2.1396,-2.1136,-2.0333,-2.0438,-2.0545,-2.069,-2.0834,-2.0659,-2.0234,-2.0979,-2.1331,0.0,-2.0625,-2.1411,-2.0608,-2.0746,-2.0996,-2.0895,-2.0513,-2.0332,-2.0772,-2.0268,-1.9946,-2.0523,-2.0569,-2.0938,-2.2092,-2.2769,-2.369,-2.5234,-2.6364,-2.768,-2.9365,-3.12,-3.2228,-3.1798,-3.2163,-3.2215,-3.1798,-3.2515,-3.3025,-3.3247,-3.3783,-3.4188,-3.4384,-3.4397,-3.4397,-3.4397,-3.4071,-3.36,-3.3038,-3.3038,-3.2725,-3.2163,-3.2306,-3.2176,-3.1759,-3.1614,-3.1313,0.0,-3.0986,-3.0986,-3.0986,-3.0986,-3.0764,-3.0359,-2.9575,-2.9039,-2.8608,-2.7811,-2.7902,-2.8477,-2.9078,-2.981,-3.0516,-3.0882,-3.0986,-3.0986,-3.0986,-3.0986,-3.0986,-3.0986,-3.0986,-3.0986,-3.0986,-3.0986,-3.0986,-3.0986,-3.0986,-3.0986,-3.0986,-3.0986,-3.0986,-3.0986,-3.0986,-3.0986,-3.0986,-3.0986,-3.0986,-3.0986,-3.0986,-3.0986,-3.0986,-3.066,-3.0307,-2.9954,-2.8031,-2.6468,-2.5648,-2.4672,-2.3564,-2.251,-2.2335,-2.2133,-2.1776,-2.1513,-2.1455,-2.1631,-2.1455,-2.1414,-2.1455,-2.1217,-2.13,0.0,-1.8717,-1.8806,-1.8466,-1.8806,-1.9137,-1.8832,-1.9217,0.0,-1.9873,-1.9911,-2.0123,-2.0739,-2.0759,-2.1046,-2.2272,-2.2893,-2.3797,-2.5467,-2.644,-2.7755,-2.9732,-3.0958,-3.1694,-3.1707,-3.1707,-3.1707,-3.1707,-3.1823,-3.2071,-3.2607,-3.3247,-3.3822,-3.4332,-3.4384,-3.4397,-3.4397,-3.4397,-3.4123,-3.3587,-3.3626,-3.3339,-3.2738,-3.2202,-3.1889,-3.194,-3.1313,-3.1052,-3.1039,-3.0999,-3.0986,-3.0986,-3.0986,-3.096,-3.079,-2.968,-2.9248,-2.9052,-2.7928,-2.7928,-2.8556,-2.9196,-3.0124,-3.0986,-3.0986,-3.0986,-3.0986,-3.0986,-3.0986,-3.0986,-3.0986,-3.0986,-3.0986,-3.0986,-3.0986,-3.0986,-3.0986,-3.0986,-3.0986,-3.0986,-3.0986,-3.0986,-3.0986,-3.0986,-3.0986,-3.0986,-3.0986,-3.0986,-3.0986,-3.0986,-3.0986,-3.0986,-3.0986,-3.0986,-3.0986,-2.9775,-2.8308,-2.6711,-2.5934,-2.5415,-2.5349,-2.3216,-2.2703,-2.4004,-2.266,-2.2159,-2.2594,-2.2128,-2.2325,-2.3111,-2.1776,-2.1621,-1.6679,0.0,-1.7476,-1.731,-1.7682,-1.8158,0.0,-1.8824,-1.9328,0.0,0.0,-2.0516,-2.1156,-2.1215,-2.1911,-2.3987,-2.4869,-2.552,-2.6375,-2.7076,-2.8012,-2.9578,-3.0049,-3.0458,-3.1107,-3.1196,-3.1196,-3.1196,-3.1588,-3.1901,-3.2032,-3.3025,-3.3652,-3.3783,-3.4188,-3.4397,-3.4397,-3.4397,-3.4123,-3.36,-3.4018,-3.3914,-3.3378,-3.3247,-3.3182,-3.3117,-3.2097,-3.164,-3.1614,-3.1169,-3.0986,-3.0986,-3.0986,-3.0725,-3.0241,-2.9536,-2.8987,-2.849,-2.7771,-2.8203,-2.9235,-3.0255,-3.0764,-3.0986,-3.0986,-3.0986,-3.0986,-3.0986,-3.0986,-3.0986,-3.0986,-3.0986,-3.0986,-3.0986,-3.0986,-3.0986,-3.0986,-3.0986,-3.0986,-3.0986,-3.0986,-3.0986,-3.0986,-3.0986,-3.0986,-3.0986,-3.0986,-3.0986,-3.0986,-3.0986,-3.0986,-3.0986,-3.0986,-3.0986,-3.0986,-2.9935,-2.8912,-2.7989,-2.7575,-2.65,-2.4767,-2.4668,-2.4293,-2.3387,-2.3447,-2.3443,-2.3557,-2.3091,-2.2791,-2.2646,-2.1963,-2.1756,-1.6207,-1.6544,-1.7057,-1.6796,-1.7112,-1.7492,-1.7696,0.0,0.0,0.0,0.0,0.0,-2.0356,-2.101,-2.2032,-2.3899,-2.5043,-2.6153,-2.7396,-2.7607,-2.798,-2.9139,-2.9537,-2.9871,-3.0343,-3.0748,-3.0986,-3.0986,-3.1274,-3.1561,-3.1823,-3.2698,-3.33,-3.3587,-3.4123,-3.4397,-3.4397,-3.4397,-3.4254,-3.3966,-3.4254,-3.4241,-3.394,-3.3417,-3.3182,-3.3117,-3.1954,-3.1444,-3.1418,-3.1117,-3.0986,-3.0986,-3.0986,-3.079,-3.0424,-2.9588,-2.9065,-2.8673,-2.7824,-2.8294,-2.947,-3.062,-3.0986,-3.0986,-3.0986,-3.0986,-3.0986,-3.0986,-3.0986,-3.0986,-3.0986,-3.0986,-3.0986,-3.0986,-3.0986,-3.0986,-3.0986,-3.0986,-3.0986,-3.0986,-3.0986,-3.0986,-3.0986,-3.0986,-3.0986,-3.0986,-3.0986,-3.0986,-3.0986,-3.0986,-3.0986,-3.0986,-3.0986,-3.0986,-3.0986,-3.0495,-2.9808,-2.8882,-2.8704,-2.7783,-2.5939,-2.5847,-2.5227,-2.3805,-2.4053,-2.3981,-2.3557,-2.3308,-2.2842,-2.217,-2.1921,-2.1807,-1.6337,-1.6712,-1.699,-1.6626,-1.6764,-1.7041,-1.7086,0.0,0.0,0.0,0.0,0.0,0.0,-2.0694,0.0,-2.3219,-2.4517,-2.6154,-2.8257,-2.7773,-2.7513,-2.8342,-2.9057,-2.9537,-2.9704,-3.0508,-3.0986,-3.0986,-3.0986,-3.1196,-3.1679,-3.2254,-3.2842,-3.343,-3.3979,-3.4319,-3.4397,-3.4397,-3.4397,-3.4397,-3.4397,-3.4397,-3.4358,-3.3208,-3.279,-3.2881,-3.1561,-3.1091,-3.1235,-3.1052,-3.0986,-3.0986,-3.0986,-3.0986,-3.0843,-2.9706,-2.9274,-2.9144,-2.8137,-2.8503,-2.9588,-3.0647,-3.0986,-3.0986,-3.0986,-3.0986,-3.0986,-3.0986,-3.0986,-3.0986,-3.0986,-3.0986,-3.0986,-3.0986,-3.0986,-3.0986,-3.0986,-3.0986,-3.0986,-3.0986,-3.0986,-3.0986,-3.0986,-3.0986,-3.0986,-3.0986,-3.0986,-3.0986,-3.0986,-3.0986,-3.0986,-3.0986,-3.0986,-3.0986,-3.0986,-3.0986,-3.0583,-2.9691,-2.9614,-2.8978,-2.7545,-2.6565,-2.5589,-2.4625,-2.4467,-2.4064,-2.3369,-2.3153,-2.2677,-2.1911,-2.1838,-2.1807,-1.6502,-1.6788,-1.692,-1.6451,-1.6495,-1.6745,0.0,0.0,0.0,0.0,0.0,0.0,0.0,-2.1588,-2.2711,-2.4017,-2.4906,-2.6159,-2.839,-2.685,-2.606,-2.7267,-2.8119,-2.89,-2.9626,-3.0508,-3.0986,-3.0986,-3.0986,-3.1026,-3.1117,-3.1666,-3.2228,-3.2816,-3.3404,-3.3927,-3.4397,-3.4397,-3.4397,-3.4397,-3.4397,-3.4397,-3.4358,-3.3208,-3.3221,-3.4018,-3.1901,-3.1535,-3.2346,-3.1378,-3.0986,-3.0986,-3.0986,-3.0986,-3.0843,-2.9706,-2.9274,-2.9248,-2.9078,-2.9444,-3.0111,-3.0777,-3.0986,-3.0986,-3.0986,-3.0986,-3.0986,-3.0986,-3.0986,-3.0986,-3.0986,-3.0986,-3.0986,-3.0986,-3.0986,-3.0986,-3.0986,-3.0986,-3.0986,-3.0986,-3.0986,-3.0986,-3.0986,-3.0986,-3.0986,-3.0986,-3.0986,-3.0986,-3.0986,-3.0986,-3.0986,-3.0986,-3.0986,-3.0986,-3.0986,-3.0986,-3.0898,-3.0748,-3.0596,-2.9561,-2.7545,-2.6565,-2.5673,-2.4861,-2.4251,-2.3992,-2.4012,-2.3067,-2.2532,-2.2387,-2.1994,-2.1807,-1.6215,-1.6616,-1.6928,-1.6353,-1.6622,-1.7067,0.0,0.0,0.0,0.0,0.0,0.0,0.0,0.0,-2.3231,-2.4975,-2.5613,-2.6422,-2.8082,-2.6714,-2.6046,-2.7221,-2.7947,-2.8585,-2.8978,-3.019,-3.0823,-3.0343,-3.0735,-3.0823,-3.0343,-3.1279,-3.1967,-3.2215,-3.2803,-3.3221,-3.347,-3.347,-3.3639,-3.3966,-3.3966,-3.3796,-3.3456,-3.2934,-3.2816,-3.296,-3.1901,-3.1575,-3.1731,-3.1209,-3.0986,-3.0986,-3.0986,-3.079,-3.0424,-2.9588,-2.9065,-2.8882,-2.9523,-2.9915,-3.0228,-3.079,-3.0986,-3.0986,-3.0986,-3.0986,-3.0986,-3.0986,-3.0986,-3.0986,-3.0986,-3.0986,-3.0986,-3.0986,-3.0986,-3.0986,-3.0986,-3.0986,-3.0986,-3.0986,-3.0986,-3.0986,-3.0986,-3.0986,-3.0986,-3.0986,-3.0986,-3.0986,-3.0986,-3.0986,-3.0986,-3.0986,-3.0986,-3.0986,-3.0986,-3.0986,-3.0986,-3.0986,-3.0343,-2.9303,-2.7695,-2.6801,-2.571,-2.4514,-2.4315,-2.3958,-2.3444,-2.2935,-2.2444,-2.2118,-2.1901,-2.1807,-1.6025,-1.6442,-1.6803,-1.6492,0.0,-1.7231,-1.7886,0.0,0.0,0.0,0.0,0.0,0.0,-2.2055,-2.368,-2.5685,-2.6141,-2.6586,-2.7519,-2.6565,-2.6117,-2.7058,-2.7718,-2.8187,-2.8347,-2.9781,-3.0419,-2.9781,-3.0508,-3.0583,-2.9781,-3.092,-3.1705,-3.1759,-3.2111,-3.2397,-3.2685,-3.2527,-3.2748,-3.3378,-3.3378,-3.3143,-3.2685,-3.2555,-3.2319,-3.2019,-3.1757,-3.147,-3.1169,-3.1039,-3.0986,-3.0973,-3.083,-3.0438,-2.9876,-2.9444,-2.9065,-2.8922,-2.9823,-3.0215,-3.0411,-3.0843,-3.0986,-3.0986,-3.0986,-3.0986,-3.0986,-3.0986,-3.0986,-3.0986,-3.0986,-3.0986,-3.0986,-3.0986,-3.0986,-3.0986,-3.0986,-3.0986,-3.0986,-3.0986,-3.0986,-3.0986,-3.0986,-3.0869,-3.079,-3.079,-3.079,-3.079,-3.079,-3.0895,-3.0986,-3.0986,-3.0986,-3.0986,-3.0986,-3.0986,-3.0911,-3.0735,-2.9974,-2.9077,-2.7912,-2.6967,-2.578,-2.4365,-2.4143,-2.3689,-2.296,-2.2776,-2.238,-2.1883,-2.1807,-2.1807,-1.6438,-1.6408,-1.6409,-1.6916,0.0,0.0,-1.8368,-1.869,0.0,0.0,0.0,0.0,0.0,-2.2359,-2.3979,-2.5793,-2.6044,-2.6143,-2.6491,-2.5959,-2.5746,-2.5953,-2.6787,-2.7568,-2.8347,-2.9225,-2.9781,-2.9704,-3.0508,-3.0583,-2.9781,-3.0546,-3.13,-3.1746,-3.1083,-3.135,-3.2685,-3.1928,-3.1954,-3.2751,-3.2751,-3.2738,-3.2672,-3.215,-3.2176,-3.2568,-3.1509,-3.1326,-3.1731,-3.1209,-3.0986,-3.0934,-3.0398,-2.9849,-2.934,-2.9287,-2.9588,-3.0019,-3.0038,-3.049,-3.0934,-3.0973,-3.0986,-3.0986,-3.0986,-3.0986,-3.0986,-3.0986,-3.0986,-3.0986,-3.0986,-3.0986,-3.0986,-3.0986,-3.0986,-3.0986,-3.0986,-3.0986,-3.0986,-3.0986,-3.0986,-3.0986,-3.0986,-3.0555,-3.0189,-3.0189,-3.0189,-3.0189,-3.0189,-3.066,-3.0986,-3.0986,-3.0986,-3.0986,-3.0986,-3.0986,-3.0659,-2.9858,-2.9931,-2.9479,-2.8152,-2.6924,-2.5778,-2.4805,-2.3578,-2.3101,-2.3348,-2.2516,-2.2143,-2.2101,-2.1883,-2.1807,-1.593,-1.6408,-1.6895,-1.6589,0.0,0.0,0.0,0.0,0.0,-2.1213,-2.1551,0.0,0.0,-2.3465,-2.4622,-2.4994,-2.5088,-2.5301,-2.581,-2.5599,-2.5574,-2.6105,-2.7209,-2.8039,-2.8347,-2.9704,-3.0266,-2.9704,-3.0508,-3.0583,-2.9781,-3.0508,-3.1091,-3.13,-3.0509,-3.0287,-3.0815,-3.0489,-3.0489,-3.0815,-3.1747,-3.198,-3.164,-3.1771,-3.1771,-3.1627,-3.1548,-3.1431,-3.13,-3.1065,-3.0986,-3.0934,-3.0359,-2.9784,-2.9327,-2.968,-2.9954,-3.0176,-3.0542,-3.0803,-3.0986,-3.0986,-3.0986,-3.0986,-3.0986,-3.0986,-3.0986,-3.0986,-3.0986,-3.0986,-3.0986,-3.0986,-3.0986,-3.0986,-3.0986,-3.0986,-3.0986,-3.0986,-3.0986,-3.0986,-3.0986,-3.0869,-3.0516,-3.0281,-3.0019,-2.9653,-2.9601,-2.9732,-3.0098,-3.032,-3.0594,-3.0947,-3.0986,-3.0986,-3.0986,-3.0986,-3.0504,-2.9366,-2.9376,-2.8648,-2.6964,-2.6236,-2.5281,-2.3953,-2.352,-2.3197,-2.2972,-2.2638,-2.2327,-2.2101,-2.2025,-2.1959,-1.5454,-1.602,-1.6585,0.0,0.0,0.0,0.0,0.0,0.0,-2.1407,-2.1611,-2.1947,-2.3099,-2.4005,-2.4609,-2.4614,-2.4847,-2.517,-2.5787,-2.5757,-2.5916,-2.6531,-2.7427,-2.8108,-2.8347,-2.9459,-3.0024,-2.9704,-3.0508,-3.0583,-2.9781,-3.0508,-3.0986,-3.0986,-3.0177,-2.9704,-2.9704,-2.9704,-2.9549,-2.9303,-3.0573,-3.1124,-3.0999,-3.1392,-3.12,-3.0609,-3.0996,-3.0778,-3.0177,-3.0177,-3.0075,-2.9871,-2.9619,-2.9344,-2.9202,-2.9835,-3.0255,-3.0451,-3.0856,-3.0986,-3.0986,-3.0986,-3.0986,-3.0986,-3.0986,-3.0986,-3.0986,-3.0986,-3.0986,-3.0986,-3.0986,-3.0986,-3.0986,-3.0986,-3.0986,-3.0986,-3.0986,-3.0986,-3.0986,-3.0986,-3.0843,-3.066,-3.0438,-2.9954,-2.951,-2.9314,-2.9118,-2.9209,-2.9797,-3.0019,-3.0346,-3.0934,-3.0748,-3.0659,-3.0986,-3.0566,-2.9819,-2.8662,-2.8238,-2.7578,-2.6375,-2.552,-2.4717,-2.3875,-2.3569,-2.3178,-2.2777,-2.2703,-2.2553,-2.2327,-2.2252,-2.2111,-1.5015,-1.5108,-1.5279,0.0,0.0,0.0,0.0,0.0,0.0,-2.1931,-2.1942,-2.2158,-2.3792,-2.3729,-2.3729,-2.4751,-2.5483,-2.6048,-2.6389,-2.6653,-2.6966,-2.7128,-2.7174,-2.7487,-2.8347,-2.8426,-2.8743,-2.9626,-3.0508,-3.0583,-2.9781,-3.0508,-3.0986,-3.0986,-3.0177,-2.9704,-2.9704,-2.9704,-2.9225,-2.8426,-2.9303,-3.0101,-3.0986,-3.0986,-3.0508,-2.9704,-2.9704,-2.9225,-2.8426,-2.8426,-2.8114,-2.7661,-2.7977,-2.8386,-2.8925,-2.9744,-3.0503,-3.0986,-3.0986,-3.0986,-3.0986,-3.0986,-3.0986,-3.0986,-3.0986,-3.0986,-3.0986,-3.0986,-3.0986,-3.0986,-3.0986,-3.0986,-3.0986,-3.0986,-3.0986,-3.0986,-3.0986,-3.0986,-3.0973,-3.0986,-3.0516,-3.0307,-3.0869,-2.9536,-2.8582,-2.917,-2.8765,-2.8595,-2.9209,-2.9784,-3.0359,-3.0921,-3.0177,-3.0012,-3.0885,-2.9629,-2.8449,-2.7686,-2.6697,-2.6298,-2.6851,-2.4881,-2.4141,-2.49,-2.3455,-2.2777,-2.3001,-2.2777,-2.2703,-2.2703,-2.2478,-2.2327,-1.4892,-1.5353,0.0,0.0,0.0,0.0,0.0,0.0,0.0,0.0,-2.3089,-2.3489,-2.399,-2.4447,-2.4791,-2.4883,-2.4738,-2.4788,-2.5256,-2.5449,-2.5611,-2.6048,-2.6889,-2.7703,-2.8311,-2.8978,-2.9704,-3.0583,-3.0823,-3.0911,-3.0659,-3.0823,-3.0986,-3.0986,-3.0177,-2.9381,-2.8821,-2.8821,-2.8347,-2.758,-2.8347,-2.9225,-3.0024,-2.9459,-2.9381,-2.9704,-2.9057,-2.8664,-2.8426,-2.8426,-2.8114,-2.7657,-2.8106,-2.8519,-2.8888,-2.9543,-3.0277,-3.0986,-3.0986,-3.0986,-3.0986,-3.0986,-3.0986,-3.0986,-3.0986,-3.0986,-3.0986,-3.0986,-3.0986,-3.0986,-3.0986,-3.0986,-3.0986,-3.0986,-3.0986,-3.0986,-3.0986,-3.0673,-3.0503,-3.0908,-3.0202,-2.9588,-2.9758,-2.9,-2.8307,-2.8085,-2.8242,-2.8739,-2.9758,-2.9828,-2.9934,-3.0338,-2.9578,-2.9026,-2.8956,-2.8545,-2.7594,-2.589,-2.5499,-2.5108,-2.4675,-2.3768,-2.3353,-2.3583,-2.3141,-2.2927,-2.3001,-2.2927,-2.2852,-2.2703,-2.2628,-2.2478,-1.4887,0.0,0.0,-1.6841,-1.7562,-1.8359,-1.9692,0.0,0.0,0.0,-2.3205,-2.3614,-2.4457,-2.4838,-2.5087,-2.5304,-2.4903,-2.4748,-2.5182,-2.5326,-2.5459,-2.5612,-2.6783,-2.7765,-2.8077,-2.8778,-2.9704,-3.0911,-3.0986,-3.0986,-3.0986,-3.0986,-3.0986,-3.0986,-3.0508,-2.9781,-2.89,-2.89,-2.8359,-2.7185,-2.773,-2.8199,-2.8676,-2.8505,-2.8505,-2.8676,-2.7799,-2.7395,-2.7383,-2.7186,-2.7035,-2.6954,-2.7434,-2.7806,-2.8293,-2.9334,-2.9781,-3.0024,-3.0343,-3.0508,-3.0508,-3.0508,-3.0748,-3.0986,-3.0986,-3.0986,-3.0986,-3.0986,-3.0986,-3.0986,-3.0986,-3.0986,-3.0986,-3.0986,-3.0986,-3.0986,-3.0986,-3.0712,-3.0581,-3.0921,-3.0059,-2.9353,-2.9575,-2.8739,-2.8007,-2.7889,-2.836,-2.9,-2.9706,-2.9576,-2.9568,-3.0017,-2.8836,-2.8027,-2.8084,-2.7555,-2.6627,-2.5073,-2.4779,-2.4306,-2.3438,-2.3154,-2.3139,-2.3423,-2.3139,-2.3001,-2.3001,-2.3001,-2.2927,-2.2852,-2.2852,-2.2703,-1.4902,0.0,0.0,-1.7529,-1.8108,0.0,-2.0522,-2.121,-2.1789,-2.2739,-2.2608,-2.2878,-2.4933,-2.4972,-2.496,-2.5769,-2.5612,-2.5349,-2.5546,-2.5855,-2.5958,-2.575,-2.6753,-2.7524,-2.7775,-2.8144,-2.9086,-3.0898,-3.0986,-3.0986,-3.0986,-3.0986,-3.0986,-3.0986,-3.0986,-3.0583,-2.9704,-2.9704,-2.8912,-2.7336,-2.7267,-2.7185,-2.7185,-2.7879,-2.7799,-2.7021,-2.6218,-2.5895,-2.5874,-2.5426,-2.5502,-2.5935,-2.6255,-2.6668,-2.7418,-2.8912,-2.8991,-2.8505,-2.9303,-2.9537,-2.9537,-2.9537,-3.0177,-3.0898,-3.0898,-3.0911,-3.0986,-3.0986,-3.0986,-3.0986,-3.0986,-3.0986,-3.0986,-3.0986,-3.0986,-3.0986,-3.0986,-3.0947,-3.0921,-3.0973,-3.0019,-2.9379,-2.9954,-2.8647,-2.7745,-2.836,-2.8974,-2.9353,-2.9353,-2.9103,-2.9149,-2.9907,-2.8076,-2.7089,-2.7763,-2.6639,-2.5633,-2.4906,-2.4311,-2.3694,-2.3001,-2.3001,-2.335,-2.3975,-2.3394,-2.3045,-2.3001,-2.3045,-2.3045,-2.3001,-2.3001,-2.2927,0.0,-1.5389,0.0,0.0,-1.8851,-1.9888,-2.0686,-2.1005,-2.1297,-2.2258,-2.239,-2.2878,-2.4933,-2.5216,-2.5216,-2.5432,-2.5384,-2.5088,-2.4492,-2.5026,-2.5589,-2.5884,-2.6187,-2.6942,-2.845,-2.8114,-2.8756,-3.0872,-3.0986,-3.0986,-3.0986,-3.0986,-3.0986,-3.0986,-3.0986,-3.0583,-2.9704,-2.9704,-2.9147,-2.8108,-2.7499,-2.7185,-2.7185,-2.6704,-2.6373,-2.6135,-2.5979,-2.5895,-2.5895,-2.5786,-2.5808,-2.5895,-2.5942,-2.6521,-2.7267,-2.758,-2.8039,-2.8426,-2.8585,-2.8664,-2.8664,-2.8664,-2.9303,-2.9947,-2.9947,-3.0432,-3.0986,-3.0986,-3.0986,-3.0986,-3.0986,-3.0986,-3.0986,-3.0986,-3.0986,-3.0986,-3.0986,-3.0634,-3.0451,-3.0895,-2.968,-2.8765,-2.9366,-2.8386,-2.7889,-2.8922,-2.9588,-2.9954,-2.9954,-2.88,-2.8151,-2.8703,-2.7254,-2.6142,-2.5887,-2.5612,-2.4895,-2.3516,-2.3342,-2.3139,-2.3001,-2.3001,-2.3065,-2.3213,-2.3448,-2.3383,-2.3001,-2.3383,-2.3372,-2.3001,-2.3001,-2.3001,0.0,0.0,0.0,-1.7912,0.0,-2.014,-2.0456,-2.0522,-2.0729,-2.1472,-2.207,-2.2933,-2.461,-2.5192,-2.5335,-2.5334,-2.5594,-2.5429,-2.4253,-2.5134,-2.5761,-2.5673,-2.5841,-2.6566,-2.7936,-2.7642,-2.8186,-3.0381,-3.0581,-3.0699,-3.096,-3.0986,-3.0986,-3.0986,-3.0986,-3.0748,-3.0343,-2.9947,-2.9459,-2.8978,-2.8199,-2.7568,-2.7185,-2.6302,-2.5895,-2.5895,-2.5895,-2.5895,-2.5895,-2.5895,-2.5895,-2.5895,-2.5895,-2.6146,-2.6622,-2.7021,-2.7174,-2.7244,-2.7637,-2.781,-2.781,-2.781,-2.8676,-2.9704,-2.9704,-3.0343,-3.0986,-3.0986,-3.0986,-3.0986,-3.0986,-3.0986,-3.0986,-3.0986,-3.0986,-3.0986,-3.0986,-3.0751,-3.062,-3.0934,-3.0032,-2.9235,-2.9274,-2.8529,-2.8137,-2.8752,-2.9353,-2.9732,-2.9732,-2.81,-2.7177,-2.78,-2.6569,-2.5445,-2.4802,-2.5087,-2.4659,-2.3075,-2.3001,-2.3001,-2.3001,-2.3001,-2.3001,-2.3001,-2.3252,-2.3252,-2.3001,-2.3263,-2.3252,-2.3001,-2.3001,-2.3001,0.0,0.0,0.0,-1.825,-1.9353,0.0,-2.0064,-2.0085,-2.026,-2.0653,-2.1576,-2.273,-2.4198,-2.4823,-2.5197,-2.5141,-2.5783,-2.5807,-2.4469,-2.5487,-2.6139,-2.5594,-2.5744,-2.625,-2.7218,-2.6993,-2.7631,-2.9796,-3.0072,-3.0346,-3.0817,-3.0934,-3.0986,-3.0986,-3.0986,-3.0986,-3.0986,-3.0266,-2.9947,-2.9947,-2.9069,-2.8119,-2.7185,-2.6456,-2.6063,-2.5895,-2.5895,-2.5895,-2.5895,-2.5895,-2.5895,-2.5895,-2.5895,-2.5895,-2.5979,-2.6704,-2.6539,-2.5979,-2.6704,-2.694,-2.694,-2.694,-2.8051,-2.9303,-2.9459,-3.0101,-3.0823,-3.0986,-3.0986,-3.0986,-3.0986,-3.0986,-3.0986,-3.0986,-3.0986,-3.0986,-3.0986,-3.0986,-3.0986,-3.0986,-3.0451,-2.9764,-2.921,-2.8786,-2.8529,-2.8529,-2.9039,-2.9353,-2.9157,-2.7363,-2.6383,-2.7105,-2.6061,-2.4933,-2.4192,-2.4862,-2.4659,-2.3075,-2.3001,-2.3001,-2.3001,-2.3001,-2.3001,-2.3001,-2.3088,-2.3088,-2.3001,-2.3088,-2.3078,-2.3001,-2.3001,-2.3001,0.0,0.0,-1.7344,0.0,-1.9102,-1.9626,0.0,0.0,-2.0096,-2.0162,-2.0687,-2.1688,-2.3501,-2.3917,-2.4099,-2.4438,-2.5136,-2.55,-2.5157,-2.5861,-2.6346,-2.6277,-2.5712,-2.5873,-2.7193,-2.6637,-2.7125,-2.9269,-2.9849,-3.0176,-3.0255,-3.0725,-3.0986,-3.0986,-3.0986,-3.0986,-3.0986,-3.0898,-3.0823,-3.0823,-2.9935,-2.8676,-2.7185,-2.7103,-2.6622,-2.5895,-2.5895,-2.5895,-2.5895,-2.5895,-2.5895,-2.5895,-2.5895,-2.5895,-2.5895,-2.6063,-2.5979,-2.5906,-2.6063,-2.6063,-2.6063,-2.6063,-2.6704,-2.7649,-2.8347,-2.9147,-3.0024,-3.0823,-3.0986,-3.0986,-3.0986,-3.0986,-3.0986,-3.0986,-3.0986,-3.0986,-3.0986,-3.0986,-3.0986,-3.0986,-3.0124,-2.9139,-2.8303,-2.8756,-2.9157,-2.9157,-2.9653,-2.9653,-2.8634,-2.7114,-2.6237,-2.6509,-2.577,-2.4933,-2.4192,-2.4862,-2.4659,-2.3075,-2.3001,-2.3001,-2.3001,-2.3001,-2.3001,-2.3001,-2.3416,-2.3427,-2.3001,-2.3427,-2.3416,-2.3001,-2.3001,-2.3001,-1.4908,-1.5957,-1.7016,0.0,-1.8665,-1.9473,-1.9692,-1.9878,-2.0085,-2.0085,-2.0314,-2.0919,-2.243,-2.306,-2.3401,-2.3814,-2.4482,-2.5098,-2.5298,-2.5931,-2.6414,-2.6414,-2.5721,-2.5679,-2.6684,-2.6135,-2.6498,-2.8656,-2.9,-2.9301,-2.964,-2.9889,-3.0032,-3.0032,-3.0032,-3.0032,-3.0032,-3.0346,-3.0673,-3.0986,-3.0101,-2.9303,-2.8597,-2.8119,-2.7174,-2.5895,-2.5895,-2.5895,-2.5895,-2.5895,-2.5895,-2.5895,-2.5895,-2.5895,-2.5895,-2.5895,-2.5895,-2.5895,-2.5895,-2.5895,-2.5895,-2.5895,-2.6467,-2.7255,-2.7649,-2.8676,-2.9781,-3.0177,-3.0583,-3.0986,-3.0986,-3.0986,-3.0986,-3.0986,-3.0986,-3.0986,-3.0986,-3.0986,-3.0986,-3.0986,-3.0059,-2.9203,-2.8821,-2.8776,-2.8778,-2.8778,-2.8987,-2.8974,-2.8451,-2.6814,-2.5825,-2.6371,-2.5721,-2.4933,-2.4192,-2.4862,-2.4659,-2.3075,-2.3001,-2.3001,-2.3001,-2.3001,-2.3001,-2.3001,-2.3209,-2.322,-2.3001,-2.322,-2.3209,-2.3001,-2.3001,-2.3001,0.0,0.0,-1.6306,-1.6929,-1.7988,-1.8971,0.0,-1.9703,-1.9933,-2.0053,-2.0085,-2.038,-2.1368,-2.2087,-2.2639,-2.2926,-2.3798,-2.4562,-2.5035,-2.5706,-2.6139,-2.6139,-2.5429,-2.5288,-2.607,-2.5581,-2.6103,-2.8056,-2.8294,-2.8582,-2.9026,-2.9196,-2.9274,-2.9274,-2.9274,-2.9274,-2.9274,-2.9849,-3.0424,-3.0986,-3.0343,-2.9947,-2.9704,-2.9069,-2.7799,-2.6218,-2.6218,-2.6218,-2.6218,-2.5979,-2.5895,-2.5895,-2.5895,-2.5895,-2.5895,-2.5895,-2.5895,-2.5895,-2.5895,-2.5895,-2.5895,-2.5895,-2.6302,-2.694,-2.7103,-2.8051,-2.9147,-2.9549,-3.0024,-3.0393,-3.0729,-3.0719,-3.0709,-3.0729,-3.0882,-3.0986,-3.0986,-3.0869,-3.069,-3.0213,-2.9606,-2.9021,-2.8723,-2.8555,-2.8386,-2.8386,-2.8386,-2.8252,-2.7971,-2.6387,-2.5523,-2.607,-2.5652,-2.4933,-2.4192,-2.4862,-2.4659,-2.3075,-2.3001,-2.3001,-2.3001,-2.3001,-2.3001,-2.3001,-2.3001,-2.3001,-2.3001,-2.3121,-2.3121,-2.3001,-2.3001,-2.3001,0.0,-1.4788,0.0,-1.6328,-1.6983,-1.7748,-1.9113,-1.9441,-1.9594,-1.9987,-2.0085,-2.0085,-2.0172,-2.0733,-2.133,-2.1781,-2.2928,-2.3984,-2.4538,-2.5057,-2.5382,-2.5382,-2.4636,-2.4492,-2.53,-2.5312,-2.5943,-2.7429,-2.8072,-2.8399,-2.8425,-2.8961,-2.9274,-2.9274,-2.9274,-2.9274,-2.9274,-2.9849,-3.0424,-3.0986,-3.0986,-3.0495,-2.9704,-2.9626,-2.8755,-2.7103,-2.7103,-2.7103,-2.7103,-2.6218,-2.5895,-2.5895,-2.5895,-2.5895,-2.5895,-2.5895,-2.5895,-2.5895,-2.5895,-2.5895,-2.5895,-2.5895,-2.5895,-2.6146,-2.694,-2.7255,-2.7649,-2.9225,-2.9147,-2.879,-2.9851,-2.9945,-2.9808,-3.0073,-3.0594,-3.0986,-3.0986,-3.0555,-2.9709,-2.8142,-2.8167,-2.8164,-2.7163,-2.7822,-2.8386,-2.8386,-2.8386,-2.7971,-2.6665,-2.5816,-2.5312,-2.5382,-2.5312,-2.4933,-2.4192,-2.4862,-2.4659,-2.3075,-2.3001,-2.3001,-2.3001,-2.3001,-2.3001,-2.3001,-2.3001,-2.3001,-2.3001,-2.3471,-2.3449,-2.3001,-2.3001,-2.3001,0.0,0.0,0.0,-1.5531,-1.6459,-1.7409,-1.7923,-1.8512,-1.9091,-1.9572,-1.9681,-1.9715,-2.002,-2.0335,-2.0608,-2.1152,-2.1576,-2.2376,-2.363,-2.398,-2.4202,-2.4517,-2.4707,-2.5004,-2.5241,-2.5721,-2.6414,-2.739,-2.7719,-2.7837,-2.7837,-2.8046,-2.815,-2.815,-2.815,-2.8333,-2.8699,-2.8908,-2.9301,-2.9902,-3.0268,-3.0277,-2.998,-3.034,-2.9758,-2.8309,-2.7765,-2.6908,-2.5906,-2.559,-2.5262,-2.5022,-2.5317,-2.5426,-2.5426,-2.5426,-2.5633,-2.5852,-2.5546,-2.5633,-2.5895,-2.5895,-2.5895,-2.599,-2.6302,-2.6787,-2.7348,-2.7891,-2.804,-2.8171,-2.9063,-2.9239,-2.9517,-3.0485,-3.083,-3.0882,-3.0516,-3.0568,-3.0245,-2.8775,-2.8797,-2.8601,-2.7341,-2.75,-2.7837,-2.7837,-2.7837,-2.7624,-2.7134,-2.607,-2.5652,-2.6633,-2.5861,-2.5158,-2.4862,-2.5158,-2.4862,-2.3768,-2.3694,-2.3694,-2.3694,-2.3694,-2.3486,-2.3001,-2.3307,-2.3307,-2.3001,-2.3176,-2.3176,-2.3001,-2.3001,-2.3001,-1.3554,0.0,0.0,0.0,-1.5836,-1.6634,-1.695,-1.7639,-1.8348,-1.884,-1.9069,-1.9321,-1.9812,-1.9835,-2.0063,-2.0544,-2.0751,-2.1407,-2.272,-2.2833,-2.3047,-2.375,-2.4116,-2.4554,-2.5217,-2.5721,-2.6414,-2.7456,-2.7523,-2.7523,-2.7523,-2.7523,-2.7523,-2.7523,-2.7523,-2.7798,-2.8373,-2.8386,-2.8686,-2.9287,-2.9666,-2.9849,-2.9862,-2.9995,-2.9412,-2.8225,-2.738,-2.6387,-2.5325,-2.5095,-2.476,-2.4519,-2.4825,-2.4945,-2.4945,-2.4945,-2.5142,-2.5382,-2.5054,-2.5153,-2.5426,-2.5426,-2.5426,-2.5426,-2.5426,-2.5813,-2.637,-2.66,-2.6653,-2.6872,-2.7978,-2.8543,-2.9061,-3.0194,-3.0411,-3.0307,-2.9928,-3.015,-2.9921,-2.8349,-2.84,-2.8278,-2.6889,-2.7079,-2.7523,-2.7523,-2.7523,-2.7323,-2.6837,-2.5931,-2.5652,-2.6633,-2.5861,-2.5312,-2.5312,-2.5312,-2.4933,-2.412,-2.4108,-2.4108,-2.4108,-2.4108,-2.3768,-2.3001,-2.3318,-2.3329,-2.3001,-2.3165,-2.3154,-2.3001,-2.3001,-2.2927,0.0,0.0,0.0,0.0,-1.5094,-1.5345,-1.6262,-1.6874,-1.7376,-1.7879,-1.8338,-1.8807,-1.931,-1.9397,-1.9561,-1.9976,-2.0522,-2.1163,-2.187,-2.1721,-2.2015,-2.3199,-2.2722,-2.3127,-2.504,-2.5312,-2.5931,-2.739,-2.7456,-2.7523,-2.7523,-2.7523,-2.7523,-2.7523,-2.7523,-2.7798,-2.8347,-2.8347,-2.8647,-2.9222,-2.9248,-2.9248,-2.9248,-2.8435,-2.768,-2.6863,-2.603,-2.5635,-2.5547,-2.4758,-2.4454,-2.4454,-2.4465,-2.4465,-2.4465,-2.4465,-2.4476,-2.4486,-2.4476,-2.4476,-2.4486,-2.4486,-2.4486,-2.4486,-2.4486,-2.4486,-2.4634,-2.5449,-2.515,-2.4959,-2.6795,-2.7875,-2.8529,-2.9144,-2.9274,-2.9274,-2.9261,-2.9248,-2.8627,-2.6517,-2.6861,-2.7066,-2.5581,-2.6564,-2.7523,-2.7523,-2.7523,-2.6973,-2.5511,-2.53,-2.53,-2.53,-2.53,-2.53,-2.53,-2.53,-2.5004,-2.4192,-2.4192,-2.4192,-2.412,-2.412,-2.3768,-2.3001,-2.3001,-2.3001,-2.3001,-2.3482,-2.3471,-2.3001,-2.3001,-2.2703,-1.3064,0.0,0.0,0.0,0.0,0.0,-1.5432,-1.588,-1.647,-1.7311,-1.7584,-1.7912,-1.8742,-1.8884,-1.9058,-1.9539,-2.003,-2.0533,-2.113,-2.1173,-2.1432,-2.249,-2.2925,-2.3461,-2.4362,-2.5417,-2.6277,-2.6701,-2.7188,-2.7523,-2.7523,-2.7523,-2.7523,-2.7523,-2.7523,-2.7602,-2.7771,-2.7771,-2.785,-2.802,-2.8438,-2.8634,-2.8647,-2.8244,-2.7457,-2.6286,-2.5546,-2.4612,-2.3793,-2.3864,-2.3733,-2.3449,-2.3798,-2.394,-2.394,-2.394,-2.417,-2.4432,-2.4071,-2.4181,-2.4486,-2.4486,-2.4486,-2.4486,-2.4486,-2.4486,-2.4566,-2.4791,-2.4825,-2.5171,-2.684,-2.7875,-2.8529,-2.9144,-2.9274,-2.9157,-2.8726,-2.8634,-2.8291,-2.7185,-2.7175,-2.7101,-2.6213,-2.6905,-2.7523,-2.7523,-2.7523,-2.7188,-2.6208,-2.607,-2.607,-2.607,-2.607,-2.607,-2.607,-2.607,-2.5988,-2.5767,-2.5767,-2.5487,-2.5004,-2.4933,-2.436,-2.3001,-2.3001,-2.3001,-2.3001,-2.3132,-2.3132,-2.3001,-2.3001,-2.2703,-1.3205,-1.3805,-1.4373,-1.4373,0.0,0.0,-1.4799,-1.5181,-1.5684,-1.6262,-1.6535,-1.6907,-1.7649,-1.7955,-1.8261,-1.8753,-1.9233,-1.9779,-2.0467,-2.0566,-2.085,-2.1614,-2.2288,-2.2931,-2.3693,-2.4779,-2.5557,-2.5931,-2.6405,-2.6814,-2.717,-2.717,-2.7288,-2.7523,-2.7523,-2.7523,-2.7523,-2.7523,-2.7523,-2.7523,-2.7863,-2.802,-2.8033,-2.7583,-2.6825,-2.5745,-2.4935,-2.3976,-2.3023,-2.3307,-2.3263,-2.3023,-2.3307,-2.3427,-2.3427,-2.3427,-2.3613,-2.382,-2.3525,-2.3613,-2.3864,-2.3864,-2.3864,-2.3864,-2.3864,-2.4084,-2.4303,-2.4303,-2.4895,-2.5745,-2.6681,-2.746,-2.8111,-2.8464,-2.8556,-2.8451,-2.8098,-2.7803,-2.746,-2.7031,-2.717,-2.7151,-2.6546,-2.704,-2.7523,-2.7523,-2.7523,-2.7108,-2.6082,-2.6208,-2.6277,-2.6,-2.6208,-2.6414,-2.6414,-2.6414,-2.6414,-2.6414,-2.6414,-2.6208,-2.5791,-2.5791,-2.5004,-2.3486,-2.3486,-2.3276,-2.2852,-2.2927,-2.2927,-2.2852,-2.2852,-2.2703,-1.3651,-1.4023,0.0,-1.4373,-1.4417,0.0,-1.4395,-1.4755,-1.5105,-1.5105,-1.5454,-1.5891,-1.6361,-1.6809,-1.7278,-1.777,-1.8228,-1.8873,-1.9781,-1.9922,-2.0183,-2.0718,-2.1166,-2.1904,-2.306,-2.3635,-2.4246,-2.4991,-2.5277,-2.5775,-2.6661,-2.6621,-2.6844,-2.7419,-2.7432,-2.7432,-2.7432,-2.7497,-2.7523,-2.7523,-2.7523,-2.7523,-2.7456,-2.6769,-2.607,-2.537,-2.4564,-2.3841,-2.3287,-2.3287,-2.315,-2.3001,-2.3001,-2.3075,-2.3139,-2.3001,-2.3075,-2.3139,-2.3001,-2.3001,-2.3001,-2.3001,-2.3075,-2.3139,-2.3001,-2.3559,-2.4264,-2.4325,-2.5334,-2.6414,-2.6483,-2.704,-2.7523,-2.7523,-2.7523,-2.7523,-2.7523,-2.6973,-2.6483,-2.6483,-2.6973,-2.7188,-2.6633,-2.7053,-2.7523,-2.7523,-2.7523,-2.6973,-2.5581,-2.607,-2.6208,-2.5523,-2.607,-2.6483,-2.6483,-2.6483,-2.6483,-2.6483,-2.6483,-2.6496,-2.6414,-2.6414,-2.5697,-2.412,-2.4047,-2.3548,-2.2703,-2.2852,-2.2852,-2.2703,-2.2703,-2.2703,-1.3651,-1.4023,-1.4373,-1.4373,-1.4679,0.0,-1.4471,-1.4755,-1.5105,-1.5105,-1.5181,-1.54,-1.5829,-1.5992,-1.6262,-1.6732,-1.7224,-1.789,-1.884,-1.8971,-1.9299,-2.0183,-2.0369,-2.0773,-2.1845,-2.2535,-2.3063,-2.32,-2.4291,-2.5421,-2.6648,-2.6242,-2.6255,-2.6831,-2.6844,-2.6844,-2.6844,-2.7301,-2.7523,-2.7523,-2.7523,-2.7523,-2.7456,-2.6769,-2.6346,-2.6139,-2.537,-2.5016,-2.4874,-2.4874,-2.4154,-2.3001,-2.3001,-2.335,-2.3829,-2.3213,-2.335,-2.3768,-2.3213,-2.3001,-2.3001,-2.3001,-2.3423,-2.3768,-2.3213,-2.3936,-2.5217,-2.5779,-2.6195,-2.6564,-2.7108,-2.739,-2.7523,-2.7523,-2.7523,-2.7523,-2.7523,-2.739,-2.7255,-2.7255,-2.6905,-2.6769,-2.7188,-2.739,-2.7523,-2.7523,-2.7523,-2.7175,-2.6277,-2.6837,-2.6973,-2.6277,-2.6837,-2.7255,-2.7255,-2.7255,-2.7255,-2.7255,-2.7255,-2.704,-2.6414,-2.6414,-2.5697,-2.412,-2.3486,-2.3065,-2.2703,-2.2777,-2.2777,-2.2703,-2.2553,-2.2628,-1.3882,-1.406,-1.4381,-1.4573,-1.4686,0.0,0.0,-1.4744,-1.481,-1.505,-1.4908,-1.4897,-1.5378,-1.5465,-1.5542,-1.5771,-1.623,-1.6721,-1.7202,-1.8086,-1.8862,-1.9364,-1.9637,-1.9976,-2.0456,-2.1263,-2.1936,-2.2237,-2.2876,-2.3907,-2.5281,-2.5088,-2.5329,-2.6229,-2.6242,-2.6242,-2.6242,-2.6817,-2.7105,-2.7105,-2.7392,-2.7523,-2.7456,-2.7108,-2.6769,-2.6346,-2.6,-2.5652,-2.5312,-2.5312,-2.4874,-2.4154,-2.4154,-2.436,-2.4636,-2.4288,-2.436,-2.4636,-2.4299,-2.4154,-2.4082,-2.3706,-2.4059,-2.4564,-2.3779,-2.4647,-2.6,-2.6769,-2.6973,-2.704,-2.739,-2.7523,-2.7523,-2.7523,-2.7523,-2.7523,-2.7523,-2.7523,-2.7523,-2.7523,-2.7175,-2.7053,-2.7456,-2.7523,-2.7523,-2.7523,-2.7523,-2.7255,-2.6483,-2.704,-2.7255,-2.6496,-2.704,-2.7523,-2.7523,-2.7523,-2.7523,-2.7523,-2.7523,-2.7323,-2.6973,-2.6973,-2.6402,-2.5264,-2.3632,-2.2916,-2.3106,-2.2617,-2.2402,-2.2402,-2.2327,-2.2327,-1.41,-1.4168,-1.4391,-1.4634,-1.4655,-1.4664,0.0,0.0,0.0,-1.4849,-1.4646,-1.4493,-1.4897,-1.4963,-1.4963,-1.4963,-1.5378,-1.5644,-1.5644,-1.7148,-1.8313,-1.8392,-1.8851,-1.9179,-1.9277,-1.9987,-2.0753,-2.1346,-2.141,-2.2079,-2.358,-2.3554,-2.4115,-2.5441,-2.5454,-2.553,-2.5654,-2.6334,-2.6674,-2.6687,-2.7249,-2.7523,-2.7523,-2.7523,-2.7188,-2.6633,-2.6633,-2.6277,-2.5721,-2.5721,-2.5721,-2.5734,-2.5382,-2.5382,-2.5511,-2.5382,-2.5382,-2.5511,-2.5382,-2.5312,-2.5158,-2.4564,-2.4779,-2.5158,-2.4564,-2.5205,-2.6346,-2.7108,-2.7323,-2.7323,-2.7456,-2.7523,-2.7523,-2.7523,-2.7523,-2.7523,-2.7523,-2.7523,-2.7523,-2.7523,-2.7523,-2.7523,-2.7523,-2.7523,-2.7523,-2.7523,-2.7523,-2.7255,-2.6701,-2.7108,-2.7255,-2.6701,-2.7108,-2.7523,-2.7523,-2.7523,-2.7523,-2.7523,-2.7523,-2.7523,-2.7523,-2.7255,-2.6837,-2.6414,-2.3986,-2.2979,-2.3514,-2.2531,-2.2101,-2.2101,-2.2035,-2.2101,-1.41,-1.4329,-1.4563,-1.419,-1.4718,-1.5081,-1.4323,0.0,-1.4752,-1.4385,0.0,-1.4395,-1.4449,0.0,0.0,-1.446,-1.4864,-1.5192,-1.5192,-1.6081,-1.6912,-1.7389,-1.7868,-1.8327,-1.8731,-1.8873,-1.9221,-1.9909,-1.9909,-2.0674,-2.242,-2.2007,-2.2456,-2.4141,-2.4229,-2.4489,-2.5066,-2.6138,-2.6674,-2.6687,-2.7249,-2.7523,-2.7523,-2.7523,-2.7456,-2.739,-2.739,-2.7323,-2.7255,-2.7255,-2.7255,-2.7108,-2.5791,-2.5721,-2.6208,-2.5511,-2.5721,-2.6208,-2.5511,-2.5312,-2.53,-2.5158,-2.5241,-2.53,-2.5158,-2.53,-2.5581,-2.6346,-2.6483,-2.6701,-2.7323,-2.7523,-2.7523,-2.7523,-2.7523,-2.7523,-2.7523,-2.7523,-2.7523,-2.7523,-2.7523,-2.7523,-2.7523,-2.7523,-2.7523,-2.7523,-2.7523,-2.7456,-2.739,-2.7456,-2.7469,-2.739,-2.7456,-2.7523,-2.7523,-2.7523,-2.7523,-2.7523,-2.7523,-2.7523,-2.7523,-2.6208,-2.5791,-2.6414,-2.3986,-2.2979,-2.3514,-2.2531,-2.2101,-2.2101,-2.1959,-2.2035,-1.3888,-1.4205,-1.4609,-1.437,-1.4712,-1.4992,-1.4499,-1.4435,-1.4499,-1.4575,0.0,0.0,0.0,0.0,0.0,0.0,-1.4548,-1.4679,-1.4679,-1.5289,-1.5992,-1.6748,-1.7017,-1.7345,-1.7849,-1.7868,-1.8214,-1.9052,-1.8899,-1.9329,-2.0747,-2.0793,-2.1343,-2.2456,-2.3155,-2.3634,-2.3888,-2.514,-2.568,-2.5694,-2.6269,-2.6543,-2.6543,-2.6543,-2.6713,-2.704,-2.704,-2.7223,-2.7523,-2.7523,-2.7523,-2.7456,-2.6837,-2.6769,-2.6973,-2.6701,-2.6769,-2.6973,-2.6701,-2.6564,-2.6564,-2.6564,-2.6,-2.5453,-2.6346,-2.6277,-2.6,-2.6277,-2.607,-2.5931,-2.6701,-2.6837,-2.6973,-2.739,-2.7523,-2.7523,-2.7523,-2.7523,-2.7523,-2.7523,-2.7523,-2.7523,-2.7523,-2.7523,-2.7523,-2.7523,-2.7523,-2.7523,-2.7523,-2.7523,-2.7523,-2.7523,-2.7523,-2.7523,-2.7523,-2.7523,-2.7523,-2.7523,-2.7523,-2.7523,-2.7523,-2.6483,-2.6289,-2.6918,-2.4921,-2.3913,-2.4036,-2.3054,-2.2402,-2.1959,-2.1807,-2.1883,-1.3962,-1.4286,-1.4679,-1.4328,-1.4518,-1.4669,-1.4433,-1.4339,-1.4339,-1.4553,-1.4531,0.0,0.0,0.0,-1.4373,-1.4373,0.0,-1.4373,-1.4373,-1.4821,-1.5411,-1.6227,-1.6409,-1.6633,-1.7068,-1.6983,-1.7213,-1.8032,-1.7781,-1.8087,-1.9204,-1.959,-2.0199,-2.1117,-2.1922,-2.2504,-2.2834,-2.391,-2.4523,-2.4719,-2.5275,-2.561,-2.5824,-2.5824,-2.6046,-2.6452,-2.6608,-2.6909,-2.7301,-2.7301,-2.7392,-2.751,-2.7353,-2.7392,-2.7523,-2.7523,-2.7523,-2.7523,-2.7523,-2.7523,-2.7469,-2.7255,-2.6483,-2.5721,-2.6402,-2.6183,-2.5767,-2.5767,-2.5569,-2.5441,-2.6208,-2.6564,-2.6837,-2.739,-2.7523,-2.7523,-2.7523,-2.7523,-2.7523,-2.7523,-2.7523,-2.7523,-2.7523,-2.7523,-2.7523,-2.7523,-2.7523,-2.7523,-2.7523,-2.7523,-2.7523,-2.7523,-2.7523,-2.7523,-2.7523,-2.7523,-2.7523,-2.7523,-2.7523,-2.7523,-2.7523,-2.6769,-2.6625,-2.7102,-2.5554,-2.4495,-2.4049,-2.3218,-2.2359,-2.1435,-2.1683,-2.1807,-1.4531,-1.4624,-1.4759,-1.3869,-1.3972,-1.419,-1.3745,-1.408,-1.4366,-1.3936,-1.4296,-1.4612,-1.4283,-1.4233,-1.4233,0.0,-1.4373,0.0,0.0,-1.48,-1.5269,-1.5749,-1.6241,-1.65,-1.6535,-1.6114,-1.6025,-1.6546,-1.6568,-1.6994,-1.7977,-1.8043,-1.8814,-2.0392,-2.0499,-2.1049,-2.2101,-2.2781,-2.3376,-2.4016,-2.4608,-2.5192,-2.5824,-2.5824,-2.5837,-2.5876,-2.6438,-2.6687,-2.67,-2.67,-2.7027,-2.7471,-2.6922,-2.704,-2.7523,-2.7523,-2.7523,-2.7523,-2.7523,-2.7523,-2.739,-2.6701,-2.6414,-2.6139,-2.4612,-2.4181,-2.4192,-2.4192,-2.4707,-2.5441,-2.6208,-2.6905,-2.7456,-2.7456,-2.7523,-2.7523,-2.7523,-2.7523,-2.7523,-2.7523,-2.7523,-2.7523,-2.7523,-2.7523,-2.7523,-2.7523,-2.7523,-2.7523,-2.7523,-2.7523,-2.7523,-2.7523,-2.7523,-2.7523,-2.7523,-2.7523,-2.7523,-2.7523,-2.7523,-2.7523,-2.7523,-2.6769,-2.6515,-2.6713,-2.5359,-2.4202,-2.3112,-2.2607,-2.1693,-2.0493,-2.1383,-2.1807,-1.4852,-1.5195,-1.5373,-1.4304,-1.4457,-1.4643,-1.3786,-1.408,-1.4387,-1.3915,-1.4296,-1.4584,-1.4153,-1.4057,-1.4104,0.0,0.0,-1.4326,0.0,-1.4789,-1.5165,-1.5326,-1.5738,-1.5901,-1.557,-1.5444,-1.5673,-1.6459,-1.6188,-1.6492,-1.7475,-1.7824,-1.8269,-1.8814,-1.9841,-2.0569,-2.0976,-2.1939,-2.2515,-2.2763,-2.2934,-2.3393,-2.4032,-2.4032,-2.4494,-2.5262,-2.5458,-2.5759,-2.6112,-2.6112,-2.6229,-2.6425,-2.6595,-2.6556,-2.6491,-2.7249,-2.7288,-2.6961,-2.6961,-2.6865,-2.6837,-2.704,-2.6837,-2.6277,-2.5767,-2.5627,-2.5487,-2.5004,-2.5087,-2.5441,-2.6208,-2.6564,-2.6905,-2.739,-2.7523,-2.7523,-2.7523,-2.7523,-2.7523,-2.7523,-2.7523,-2.7523,-2.7523,-2.7523,-2.7523,-2.7523,-2.7523,-2.7523,-2.7523,-2.7523,-2.7379,-2.7,-2.6961,-2.6817,-2.6438,-2.6399,-2.6399,-2.6399,-2.6399,-2.6399,-2.6399,-2.6142,-2.5975,-2.5895,-2.5353,-2.4384,-2.2998,-2.264,-2.175,-2.0431,-2.0741,-2.1062,-1.5287,-1.5506,-1.5592,-1.4738,-1.4811,-1.4883,-1.4035,-1.427,-1.4528,-1.4059,-1.4303,-1.4531,-1.4482,-1.4196,-1.4063,0.0,0.0,-1.4233,0.0,-1.4651,-1.4834,-1.4834,-1.5291,-1.5438,-1.5129,-1.4938,-1.5247,-1.6208,-1.5949,-1.6252,-1.7224,-1.7573,-1.7824,-1.7999,-1.8996,-1.972,-2.007,-2.0749,-2.1366,-2.1741,-2.1741,-2.2101,-2.2713,-2.2713,-2.3167,-2.3971,-2.4433,-2.4851,-2.5187,-2.5387,-2.5641,-2.5863,-2.6229,-2.6138,-2.5942,-2.6883,-2.687,-2.6373,-2.6373,-2.6284,-2.6238,-2.6726,-2.6383,-2.5795,-2.5983,-2.5909,-2.5603,-2.5392,-2.5523,-2.5791,-2.6277,-2.6552,-2.6905,-2.739,-2.7523,-2.7523,-2.7523,-2.7523,-2.7523,-2.7523,-2.7523,-2.7523,-2.7523,-2.7353,-2.7301,-2.7497,-2.7523,-2.7523,-2.7523,-2.7353,-2.7079,-2.6713,-2.6491,-2.6216,-2.585,-2.5824,-2.5824,-2.5824,-2.5824,-2.5824,-2.5824,-2.5824,-2.5657,-2.5312,-2.5381,-2.4429,-2.2406,-2.2448,-2.1575,-1.9944,-2.011,-2.0348]}]]